Wetterdaten: Samstag, 28.01.2023
Datum Zeit Temp. 2m Temp +5 cm Feuchte A. Luftdruck Regen Wind Richtung Richtung Sonnenschein UV Solar Taupunkt Windchill Windben
28.01.2023 00:00 -0,1 C 0,0 C 92 % 1028,1 hPa 0,0 l/m 11,3 km/h (2 Bft) N 360 0 min 0,0 UV-I 0 W/m -1,2 C -4,6 C 20,9 km/h (4 Bft)
28.01.2023 00:01 -0,1 C -0,6 C 92 % 1028,0 hPa 0,0 l/m 14,5 km/h (3 Bft) N-NO 22 0 min 0,0 UV-I 0 W/m -1,2 C -6,8 C 19,3 km/h (3 Bft)
28.01.2023 00:02 -0,1 C 0,0 C 92 % 1028,1 hPa 0,0 l/m 8,0 km/h (2 Bft) N-NO 22 0 min 0,0 UV-I 0 W/m -1,2 C -1,8 C 12,9 km/h (3 Bft)
28.01.2023 00:03 -0,1 C 0,0 C 92 % 1028,1 hPa 0,0 l/m 11,3 km/h (2 Bft) N-NO 22 0 min 0,0 UV-I 0 W/m -1,2 C -4,6 C 17,7 km/h (3 Bft)
28.01.2023 00:04 -0,1 C 0,0 C 92 % 1028,1 hPa 0,0 l/m 11,3 km/h (2 Bft) N-NO 22 0 min 0,0 UV-I 0 W/m -1,2 C -4,6 C 16,1 km/h (3 Bft)
28.01.2023 00:05 -0,1 C 0,0 C 92 % 1028,0 hPa 0,0 l/m 14,5 km/h (3 Bft) N-NO 22 0 min 0,0 UV-I 0 W/m -1,2 C -6,8 C 17,7 km/h (3 Bft)
28.01.2023 00:06 -0,1 C 0,0 C 92 % 1028,0 hPa 0,0 l/m 11,3 km/h (2 Bft) N-NO 22 0 min 0,0 UV-I 0 W/m -1,2 C -4,6 C 14,5 km/h (3 Bft)
28.01.2023 00:07 -0,1 C 0,0 C 92 % 1028,0 hPa 0,0 l/m 11,3 km/h (2 Bft) N-NO 22 0 min 0,0 UV-I 0 W/m -1,2 C -4,6 C 20,9 km/h (4 Bft)
28.01.2023 00:08 -0,1 C -0,6 C 92 % 1028,1 hPa 0,0 l/m 9,7 km/h (2 Bft) N 360 0 min 0,0 UV-I 0 W/m -1,2 C -3,3 C 12,9 km/h (3 Bft)
28.01.2023 00:09 -0,1 C 0,0 C 92 % 1027,9 hPa 0,0 l/m 9,7 km/h (2 Bft) N-NO 22 0 min 0,0 UV-I 0 W/m -1,2 C -3,3 C 14,5 km/h (3 Bft)
28.01.2023 00:10 -0,1 C 0,0 C 92 % 1028,0 hPa 0,0 l/m 9,7 km/h (2 Bft) N 360 0 min 0,0 UV-I 0 W/m -1,2 C -3,3 C 14,5 km/h (3 Bft)
28.01.2023 00:11 -0,1 C -0,6 C 92 % 1028,0 hPa 0,0 l/m 9,7 km/h (2 Bft) N 360 0 min 0,0 UV-I 0 W/m -1,2 C -3,3 C 14,5 km/h (3 Bft)
28.01.2023 00:12 -0,1 C -0,6 C 92 % 1028,0 hPa 0,0 l/m 9,7 km/h (2 Bft) N-NO 22 0 min 0,0 UV-I 0 W/m -1,2 C -3,3 C 14,5 km/h (3 Bft)
28.01.2023 00:13 -0,1 C -0,6 C 92 % 1028,1 hPa 0,0 l/m 6,4 km/h (2 Bft) N-NO 22 0 min 0,0 UV-I 0 W/m -1,2 C -0,1 C 14,5 km/h (3 Bft)
28.01.2023 00:14 -0,1 C -0,6 C 92 % 1028,0 hPa 0,0 l/m 8,0 km/h (2 Bft) N-NO 22 0 min 0,0 UV-I 0 W/m -1,2 C -1,8 C 14,5 km/h (3 Bft)
28.01.2023 00:15 -0,1 C -0,6 C 92 % 1028,2 hPa 0,0 l/m 14,5 km/h (3 Bft) N 360 0 min 0,0 UV-I 0 W/m -1,2 C -6,8 C 17,7 km/h (3 Bft)
28.01.2023 00:16 -0,1 C -0,6 C 92 % 1028,2 hPa 0,0 l/m 9,7 km/h (2 Bft) N-NO 22 0 min 0,0 UV-I 0 W/m -1,2 C -3,3 C 17,7 km/h (3 Bft)
28.01.2023 00:17 -0,1 C -0,6 C 92 % 1028,1 hPa 0,0 l/m 9,7 km/h (2 Bft) N-NO 22 0 min 0,0 UV-I 0 W/m -1,2 C -3,3 C 16,1 km/h (3 Bft)
28.01.2023 00:18 -0,1 C -0,6 C 92 % 1028,1 hPa 0,0 l/m 8,0 km/h (2 Bft) N-NO 22 0 min 0,0 UV-I 0 W/m -1,2 C -1,8 C 9,7 km/h (2 Bft)
28.01.2023 00:19 -0,1 C -0,6 C 92 % 1028,1 hPa 0,0 l/m 9,7 km/h (2 Bft) N-NO 22 0 min 0,0 UV-I 0 W/m -1,2 C -3,3 C 14,5 km/h (3 Bft)
28.01.2023 00:20 -0,1 C 0,0 C 92 % 1028,1 hPa 0,0 l/m 12,9 km/h (3 Bft) N-NO 22 0 min 0,0 UV-I 0 W/m -1,2 C -5,8 C 14,5 km/h (3 Bft)
28.01.2023 00:21 -0,1 C 0,0 C 92 % 1028,2 hPa 0,0 l/m 8,0 km/h (2 Bft) N 360 0 min 0,0 UV-I 0 W/m -1,2 C -1,8 C 12,9 km/h (3 Bft)
28.01.2023 00:22 -0,1 C 0,0 C 92 % 1028,2 hPa 0,0 l/m 8,0 km/h (2 Bft) N-NO 22 0 min 0,0 UV-I 0 W/m -1,2 C -1,8 C 14,5 km/h (3 Bft)
28.01.2023 00:23 -0,1 C 0,0 C 92 % 1028,2 hPa 0,0 l/m 14,5 km/h (3 Bft) N 360 0 min 0,0 UV-I 0 W/m -1,2 C -6,8 C 17,7 km/h (3 Bft)
28.01.2023 00:24 -0,1 C -0,6 C 92 % 1028,2 hPa 0,0 l/m 14,5 km/h (3 Bft) N 360 0 min 0,0 UV-I 0 W/m -1,2 C -6,8 C 19,3 km/h (3 Bft)
28.01.2023 00:25 -0,1 C -0,6 C 92 % 1028,2 hPa 0,0 l/m 12,9 km/h (3 Bft) N 360 0 min 0,0 UV-I 0 W/m -1,2 C -5,8 C 17,7 km/h (3 Bft)
28.01.2023 00:26 -0,1 C -0,6 C 92 % 1028,2 hPa 0,0 l/m 17,7 km/h (3 Bft) N 360 0 min 0,0 UV-I 0 W/m -1,2 C -8,6 C 24,1 km/h (4 Bft)
28.01.2023 00:27 -0,2 C -0,6 C 92 % 1028,3 hPa 0,0 l/m 19,3 km/h (3 Bft) N 360 0 min 0,0 UV-I 0 W/m -1,3 C -9,6 C 25,7 km/h (4 Bft)
28.01.2023 00:28 -0,2 C -0,6 C 92 % 1028,2 hPa 0,0 l/m 17,7 km/h (3 Bft) N 360 0 min 0,0 UV-I 0 W/m -1,3 C -8,7 C 22,5 km/h (4 Bft)
28.01.2023 00:29 -0,2 C -0,6 C 92 % 1028,3 hPa 0,0 l/m 14,5 km/h (3 Bft) N-NO 22 0 min 0,0 UV-I 0 W/m -1,3 C -6,9 C 25,7 km/h (4 Bft)
28.01.2023 00:30 -0,2 C -0,6 C 92 % 1028,3 hPa 0,0 l/m 14,5 km/h (3 Bft) N 360 0 min 0,0 UV-I 0 W/m -1,3 C -6,9 C 22,5 km/h (4 Bft)
28.01.2023 00:31 -0,2 C -0,6 C 92 % 1028,3 hPa 0,0 l/m 14,5 km/h (3 Bft) N 360 0 min 0,0 UV-I 0 W/m -1,3 C -6,9 C 22,5 km/h (4 Bft)
28.01.2023 00:32 -0,2 C -0,6 C 92 % 1028,3 hPa 0,0 l/m 17,7 km/h (3 Bft) N 360 0 min 0,0 UV-I 0 W/m -1,3 C -8,7 C 20,9 km/h (4 Bft)
28.01.2023 00:33 -0,2 C -0,6 C 92 % 1028,2 hPa 0,0 l/m 11,3 km/h (2 Bft) N 360 0 min 0,0 UV-I 0 W/m -1,3 C -4,7 C 19,3 km/h (3 Bft)
28.01.2023 00:34 -0,2 C -0,6 C 92 % 1028,3 hPa 0,0 l/m 16,1 km/h (3 Bft) N 360 0 min 0,0 UV-I 0 W/m -1,3 C -7,9 C 20,9 km/h (4 Bft)
28.01.2023 00:35 -0,2 C -0,6 C 92 % 1028,2 hPa 0,0 l/m 16,1 km/h (3 Bft) N 360 0 min 0,0 UV-I 0 W/m -1,3 C -7,9 C 24,1 km/h (4 Bft)
28.01.2023 00:36 -0,2 C -0,6 C 92 % 1028,3 hPa 0,0 l/m 14,5 km/h (3 Bft) N 360 0 min 0,0 UV-I 0 W/m -1,3 C -6,9 C 20,9 km/h (4 Bft)
28.01.2023 00:37 -0,2 C -0,6 C 92 % 1028,3 hPa 0,0 l/m 16,1 km/h (3 Bft) N 360 0 min 0,0 UV-I 0 W/m -1,3 C -7,9 C 20,9 km/h (4 Bft)
28.01.2023 00:38 -0,2 C -0,6 C 92 % 1028,3 hPa 0,0 l/m 16,1 km/h (3 Bft) N 360 0 min 0,0 UV-I 0 W/m -1,3 C -7,9 C 25,7 km/h (4 Bft)
28.01.2023 00:39 -0,2 C -0,6 C 92 % 1028,2 hPa 0,0 l/m 17,7 km/h (3 Bft) N-NO 22 0 min 0,0 UV-I 0 W/m -1,3 C -8,7 C 25,7 km/h (4 Bft)
28.01.2023 00:40 -0,2 C -0,6 C 92 % 1028,3 hPa 0,0 l/m 17,7 km/h (3 Bft) N-NO 22 0 min 0,0 UV-I 0 W/m -1,3 C -8,7 C 20,9 km/h (4 Bft)
28.01.2023 00:41 -0,2 C -0,6 C 92 % 1028,2 hPa 0,0 l/m 19,3 km/h (3 Bft) N-NO 22 0 min 0,0 UV-I 0 W/m -1,3 C -9,6 C 22,5 km/h (4 Bft)
28.01.2023 00:42 -0,2 C -0,6 C 92 % 1028,2 hPa 0,0 l/m 14,5 km/h (3 Bft) N 360 0 min 0,0 UV-I 0 W/m -1,3 C -6,9 C 19,3 km/h (3 Bft)
28.01.2023 00:43 -0,2 C -0,6 C 92 % 1028,2 hPa 0,0 l/m 14,5 km/h (3 Bft) N 360 0 min 0,0 UV-I 0 W/m -1,3 C -6,9 C 19,3 km/h (3 Bft)
28.01.2023 00:44 -0,2 C -0,6 C 92 % 1028,2 hPa 0,0 l/m 12,9 km/h (3 Bft) N 360 0 min 0,0 UV-I 0 W/m -1,3 C -5,9 C 19,3 km/h (3 Bft)
28.01.2023 00:45 -0,2 C -0,6 C 92 % 1028,2 hPa 0,0 l/m 11,3 km/h (2 Bft) N-NO 22 0 min 0,0 UV-I 0 W/m -1,3 C -4,7 C 20,9 km/h (4 Bft)
28.01.2023 00:46 -0,2 C -0,6 C 92 % 1028,3 hPa 0,0 l/m 11,3 km/h (2 Bft) N 360 0 min 0,0 UV-I 0 W/m -1,3 C -4,7 C 14,5 km/h (3 Bft)
28.01.2023 00:47 -0,2 C -0,6 C 92 % 1028,3 hPa 0,0 l/m 12,9 km/h (3 Bft) N 360 0 min 0,0 UV-I 0 W/m -1,3 C -5,9 C 19,3 km/h (3 Bft)
28.01.2023 00:48 -0,3 C -0,6 C 92 % 1028,3 hPa 0,0 l/m 17,7 km/h (3 Bft) N 360 0 min 0,0 UV-I 0 W/m -1,4 C -8,9 C 22,5 km/h (4 Bft)
28.01.2023 00:49 -0,3 C -0,6 C 92 % 1028,3 hPa 0,0 l/m 17,7 km/h (3 Bft) N-NO 22 0 min 0,0 UV-I 0 W/m -1,4 C -8,9 C 24,1 km/h (4 Bft)
28.01.2023 00:50 -0,2 C -0,6 C 92 % 1028,2 hPa 0,0 l/m 12,9 km/h (3 Bft) N-NO 22 0 min 0,0 UV-I 0 W/m -1,3 C -5,9 C 19,3 km/h (3 Bft)
28.01.2023 00:51 -0,3 C -0,6 C 92 % 1028,3 hPa 0,0 l/m 12,9 km/h (3 Bft) N 360 0 min 0,0 UV-I 0 W/m -1,4 C -6,0 C 17,7 km/h (3 Bft)
28.01.2023 00:52 -0,3 C -0,6 C 92 % 1028,3 hPa 0,0 l/m 17,7 km/h (3 Bft) N 360 0 min 0,0 UV-I 0 W/m -1,4 C -8,9 C 24,1 km/h (4 Bft)
28.01.2023 00:53 -0,3 C -0,6 C 92 % 1028,3 hPa 0,0 l/m 16,1 km/h (3 Bft) N 360 0 min 0,0 UV-I 0 W/m -1,4 C -8,0 C 22,5 km/h (4 Bft)
28.01.2023 00:54 -0,3 C -0,6 C 92 % 1028,3 hPa 0,0 l/m 19,3 km/h (3 Bft) N 360 0 min 0,0 UV-I 0 W/m -1,4 C -9,7 C 24,1 km/h (4 Bft)
28.01.2023 00:55 -0,3 C -0,6 C 92 % 1028,3 hPa 0,0 l/m 17,7 km/h (3 Bft) N-NO 22 0 min 0,0 UV-I 0 W/m -1,4 C -8,9 C 25,7 km/h (4 Bft)
28.01.2023 00:56 -0,3 C -0,6 C 92 % 1028,3 hPa 0,0 l/m 17,7 km/h (3 Bft) N 360 0 min 0,0 UV-I 0 W/m -1,4 C -8,9 C 22,5 km/h (4 Bft)
28.01.2023 00:57 -0,3 C -0,6 C 92 % 1028,3 hPa 0,0 l/m 16,1 km/h (3 Bft) N 360 0 min 0,0 UV-I 0 W/m -1,4 C -8,0 C 24,1 km/h (4 Bft)
28.01.2023 00:58 -0,3 C -0,6 C 92 % 1028,3 hPa 0,0 l/m 17,7 km/h (3 Bft) N 360 0 min 0,0 UV-I 0 W/m -1,4 C -8,9 C 29,0 km/h (5 Bft)
28.01.2023 00:59 -0,3 C -0,6 C 92 % 1028,3 hPa 0,0 l/m 17,7 km/h (3 Bft) N-NO 22 0 min 0,0 UV-I 0 W/m -1,4 C -8,9 C 29,0 km/h (5 Bft)
28.01.2023 01:00 -0,3 C -0,6 C 92 % 1028,3 hPa 0,0 l/m 17,7 km/h (3 Bft) N 360 0 min 0,0 UV-I 0 W/m -1,4 C -8,9 C 24,1 km/h (4 Bft)
28.01.2023 01:01 -0,3 C -0,6 C 92 % 1028,2 hPa 0,0 l/m 16,1 km/h (3 Bft) N-NO 22 0 min 0,0 UV-I 0 W/m -1,4 C -8,0 C 20,9 km/h (4 Bft)
28.01.2023 01:02 -0,3 C -0,6 C 92 % 1028,3 hPa 0,0 l/m 14,5 km/h (3 Bft) N 360 0 min 0,0 UV-I 0 W/m -1,4 C -7,0 C 19,3 km/h (3 Bft)
28.01.2023 01:03 -0,4 C -0,6 C 92 % 1028,3 hPa 0,0 l/m 20,9 km/h (4 Bft) N 360 0 min 0,0 UV-I 0 W/m -1,5 C -10,6 C 27,4 km/h (4 Bft)
28.01.2023 01:04 -0,4 C -0,6 C 92 % 1028,3 hPa 0,0 l/m 16,1 km/h (3 Bft) N-NO 22 0 min 0,0 UV-I 0 W/m -1,5 C -8,1 C 20,9 km/h (4 Bft)
28.01.2023 01:05 -0,4 C -0,6 C 92 % 1028,3 hPa 0,0 l/m 19,3 km/h (3 Bft) N-NO 22 0 min 0,0 UV-I 0 W/m -1,5 C -9,8 C 27,4 km/h (4 Bft)
28.01.2023 01:06 -0,4 C -0,6 C 92 % 1028,3 hPa 0,0 l/m 16,1 km/h (3 Bft) N 360 0 min 0,0 UV-I 0 W/m -1,5 C -8,1 C 20,9 km/h (4 Bft)
28.01.2023 01:07 -0,4 C -0,6 C 92 % 1028,4 hPa 0,0 l/m 20,9 km/h (4 Bft) N 360 0 min 0,0 UV-I 0 W/m -1,5 C -10,6 C 30,6 km/h (5 Bft)
28.01.2023 01:08 -0,4 C -0,6 C 92 % 1028,3 hPa 0,0 l/m 19,3 km/h (3 Bft) N 360 0 min 0,0 UV-I 0 W/m -1,5 C -9,8 C 25,7 km/h (4 Bft)
28.01.2023 01:09 -0,4 C -0,6 C 92 % 1028,3 hPa 0,0 l/m 19,3 km/h (3 Bft) N 360 0 min 0,0 UV-I 0 W/m -1,5 C -9,8 C 30,6 km/h (5 Bft)
28.01.2023 01:10 -0,4 C -0,6 C 92 % 1028,3 hPa 0,0 l/m 14,5 km/h (3 Bft) N-NO 22 0 min 0,0 UV-I 0 W/m -1,5 C -7,2 C 20,9 km/h (4 Bft)
28.01.2023 01:11 -0,4 C -0,6 C 92 % 1028,3 hPa 0,0 l/m 12,9 km/h (3 Bft) N 360 0 min 0,0 UV-I 0 W/m -1,5 C -6,1 C 17,7 km/h (3 Bft)
28.01.2023 01:12 -0,4 C -0,6 C 92 % 1028,4 hPa 0,0 l/m 16,1 km/h (3 Bft) N 360 0 min 0,0 UV-I 0 W/m -1,5 C -8,1 C 20,9 km/h (4 Bft)
28.01.2023 01:13 -0,4 C -0,6 C 92 % 1028,3 hPa 0,0 l/m 16,1 km/h (3 Bft) N 360 0 min 0,0 UV-I 0 W/m -1,5 C -8,1 C 19,3 km/h (3 Bft)
28.01.2023 01:14 -0,4 C -0,6 C 92 % 1028,3 hPa 0,0 l/m 17,7 km/h (3 Bft) N-NO 22 0 min 0,0 UV-I 0 W/m -1,5 C -9,0 C 20,9 km/h (4 Bft)
28.01.2023 01:15 -0,4 C -0,6 C 92 % 1028,2 hPa 0,0 l/m 11,3 km/h (2 Bft) N 360 0 min 0,0 UV-I 0 W/m -1,5 C -4,9 C 19,3 km/h (3 Bft)
28.01.2023 01:16 -0,4 C -0,6 C 92 % 1028,2 hPa 0,0 l/m 19,3 km/h (3 Bft) N 360 0 min 0,0 UV-I 0 W/m -1,5 C -9,8 C 27,4 km/h (4 Bft)
28.01.2023 01:17 -0,4 C -0,6 C 92 % 1028,2 hPa 0,0 l/m 16,1 km/h (3 Bft) N 360 0 min 0,0 UV-I 0 W/m -1,5 C -8,1 C 24,1 km/h (4 Bft)
28.01.2023 01:18 -0,4 C -0,6 C 92 % 1028,2 hPa 0,0 l/m 12,9 km/h (3 Bft) N-NO 22 0 min 0,0 UV-I 0 W/m -1,5 C -6,1 C 19,3 km/h (3 Bft)
28.01.2023 01:19 -0,4 C -0,6 C 92 % 1028,3 hPa 0,0 l/m 14,5 km/h (3 Bft) N-NO 22 0 min 0,0 UV-I 0 W/m -1,5 C -7,2 C 19,3 km/h (3 Bft)
28.01.2023 01:20 -0,4 C -0,6 C 92 % 1028,3 hPa 0,0 l/m 12,9 km/h (3 Bft) N 360 0 min 0,0 UV-I 0 W/m -1,5 C -6,1 C 19,3 km/h (3 Bft)
28.01.2023 01:21 -0,4 C -0,6 C 92 % 1028,2 hPa 0,0 l/m 17,7 km/h (3 Bft) N 360 0 min 0,0 UV-I 0 W/m -1,5 C -9,0 C 22,5 km/h (4 Bft)
28.01.2023 01:22 -0,4 C -0,6 C 92 % 1028,3 hPa 0,0 l/m 17,7 km/h (3 Bft) N-NO 22 0 min 0,0 UV-I 0 W/m -1,5 C -9,0 C 24,1 km/h (4 Bft)
28.01.2023 01:23 -0,4 C -0,6 C 92 % 1028,2 hPa 0,0 l/m 17,7 km/h (3 Bft) N 360 0 min 0,0 UV-I 0 W/m -1,5 C -9,0 C 20,9 km/h (4 Bft)
28.01.2023 01:24 -0,4 C -0,6 C 92 % 1028,2 hPa 0,0 l/m 14,5 km/h (3 Bft) N 360 0 min 0,0 UV-I 0 W/m -1,5 C -7,2 C 20,9 km/h (4 Bft)
28.01.2023 01:25 -0,4 C -0,6 C 92 % 1028,3 hPa 0,0 l/m 17,7 km/h (3 Bft) N-NO 22 0 min 0,0 UV-I 0 W/m -1,5 C -9,0 C 19,3 km/h (3 Bft)
28.01.2023 01:26 -0,4 C -0,6 C 92 % 1028,3 hPa 0,0 l/m 9,7 km/h (2 Bft) N-NO 22 0 min 0,0 UV-I 0 W/m -1,5 C -3,6 C 16,1 km/h (3 Bft)
28.01.2023 01:27 -0,4 C -0,6 C 92 % 1028,3 hPa 0,0 l/m 12,9 km/h (3 Bft) N 360 0 min 0,0 UV-I 0 W/m -1,5 C -6,1 C 19,3 km/h (3 Bft)
28.01.2023 01:28 -0,4 C -0,6 C 92 % 1028,3 hPa 0,0 l/m 14,5 km/h (3 Bft) N-NO 22 0 min 0,0 UV-I 0 W/m -1,5 C -7,2 C 19,3 km/h (3 Bft)
28.01.2023 01:29 -0,4 C -0,6 C 92 % 1028,3 hPa 0,0 l/m 16,1 km/h (3 Bft) N 360 0 min 0,0 UV-I 0 W/m -1,5 C -8,1 C 19,3 km/h (3 Bft)
28.01.2023 01:30 -0,4 C -0,6 C 92 % 1028,3 hPa 0,0 l/m 16,1 km/h (3 Bft) N 360 0 min 0,0 UV-I 0 W/m -1,5 C -8,1 C 19,3 km/h (3 Bft)
28.01.2023 01:31 -0,4 C -0,6 C 92 % 1028,2 hPa 0,0 l/m 14,5 km/h (3 Bft) N 360 0 min 0,0 UV-I 0 W/m -1,5 C -7,2 C 19,3 km/h (3 Bft)
28.01.2023 01:32 -0,4 C -0,6 C 92 % 1028,2 hPa 0,0 l/m 16,1 km/h (3 Bft) N 360 0 min 0,0 UV-I 0 W/m -1,5 C -8,1 C 19,3 km/h (3 Bft)
28.01.2023 01:33 -0,4 C -0,6 C 92 % 1028,3 hPa 0,0 l/m 12,9 km/h (3 Bft) N 360 0 min 0,0 UV-I 0 W/m -1,5 C -6,1 C 17,7 km/h (3 Bft)
28.01.2023 01:34 -0,4 C -0,6 C 92 % 1028,2 hPa 0,0 l/m 9,7 km/h (2 Bft) N 360 0 min 0,0 UV-I 0 W/m -1,5 C -3,6 C 17,7 km/h (3 Bft)
28.01.2023 01:35 -0,4 C -0,6 C 92 % 1028,2 hPa 0,0 l/m 11,3 km/h (2 Bft) N 360 0 min 0,0 UV-I 0 W/m -1,5 C -4,9 C 17,7 km/h (3 Bft)
28.01.2023 01:36 -0,4 C -0,6 C 92 % 1028,2 hPa 0,0 l/m 17,7 km/h (3 Bft) N 360 0 min 0,0 UV-I 0 W/m -1,5 C -9,0 C 20,9 km/h (4 Bft)
28.01.2023 01:37 -0,4 C -0,6 C 92 % 1028,2 hPa 0,0 l/m 11,3 km/h (2 Bft) N 360 0 min 0,0 UV-I 0 W/m -1,5 C -4,9 C 17,7 km/h (3 Bft)
28.01.2023 01:38 -0,4 C -0,6 C 92 % 1028,2 hPa 0,0 l/m 9,7 km/h (2 Bft) N 360 0 min 0,0 UV-I 0 W/m -1,5 C -3,6 C 14,5 km/h (3 Bft)
28.01.2023 01:39 -0,4 C -0,6 C 92 % 1028,2 hPa 0,0 l/m 12,9 km/h (3 Bft) N 360 0 min 0,0 UV-I 0 W/m -1,5 C -6,1 C 16,1 km/h (3 Bft)
28.01.2023 01:40 -0,4 C -0,6 C 92 % 1028,2 hPa 0,0 l/m 12,9 km/h (3 Bft) N 360 0 min 0,0 UV-I 0 W/m -1,5 C -6,1 C 17,7 km/h (3 Bft)
28.01.2023 01:41 -0,4 C -0,6 C 92 % 1028,1 hPa 0,0 l/m 14,5 km/h (3 Bft) N 360 0 min 0,0 UV-I 0 W/m -1,5 C -7,2 C 20,9 km/h (4 Bft)
28.01.2023 01:42 -0,4 C -0,6 C 92 % 1028,1 hPa 0,0 l/m 12,9 km/h (3 Bft) N 360 0 min 0,0 UV-I 0 W/m -1,5 C -6,1 C 19,3 km/h (3 Bft)
28.01.2023 01:43 -0,4 C -0,6 C 92 % 1028,1 hPa 0,0 l/m 9,7 km/h (2 Bft) N-NO 22 0 min 0,0 UV-I 0 W/m -1,5 C -3,6 C 17,7 km/h (3 Bft)
28.01.2023 01:44 -0,4 C -0,6 C 92 % 1028,2 hPa 0,0 l/m 11,3 km/h (2 Bft) N 360 0 min 0,0 UV-I 0 W/m -1,5 C -4,9 C 17,7 km/h (3 Bft)
28.01.2023 01:45 -0,5 C -0,6 C 92 % 1028,2 hPa 0,0 l/m 12,9 km/h (3 Bft) N-NO 22 0 min 0,0 UV-I 0 W/m -1,6 C -6,2 C 19,3 km/h (3 Bft)
28.01.2023 01:46 -0,4 C -0,6 C 92 % 1028,2 hPa 0,0 l/m 14,5 km/h (3 Bft) N 360 0 min 0,0 UV-I 0 W/m -1,5 C -7,2 C 19,3 km/h (3 Bft)
28.01.2023 01:47 -0,4 C -0,6 C 92 % 1028,3 hPa 0,0 l/m 12,9 km/h (3 Bft) N 360 0 min 0,0 UV-I 0 W/m -1,5 C -6,1 C 17,7 km/h (3 Bft)
28.01.2023 01:48 -0,4 C -0,6 C 92 % 1028,2 hPa 0,0 l/m 9,7 km/h (2 Bft) N-NO 22 0 min 0,0 UV-I 0 W/m -1,5 C -3,6 C 14,5 km/h (3 Bft)
28.01.2023 01:49 -0,4 C -0,6 C 92 % 1028,3 hPa 0,0 l/m 9,7 km/h (2 Bft) N-NO 22 0 min 0,0 UV-I 0 W/m -1,5 C -3,6 C 14,5 km/h (3 Bft)
28.01.2023 01:50 -0,5 C -0,6 C 92 % 1028,3 hPa 0,0 l/m 12,9 km/h (3 Bft) N 360 0 min 0,0 UV-I 0 W/m -1,6 C -6,2 C 17,7 km/h (3 Bft)
28.01.2023 01:51 -0,4 C -0,6 C 92 % 1028,3 hPa 0,0 l/m 9,7 km/h (2 Bft) N 360 0 min 0,0 UV-I 0 W/m -1,5 C -3,6 C 14,5 km/h (3 Bft)
28.01.2023 01:52 -0,4 C -0,6 C 92 % 1028,2 hPa 0,0 l/m 12,9 km/h (3 Bft) N 360 0 min 0,0 UV-I 0 W/m -1,5 C -6,1 C 16,1 km/h (3 Bft)
28.01.2023 01:53 -0,4 C -0,6 C 92 % 1028,2 hPa 0,0 l/m 9,7 km/h (2 Bft) N 360 0 min 0,0 UV-I 0 W/m -1,5 C -3,6 C 12,9 km/h (3 Bft)
28.01.2023 01:54 -0,4 C -0,6 C 92 % 1028,2 hPa 0,0 l/m 8,0 km/h (2 Bft) N-NO 22 0 min 0,0 UV-I 0 W/m -1,5 C -2,1 C 11,3 km/h (2 Bft)
28.01.2023 01:55 -0,4 C -0,6 C 92 % 1028,3 hPa 0,0 l/m 8,0 km/h (2 Bft) N-NO 22 0 min 0,0 UV-I 0 W/m -1,5 C -2,1 C 12,9 km/h (3 Bft)
28.01.2023 01:56 -0,5 C -0,6 C 92 % 1028,2 hPa 0,0 l/m 14,5 km/h (3 Bft) N-NO 22 0 min 0,0 UV-I 0 W/m -1,6 C -7,3 C 22,5 km/h (4 Bft)
28.01.2023 01:57 -0,4 C -0,6 C 92 % 1028,3 hPa 0,0 l/m 8,0 km/h (2 Bft) N 360 0 min 0,0 UV-I 0 W/m -1,5 C -2,1 C 12,9 km/h (3 Bft)
28.01.2023 01:58 -0,4 C -0,6 C 92 % 1028,2 hPa 0,0 l/m 8,0 km/h (2 Bft) N-NO 22 0 min 0,0 UV-I 0 W/m -1,5 C -2,1 C 14,5 km/h (3 Bft)
28.01.2023 01:59 -0,4 C -0,6 C 92 % 1028,2 hPa 0,0 l/m 11,3 km/h (2 Bft) N 360 0 min 0,0 UV-I 0 W/m -1,5 C -4,9 C 16,1 km/h (3 Bft)
28.01.2023 02:00 -0,4 C -0,6 C 92 % 1028,2 hPa 0,0 l/m 8,0 km/h (2 Bft) N-NO 22 0 min 0,0 UV-I 0 W/m -1,5 C -2,1 C 14,5 km/h (3 Bft)
28.01.2023 02:01 -0,4 C -0,6 C 92 % 1028,1 hPa 0,0 l/m 12,9 km/h (3 Bft) N 360 0 min 0,0 UV-I 0 W/m -1,5 C -6,1 C 19,3 km/h (3 Bft)
28.01.2023 02:02 -0,4 C -0,6 C 92 % 1028,2 hPa 0,0 l/m 9,7 km/h (2 Bft) N-NO 22 0 min 0,0 UV-I 0 W/m -1,5 C -3,6 C 14,5 km/h (3 Bft)
28.01.2023 02:03 -0,4 C -0,6 C 92 % 1028,2 hPa 0,0 l/m 11,3 km/h (2 Bft) N 360 0 min 0,0 UV-I 0 W/m -1,5 C -4,9 C 17,7 km/h (3 Bft)
28.01.2023 02:04 -0,5 C -0,6 C 92 % 1028,2 hPa 0,0 l/m 9,7 km/h (2 Bft) N 360 0 min 0,0 UV-I 0 W/m -1,6 C -3,7 C 16,1 km/h (3 Bft)
28.01.2023 02:05 -0,4 C -0,6 C 92 % 1028,3 hPa 0,0 l/m 11,3 km/h (2 Bft) N-NO 22 0 min 0,0 UV-I 0 W/m -1,5 C -4,9 C 14,5 km/h (3 Bft)
28.01.2023 02:06 -0,5 C -0,6 C 92 % 1028,3 hPa 0,0 l/m 8,0 km/h (2 Bft) N-NO 22 0 min 0,0 UV-I 0 W/m -1,6 C -2,2 C 14,5 km/h (3 Bft)
28.01.2023 02:07 -0,4 C -0,6 C 92 % 1028,3 hPa 0,0 l/m 8,0 km/h (2 Bft) N 360 0 min 0,0 UV-I 0 W/m -1,5 C -2,1 C 12,9 km/h (3 Bft)
28.01.2023 02:08 -0,4 C -0,6 C 92 % 1028,3 hPa 0,0 l/m 8,0 km/h (2 Bft) N 360 0 min 0,0 UV-I 0 W/m -1,5 C -2,1 C 14,5 km/h (3 Bft)
28.01.2023 02:09 -0,5 C -0,6 C 92 % 1028,3 hPa 0,0 l/m 12,9 km/h (3 Bft) N 360 0 min 0,0 UV-I 0 W/m -1,6 C -6,2 C 17,7 km/h (3 Bft)
28.01.2023 02:10 -0,5 C -0,6 C 92 % 1028,3 hPa 0,0 l/m 14,5 km/h (3 Bft) N-NO 22 0 min 0,0 UV-I 0 W/m -1,6 C -7,3 C 19,3 km/h (3 Bft)
28.01.2023 02:11 -0,4 C -0,6 C 92 % 1028,3 hPa 0,0 l/m 11,3 km/h (2 Bft) N 360 0 min 0,0 UV-I 0 W/m -1,5 C -4,9 C 14,5 km/h (3 Bft)
28.01.2023 02:12 -0,5 C -0,6 C 92 % 1028,2 hPa 0,0 l/m 8,0 km/h (2 Bft) N-NO 22 0 min 0,0 UV-I 0 W/m -1,6 C -2,2 C 12,9 km/h (3 Bft)
28.01.2023 02:13 -0,5 C -0,6 C 92 % 1028,3 hPa 0,0 l/m 9,7 km/h (2 Bft) N-NO 22 0 min 0,0 UV-I 0 W/m -1,6 C -3,7 C 16,1 km/h (3 Bft)
28.01.2023 02:14 -0,5 C -0,6 C 92 % 1028,2 hPa 0,0 l/m 8,0 km/h (2 Bft) N-NO 22 0 min 0,0 UV-I 0 W/m -1,6 C -2,2 C 12,9 km/h (3 Bft)
28.01.2023 02:15 -0,5 C -0,6 C 92 % 1028,3 hPa 0,0 l/m 9,7 km/h (2 Bft) N-NO 22 0 min 0,0 UV-I 0 W/m -1,6 C -3,7 C 14,5 km/h (3 Bft)
28.01.2023 02:16 -0,5 C -0,6 C 92 % 1028,3 hPa 0,0 l/m 8,0 km/h (2 Bft) N 360 0 min 0,0 UV-I 0 W/m -1,6 C -2,2 C 12,9 km/h (3 Bft)
28.01.2023 02:17 -0,5 C -0,6 C 92 % 1028,4 hPa 0,0 l/m 9,7 km/h (2 Bft) N-NO 22 0 min 0,0 UV-I 0 W/m -1,6 C -3,7 C 17,7 km/h (3 Bft)
28.01.2023 02:18 -0,4 C -0,6 C 92 % 1028,4 hPa 0,0 l/m 8,0 km/h (2 Bft) N-NO 22 0 min 0,0 UV-I 0 W/m -1,5 C -2,1 C 12,9 km/h (3 Bft)
28.01.2023 02:19 -0,5 C -0,6 C 92 % 1028,3 hPa 0,0 l/m 12,9 km/h (3 Bft) N 360 0 min 0,0 UV-I 0 W/m -1,6 C -6,2 C 17,7 km/h (3 Bft)
28.01.2023 02:20 -0,4 C -0,6 C 92 % 1028,4 hPa 0,0 l/m 12,9 km/h (3 Bft) N 360 0 min 0,0 UV-I 0 W/m -1,5 C -6,1 C 20,9 km/h (4 Bft)
28.01.2023 02:21 -0,5 C -0,6 C 92 % 1028,4 hPa 0,0 l/m 11,3 km/h (2 Bft) N 360 0 min 0,0 UV-I 0 W/m -1,6 C -5,1 C 16,1 km/h (3 Bft)
28.01.2023 02:22 -0,5 C -0,6 C 92 % 1028,4 hPa 0,0 l/m 9,7 km/h (2 Bft) N 360 0 min 0,0 UV-I 0 W/m -1,6 C -3,7 C 14,5 km/h (3 Bft)
28.01.2023 02:23 -0,4 C -0,6 C 92 % 1028,4 hPa 0,0 l/m 12,9 km/h (3 Bft) N 360 0 min 0,0 UV-I 0 W/m -1,5 C -6,1 C 17,7 km/h (3 Bft)
28.01.2023 02:24 -0,5 C -0,6 C 92 % 1028,4 hPa 0,0 l/m 12,9 km/h (3 Bft) N 360 0 min 0,0 UV-I 0 W/m -1,6 C -6,2 C 17,7 km/h (3 Bft)
28.01.2023 02:25 -0,5 C -0,6 C 92 % 1028,4 hPa 0,0 l/m 11,3 km/h (2 Bft) N 360 0 min 0,0 UV-I 0 W/m -1,6 C -5,1 C 16,1 km/h (3 Bft)
28.01.2023 02:26 -0,4 C -0,6 C 92 % 1028,4 hPa 0,0 l/m 12,9 km/h (3 Bft) N-NO 22 0 min 0,0 UV-I 0 W/m -1,5 C -6,1 C 16,1 km/h (3 Bft)
28.01.2023 02:27 -0,5 C -0,6 C 92 % 1028,4 hPa 0,0 l/m 9,7 km/h (2 Bft) N-NO 22 0 min 0,0 UV-I 0 W/m -1,6 C -3,7 C 12,9 km/h (3 Bft)
28.01.2023 02:28 -0,5 C -0,6 C 92 % 1028,4 hPa 0,0 l/m 8,0 km/h (2 Bft) N 360 0 min 0,0 UV-I 0 W/m -1,6 C -2,2 C 12,9 km/h (3 Bft)
28.01.2023 02:29 -0,5 C -0,6 C 92 % 1028,4 hPa 0,0 l/m 9,7 km/h (2 Bft) N 360 0 min 0,0 UV-I 0 W/m -1,6 C -3,7 C 12,9 km/h (3 Bft)
28.01.2023 02:30 -0,5 C -0,6 C 92 % 1028,3 hPa 0,0 l/m 6,4 km/h (2 Bft) N 360 0 min 0,0 UV-I 0 W/m -1,6 C -0,5 C 9,7 km/h (2 Bft)
28.01.2023 02:31 -0,5 C -0,6 C 92 % 1028,3 hPa 0,0 l/m 9,7 km/h (2 Bft) N 360 0 min 0,0 UV-I 0 W/m -1,6 C -3,7 C 12,9 km/h (3 Bft)
28.01.2023 02:32 -0,4 C -0,6 C 92 % 1028,5 hPa 0,0 l/m 6,4 km/h (2 Bft) N 360 0 min 0,0 UV-I 0 W/m -1,5 C -0,4 C 14,5 km/h (3 Bft)
28.01.2023 02:33 -0,5 C -0,6 C 92 % 1028,5 hPa 0,0 l/m 12,9 km/h (3 Bft) N 360 0 min 0,0 UV-I 0 W/m -1,6 C -6,2 C 16,1 km/h (3 Bft)
28.01.2023 02:34 -0,5 C -0,6 C 92 % 1028,4 hPa 0,0 l/m 11,3 km/h (2 Bft) N 360 0 min 0,0 UV-I 0 W/m -1,6 C -5,1 C 16,1 km/h (3 Bft)
28.01.2023 02:35 -0,5 C -0,6 C 92 % 1028,4 hPa 0,0 l/m 12,9 km/h (3 Bft) N 360 0 min 0,0 UV-I 0 W/m -1,6 C -6,2 C 16,1 km/h (3 Bft)
28.01.2023 02:36 -0,5 C -0,6 C 92 % 1028,5 hPa 0,0 l/m 11,3 km/h (2 Bft) N 360 0 min 0,0 UV-I 0 W/m -1,6 C -5,1 C 14,5 km/h (3 Bft)
28.01.2023 02:37 -0,5 C -0,6 C 92 % 1028,4 hPa 0,0 l/m 11,3 km/h (2 Bft) N 360 0 min 0,0 UV-I 0 W/m -1,6 C -5,1 C 16,1 km/h (3 Bft)
28.01.2023 02:38 -0,5 C -0,6 C 92 % 1028,4 hPa 0,0 l/m 9,7 km/h (2 Bft) N 360 0 min 0,0 UV-I 0 W/m -1,6 C -3,7 C 12,9 km/h (3 Bft)
28.01.2023 02:39 -0,5 C -0,6 C 92 % 1028,3 hPa 0,0 l/m 11,3 km/h (2 Bft) N 360 0 min 0,0 UV-I 0 W/m -1,6 C -5,1 C 14,5 km/h (3 Bft)
28.01.2023 02:40 -0,5 C -0,6 C 92 % 1028,3 hPa 0,0 l/m 9,7 km/h (2 Bft) N 360 0 min 0,0 UV-I 0 W/m -1,6 C -3,7 C 16,1 km/h (3 Bft)
28.01.2023 02:41 -0,5 C -0,6 C 92 % 1028,3 hPa 0,0 l/m 8,0 km/h (2 Bft) N 360 0 min 0,0 UV-I 0 W/m -1,6 C -2,2 C 12,9 km/h (3 Bft)
28.01.2023 02:42 -0,5 C -0,6 C 92 % 1028,3 hPa 0,0 l/m 11,3 km/h (2 Bft) N 360 0 min 0,0 UV-I 0 W/m -1,6 C -5,1 C 16,1 km/h (3 Bft)
28.01.2023 02:43 -0,5 C -0,6 C 92 % 1028,3 hPa 0,0 l/m 11,3 km/h (2 Bft) N 360 0 min 0,0 UV-I 0 W/m -1,6 C -5,1 C 19,3 km/h (3 Bft)
28.01.2023 02:44 -0,5 C -0,6 C 92 % 1028,4 hPa 0,0 l/m 14,5 km/h (3 Bft) N 360 0 min 0,0 UV-I 0 W/m -1,6 C -7,3 C 17,7 km/h (3 Bft)
28.01.2023 02:45 -0,5 C -0,6 C 92 % 1028,3 hPa 0,0 l/m 11,3 km/h (2 Bft) N 360 0 min 0,0 UV-I 0 W/m -1,6 C -5,1 C 16,1 km/h (3 Bft)
28.01.2023 02:46 -0,5 C -0,6 C 92 % 1028,3 hPa 0,0 l/m 14,5 km/h (3 Bft) N 360 0 min 0,0 UV-I 0 W/m -1,6 C -7,3 C 17,7 km/h (3 Bft)
28.01.2023 02:47 -0,5 C -0,6 C 92 % 1028,3 hPa 0,0 l/m 14,5 km/h (3 Bft) N 360 0 min 0,0 UV-I 0 W/m -1,6 C -7,3 C 17,7 km/h (3 Bft)
28.01.2023 02:48 -0,5 C -0,6 C 92 % 1028,3 hPa 0,0 l/m 14,5 km/h (3 Bft) N 360 0 min 0,0 UV-I 0 W/m -1,6 C -7,3 C 16,1 km/h (3 Bft)
28.01.2023 02:49 -0,5 C -0,6 C 92 % 1028,3 hPa 0,0 l/m 11,3 km/h (2 Bft) N 360 0 min 0,0 UV-I 0 W/m -1,6 C -5,1 C 16,1 km/h (3 Bft)
28.01.2023 02:50 -0,5 C -0,6 C 92 % 1028,3 hPa 0,0 l/m 11,3 km/h (2 Bft) N 360 0 min 0,0 UV-I 0 W/m -1,6 C -5,1 C 16,1 km/h (3 Bft)
28.01.2023 02:51 -0,5 C -0,6 C 92 % 1028,4 hPa 0,0 l/m 11,3 km/h (2 Bft) N 360 0 min 0,0 UV-I 0 W/m -1,6 C -5,1 C 16,1 km/h (3 Bft)
28.01.2023 02:52 -0,5 C -0,6 C 92 % 1028,3 hPa 0,0 l/m 12,9 km/h (3 Bft) N 360 0 min 0,0 UV-I 0 W/m -1,6 C -6,2 C 19,3 km/h (3 Bft)
28.01.2023 02:53 -0,5 C -0,6 C 92 % 1028,3 hPa 0,0 l/m 12,9 km/h (3 Bft) N 360 0 min 0,0 UV-I 0 W/m -1,6 C -6,2 C 17,7 km/h (3 Bft)
28.01.2023 02:54 -0,5 C -0,6 C 92 % 1028,3 hPa 0,0 l/m 12,9 km/h (3 Bft) N 360 0 min 0,0 UV-I 0 W/m -1,6 C -6,2 C 19,3 km/h (3 Bft)
28.01.2023 02:55 -0,5 C -0,6 C 92 % 1028,3 hPa 0,0 l/m 12,9 km/h (3 Bft) N 360 0 min 0,0 UV-I 0 W/m -1,6 C -6,2 C 17,7 km/h (3 Bft)
28.01.2023 02:56 -0,5 C -0,6 C 92 % 1028,3 hPa 0,0 l/m 12,9 km/h (3 Bft) N 360 0 min 0,0 UV-I 0 W/m -1,6 C -6,2 C 16,1 km/h (3 Bft)
28.01.2023 02:57 -0,6 C -0,6 C 92 % 1028,3 hPa 0,0 l/m 12,9 km/h (3 Bft) N 360 0 min 0,0 UV-I 0 W/m -1,7 C -6,3 C 16,1 km/h (3 Bft)
28.01.2023 02:58 -0,5 C -0,6 C 92 % 1028,3 hPa 0,0 l/m 17,7 km/h (3 Bft) N 360 0 min 0,0 UV-I 0 W/m -1,6 C -9,1 C 20,9 km/h (4 Bft)
28.01.2023 02:59 -0,6 C -0,6 C 92 % 1028,3 hPa 0,0 l/m 14,5 km/h (3 Bft) N 360 0 min 0,0 UV-I 0 W/m -1,7 C -7,4 C 19,3 km/h (3 Bft)
28.01.2023 03:00 -0,6 C -0,6 C 92 % 1028,3 hPa 0,0 l/m 12,9 km/h (3 Bft) N 360 0 min 0,0 UV-I 0 W/m -1,7 C -6,3 C 19,3 km/h (3 Bft)
28.01.2023 03:01 -0,6 C -0,6 C 92 % 1028,3 hPa 0,0 l/m 17,7 km/h (3 Bft) N 360 0 min 0,0 UV-I 0 W/m -1,7 C -9,3 C 20,9 km/h (4 Bft)
28.01.2023 03:02 -0,6 C -0,6 C 92 % 1028,4 hPa 0,0 l/m 11,3 km/h (2 Bft) N 360 0 min 0,0 UV-I 0 W/m -1,7 C -5,2 C 16,1 km/h (3 Bft)
28.01.2023 03:03 -0,6 C -0,6 C 92 % 1028,4 hPa 0,0 l/m 9,7 km/h (2 Bft) N 360 0 min 0,0 UV-I 0 W/m -1,7 C -3,9 C 14,5 km/h (3 Bft)
28.01.2023 03:04 -0,6 C -0,6 C 92 % 1028,3 hPa 0,0 l/m 8,0 km/h (2 Bft) N 360 0 min 0,0 UV-I 0 W/m -1,7 C -2,3 C 14,5 km/h (3 Bft)
28.01.2023 03:05 -0,6 C -0,6 C 92 % 1028,4 hPa 0,0 l/m 11,3 km/h (2 Bft) N 360 0 min 0,0 UV-I 0 W/m -1,7 C -5,2 C 14,5 km/h (3 Bft)
28.01.2023 03:06 -0,6 C -0,6 C 92 % 1028,5 hPa 0,0 l/m 11,3 km/h (2 Bft) N 360 0 min 0,0 UV-I 0 W/m -1,7 C -5,2 C 16,1 km/h (3 Bft)
28.01.2023 03:07 -0,6 C -0,6 C 92 % 1028,4 hPa 0,0 l/m 9,7 km/h (2 Bft) N 360 0 min 0,0 UV-I 0 W/m -1,7 C -3,9 C 14,5 km/h (3 Bft)
28.01.2023 03:08 -0,6 C -0,6 C 92 % 1028,4 hPa 0,0 l/m 12,9 km/h (3 Bft) N 360 0 min 0,0 UV-I 0 W/m -1,7 C -6,3 C 16,1 km/h (3 Bft)
28.01.2023 03:09 -0,6 C -0,6 C 92 % 1028,3 hPa 0,0 l/m 12,9 km/h (3 Bft) N 360 0 min 0,0 UV-I 0 W/m -1,7 C -6,3 C 17,7 km/h (3 Bft)
28.01.2023 03:10 -0,6 C -0,6 C 92 % 1028,5 hPa 0,0 l/m 16,1 km/h (3 Bft) N 360 0 min 0,0 UV-I 0 W/m -1,7 C -8,4 C 19,3 km/h (3 Bft)
28.01.2023 03:11 -0,6 C -0,6 C 92 % 1028,5 hPa 0,0 l/m 17,7 km/h (3 Bft) N 360 0 min 0,0 UV-I 0 W/m -1,7 C -9,3 C 20,9 km/h (4 Bft)
28.01.2023 03:12 -0,6 C -0,6 C 92 % 1028,3 hPa 0,0 l/m 11,3 km/h (2 Bft) N 360 0 min 0,0 UV-I 0 W/m -1,7 C -5,2 C 16,1 km/h (3 Bft)
28.01.2023 03:13 -0,6 C -0,6 C 92 % 1028,4 hPa 0,0 l/m 12,9 km/h (3 Bft) N 360 0 min 0,0 UV-I 0 W/m -1,7 C -6,3 C 17,7 km/h (3 Bft)
28.01.2023 03:14 -0,6 C -0,6 C 92 % 1028,3 hPa 0,0 l/m 12,9 km/h (3 Bft) N 360 0 min 0,0 UV-I 0 W/m -1,7 C -6,3 C 17,7 km/h (3 Bft)
28.01.2023 03:15 -0,6 C -0,6 C 92 % 1028,4 hPa 0,0 l/m 11,3 km/h (2 Bft) N 360 0 min 0,0 UV-I 0 W/m -1,7 C -5,2 C 14,5 km/h (3 Bft)
28.01.2023 03:16 -0,6 C -0,6 C 92 % 1028,3 hPa 0,0 l/m 9,7 km/h (2 Bft) N-NO 22 0 min 0,0 UV-I 0 W/m -1,7 C -3,9 C 14,5 km/h (3 Bft)
28.01.2023 03:17 -0,6 C -0,6 C 92 % 1028,4 hPa 0,0 l/m 8,0 km/h (2 Bft) N 360 0 min 0,0 UV-I 0 W/m -1,7 C -2,3 C 12,9 km/h (3 Bft)
28.01.2023 03:18 -0,6 C -0,6 C 92 % 1028,4 hPa 0,0 l/m 11,3 km/h (2 Bft) N 360 0 min 0,0 UV-I 0 W/m -1,7 C -5,2 C 14,5 km/h (3 Bft)
28.01.2023 03:19 -0,6 C -0,6 C 92 % 1028,4 hPa 0,0 l/m 12,9 km/h (3 Bft) N-NO 22 0 min 0,0 UV-I 0 W/m -1,7 C -6,3 C 17,7 km/h (3 Bft)
28.01.2023 03:20 -0,6 C -0,6 C 92 % 1028,3 hPa 0,0 l/m 14,5 km/h (3 Bft) N 360 0 min 0,0 UV-I 0 W/m -1,7 C -7,4 C 20,9 km/h (4 Bft)
28.01.2023 03:21 -0,6 C -0,6 C 92 % 1028,3 hPa 0,0 l/m 11,3 km/h (2 Bft) N 360 0 min 0,0 UV-I 0 W/m -1,7 C -5,2 C 14,5 km/h (3 Bft)
28.01.2023 03:22 -0,6 C -0,6 C 92 % 1028,4 hPa 0,0 l/m 12,9 km/h (3 Bft) N 360 0 min 0,0 UV-I 0 W/m -1,7 C -6,3 C 17,7 km/h (3 Bft)
28.01.2023 03:23 -0,6 C -0,6 C 92 % 1028,4 hPa 0,0 l/m 12,9 km/h (3 Bft) N 360 0 min 0,0 UV-I 0 W/m -1,7 C -6,3 C 16,1 km/h (3 Bft)
28.01.2023 03:24 -0,6 C -0,6 C 92 % 1028,4 hPa 0,0 l/m 11,3 km/h (2 Bft) N 360 0 min 0,0 UV-I 0 W/m -1,7 C -5,2 C 17,7 km/h (3 Bft)
28.01.2023 03:25 -0,6 C -0,6 C 92 % 1028,4 hPa 0,0 l/m 8,0 km/h (2 Bft) N 360 0 min 0,0 UV-I 0 W/m -1,7 C -2,3 C 14,5 km/h (3 Bft)
28.01.2023 03:26 -0,6 C -0,6 C 92 % 1028,4 hPa 0,0 l/m 8,0 km/h (2 Bft) N 360 0 min 0,0 UV-I 0 W/m -1,7 C -2,3 C 12,9 km/h (3 Bft)
28.01.2023 03:27 -0,6 C -0,6 C 92 % 1028,4 hPa 0,0 l/m 8,0 km/h (2 Bft) N 360 0 min 0,0 UV-I 0 W/m -1,7 C -2,3 C 12,9 km/h (3 Bft)
28.01.2023 03:28 -0,6 C -0,6 C 92 % 1028,4 hPa 0,0 l/m 11,3 km/h (2 Bft) N 360 0 min 0,0 UV-I 0 W/m -1,7 C -5,2 C 14,5 km/h (3 Bft)
28.01.2023 03:29 -0,7 C -0,6 C 92 % 1028,4 hPa 0,0 l/m 11,3 km/h (2 Bft) N 360 0 min 0,0 UV-I 0 W/m -1,8 C -5,3 C 14,5 km/h (3 Bft)
28.01.2023 03:30 -0,7 C -0,6 C 92 % 1028,5 hPa 0,0 l/m 6,4 km/h (2 Bft) N 360 0 min 0,0 UV-I 0 W/m -1,8 C -0,7 C 12,9 km/h (3 Bft)
28.01.2023 03:31 -0,7 C -0,6 C 92 % 1028,5 hPa 0,0 l/m 11,3 km/h (2 Bft) N 360 0 min 0,0 UV-I 0 W/m -1,8 C -5,3 C 19,3 km/h (3 Bft)
28.01.2023 03:32 -0,6 C -0,6 C 92 % 1028,5 hPa 0,0 l/m 14,5 km/h (3 Bft) N 360 0 min 0,0 UV-I 0 W/m -1,7 C -7,4 C 19,3 km/h (3 Bft)
28.01.2023 03:33 -0,6 C -0,6 C 92 % 1028,5 hPa 0,0 l/m 12,9 km/h (3 Bft) N 360 0 min 0,0 UV-I 0 W/m -1,7 C -6,3 C 17,7 km/h (3 Bft)
28.01.2023 03:34 -0,7 C -0,6 C 92 % 1028,4 hPa 0,0 l/m 12,9 km/h (3 Bft) N 360 0 min 0,0 UV-I 0 W/m -1,8 C -6,5 C 16,1 km/h (3 Bft)
28.01.2023 03:35 -0,7 C -0,6 C 92 % 1028,5 hPa 0,0 l/m 11,3 km/h (2 Bft) N 360 0 min 0,0 UV-I 0 W/m -1,8 C -5,3 C 17,7 km/h (3 Bft)
28.01.2023 03:36 -0,7 C -0,6 C 92 % 1028,5 hPa 0,0 l/m 12,9 km/h (3 Bft) N 360 0 min 0,0 UV-I 0 W/m -1,8 C -6,5 C 17,7 km/h (3 Bft)
28.01.2023 03:37 -0,7 C -0,6 C 92 % 1028,5 hPa 0,0 l/m 9,7 km/h (2 Bft) N 360 0 min 0,0 UV-I 0 W/m -1,8 C -4,0 C 12,9 km/h (3 Bft)
28.01.2023 03:38 -0,7 C -0,6 C 92 % 1028,5 hPa 0,0 l/m 8,0 km/h (2 Bft) N 360 0 min 0,0 UV-I 0 W/m -1,8 C -2,4 C 12,9 km/h (3 Bft)
28.01.2023 03:39 -0,7 C -0,6 C 92 % 1028,5 hPa 0,0 l/m 9,7 km/h (2 Bft) N 360 0 min 0,0 UV-I 0 W/m -1,8 C -4,0 C 12,9 km/h (3 Bft)
28.01.2023 03:40 -0,7 C -0,6 C 92 % 1028,5 hPa 0,0 l/m 9,7 km/h (2 Bft) N 360 0 min 0,0 UV-I 0 W/m -1,8 C -4,0 C 16,1 km/h (3 Bft)
28.01.2023 03:41 -0,7 C -0,6 C 92 % 1028,5 hPa 0,0 l/m 9,7 km/h (2 Bft) N-NO 22 0 min 0,0 UV-I 0 W/m -1,8 C -4,0 C 14,5 km/h (3 Bft)
28.01.2023 03:42 -0,7 C -0,6 C 92 % 1028,5 hPa 0,0 l/m 12,9 km/h (3 Bft) N 360 0 min 0,0 UV-I 0 W/m -1,8 C -6,5 C 17,7 km/h (3 Bft)
28.01.2023 03:43 -0,7 C -0,6 C 92 % 1028,5 hPa 0,0 l/m 14,5 km/h (3 Bft) N 360 0 min 0,0 UV-I 0 W/m -1,8 C -7,5 C 17,7 km/h (3 Bft)
28.01.2023 03:44 -0,7 C -0,6 C 92 % 1028,5 hPa 0,0 l/m 11,3 km/h (2 Bft) N 360 0 min 0,0 UV-I 0 W/m -1,8 C -5,3 C 17,7 km/h (3 Bft)
28.01.2023 03:45 -0,7 C -0,6 C 92 % 1028,5 hPa 0,0 l/m 6,4 km/h (2 Bft) N 360 0 min 0,0 UV-I 0 W/m -1,8 C -0,7 C 11,3 km/h (2 Bft)
28.01.2023 03:46 -0,7 C -0,6 C 92 % 1028,5 hPa 0,0 l/m 8,0 km/h (2 Bft) N 360 0 min 0,0 UV-I 0 W/m -1,8 C -2,4 C 12,9 km/h (3 Bft)
28.01.2023 03:47 -0,7 C -0,6 C 92 % 1028,5 hPa 0,0 l/m 9,7 km/h (2 Bft) N 360 0 min 0,0 UV-I 0 W/m -1,8 C -4,0 C 16,1 km/h (3 Bft)
28.01.2023 03:48 -0,7 C -0,6 C 92 % 1028,5 hPa 0,0 l/m 12,9 km/h (3 Bft) N 360 0 min 0,0 UV-I 0 W/m -1,8 C -6,5 C 19,3 km/h (3 Bft)
28.01.2023 03:49 -0,7 C -0,6 C 92 % 1028,4 hPa 0,0 l/m 16,1 km/h (3 Bft) N 360 0 min 0,0 UV-I 0 W/m -1,8 C -8,5 C 19,3 km/h (3 Bft)
28.01.2023 03:50 -0,7 C -1,1 C 92 % 1028,4 hPa 0,0 l/m 17,7 km/h (3 Bft) N-NW 337 0 min 0,0 UV-I 0 W/m -1,8 C -9,4 C 20,9 km/h (4 Bft)
28.01.2023 03:51 -0,7 C -1,1 C 92 % 1028,4 hPa 0,0 l/m 14,5 km/h (3 Bft) N-NW 337 0 min 0,0 UV-I 0 W/m -1,8 C -7,5 C 17,7 km/h (3 Bft)
28.01.2023 03:52 -0,7 C -1,1 C 92 % 1028,4 hPa 0,0 l/m 14,5 km/h (3 Bft) N-NW 337 0 min 0,0 UV-I 0 W/m -1,8 C -7,5 C 17,7 km/h (3 Bft)
28.01.2023 03:53 -0,8 C -1,1 C 92 % 1028,4 hPa 0,0 l/m 12,9 km/h (3 Bft) N 360 0 min 0,0 UV-I 0 W/m -1,9 C -6,6 C 16,1 km/h (3 Bft)
28.01.2023 03:54 -0,7 C -1,1 C 92 % 1028,4 hPa 0,0 l/m 8,0 km/h (2 Bft) N 360 0 min 0,0 UV-I 0 W/m -1,8 C -2,4 C 12,9 km/h (3 Bft)
28.01.2023 03:55 -0,8 C -1,1 C 92 % 1028,3 hPa 0,0 l/m 11,3 km/h (2 Bft) N 360 0 min 0,0 UV-I 0 W/m -1,9 C -5,4 C 16,1 km/h (3 Bft)
28.01.2023 03:56 -0,8 C -1,1 C 92 % 1028,4 hPa 0,0 l/m 9,7 km/h (2 Bft) N 360 0 min 0,0 UV-I 0 W/m -1,9 C -4,1 C 16,1 km/h (3 Bft)
28.01.2023 03:57 -0,8 C -1,1 C 92 % 1028,4 hPa 0,0 l/m 14,5 km/h (3 Bft) N 360 0 min 0,0 UV-I 0 W/m -1,9 C -7,6 C 19,3 km/h (3 Bft)
28.01.2023 03:58 -0,8 C -1,1 C 92 % 1028,4 hPa 0,0 l/m 16,1 km/h (3 Bft) N 360 0 min 0,0 UV-I 0 W/m -1,9 C -8,6 C 19,3 km/h (3 Bft)
28.01.2023 03:59 -0,8 C -1,1 C 92 % 1028,4 hPa 0,0 l/m 12,9 km/h (3 Bft) N 360 0 min 0,0 UV-I 0 W/m -1,9 C -6,6 C 19,3 km/h (3 Bft)
28.01.2023 04:00 -0,8 C -1,1 C 92 % 1028,5 hPa 0,0 l/m 17,7 km/h (3 Bft) N 360 0 min 0,0 UV-I 0 W/m -1,9 C -9,5 C 24,1 km/h (4 Bft)
28.01.2023 04:01 -0,8 C -1,1 C 92 % 1028,4 hPa 0,0 l/m 17,7 km/h (3 Bft) N 360 0 min 0,0 UV-I 0 W/m -1,9 C -9,5 C 20,9 km/h (4 Bft)
28.01.2023 04:02 -0,8 C -1,1 C 92 % 1028,4 hPa 0,0 l/m 12,9 km/h (3 Bft) N 360 0 min 0,0 UV-I 0 W/m -1,9 C -6,6 C 17,7 km/h (3 Bft)
28.01.2023 04:03 -0,9 C -1,1 C 92 % 1028,5 hPa 0,0 l/m 16,1 km/h (3 Bft) N 360 0 min 0,0 UV-I 0 W/m -2,0 C -8,7 C 22,5 km/h (4 Bft)
28.01.2023 04:04 -0,9 C -1,1 C 92 % 1028,5 hPa 0,0 l/m 16,1 km/h (3 Bft) N 360 0 min 0,0 UV-I 0 W/m -2,0 C -8,7 C 20,9 km/h (4 Bft)
28.01.2023 04:05 -0,9 C -1,1 C 92 % 1028,4 hPa 0,0 l/m 16,1 km/h (3 Bft) N 360 0 min 0,0 UV-I 0 W/m -2,0 C -8,7 C 19,3 km/h (3 Bft)
28.01.2023 04:06 -0,9 C -1,1 C 92 % 1028,5 hPa 0,0 l/m 17,7 km/h (3 Bft) N 360 0 min 0,0 UV-I 0 W/m -2,0 C -9,6 C 22,5 km/h (4 Bft)
28.01.2023 04:07 -0,9 C -1,1 C 92 % 1028,5 hPa 0,0 l/m 17,7 km/h (3 Bft) N 360 0 min 0,0 UV-I 0 W/m -2,0 C -9,6 C 24,1 km/h (4 Bft)
28.01.2023 04:08 -0,9 C -1,1 C 92 % 1028,6 hPa 0,0 l/m 11,3 km/h (2 Bft) N 360 0 min 0,0 UV-I 0 W/m -2,0 C -5,5 C 17,7 km/h (3 Bft)
28.01.2023 04:09 -0,9 C -1,1 C 92 % 1028,6 hPa 0,0 l/m 14,5 km/h (3 Bft) N 360 0 min 0,0 UV-I 0 W/m -2,0 C -7,8 C 20,9 km/h (4 Bft)
28.01.2023 04:10 -0,9 C -1,1 C 92 % 1028,6 hPa 0,0 l/m 8,0 km/h (2 Bft) N 360 0 min 0,0 UV-I 0 W/m -2,0 C -2,6 C 14,5 km/h (3 Bft)
28.01.2023 04:11 -0,9 C -1,1 C 92 % 1028,6 hPa 0,0 l/m 9,7 km/h (2 Bft) N-NO 22 0 min 0,0 UV-I 0 W/m -2,0 C -4,2 C 19,3 km/h (3 Bft)
28.01.2023 04:12 -0,9 C -1,1 C 92 % 1028,6 hPa 0,0 l/m 14,5 km/h (3 Bft) N-NO 22 0 min 0,0 UV-I 0 W/m -2,0 C -7,8 C 20,9 km/h (4 Bft)
28.01.2023 04:13 -0,9 C -1,1 C 92 % 1028,6 hPa 0,0 l/m 12,9 km/h (3 Bft) N 360 0 min 0,0 UV-I 0 W/m -2,0 C -6,7 C 19,3 km/h (3 Bft)
28.01.2023 04:14 -0,9 C -1,1 C 92 % 1028,6 hPa 0,0 l/m 12,9 km/h (3 Bft) N 360 0 min 0,0 UV-I 0 W/m -2,0 C -6,7 C 16,1 km/h (3 Bft)
28.01.2023 04:15 -0,9 C -1,1 C 92 % 1028,6 hPa 0,0 l/m 12,9 km/h (3 Bft) N 360 0 min 0,0 UV-I 0 W/m -2,0 C -6,7 C 17,7 km/h (3 Bft)
28.01.2023 04:16 -1,0 C -1,1 C 92 % 1028,6 hPa 0,0 l/m 11,3 km/h (2 Bft) N-NO 22 0 min 0,0 UV-I 0 W/m -2,1 C -5,6 C 14,5 km/h (3 Bft)
28.01.2023 04:17 -1,0 C -1,1 C 92 % 1028,6 hPa 0,0 l/m 11,3 km/h (2 Bft) N 360 0 min 0,0 UV-I 0 W/m -2,1 C -5,6 C 17,7 km/h (3 Bft)
28.01.2023 04:18 -0,9 C -1,1 C 92 % 1028,7 hPa 0,0 l/m 11,3 km/h (2 Bft) N-NO 22 0 min 0,0 UV-I 0 W/m -2,0 C -5,5 C 17,7 km/h (3 Bft)
28.01.2023 04:19 -0,9 C -1,1 C 92 % 1028,6 hPa 0,0 l/m 12,9 km/h (3 Bft) N 360 0 min 0,0 UV-I 0 W/m -2,0 C -6,7 C 16,1 km/h (3 Bft)
28.01.2023 04:20 -1,0 C -1,1 C 92 % 1028,6 hPa 0,0 l/m 8,0 km/h (2 Bft) N 360 0 min 0,0 UV-I 0 W/m -2,1 C -2,7 C 12,9 km/h (3 Bft)
28.01.2023 04:21 -1,0 C -1,1 C 92 % 1028,6 hPa 0,0 l/m 11,3 km/h (2 Bft) N 360 0 min 0,0 UV-I 0 W/m -2,1 C -5,6 C 14,5 km/h (3 Bft)
28.01.2023 04:22 -1,0 C -1,1 C 92 % 1028,7 hPa 0,0 l/m 11,3 km/h (2 Bft) N 360 0 min 0,0 UV-I 0 W/m -2,1 C -5,6 C 16,1 km/h (3 Bft)
28.01.2023 04:23 -1,0 C -1,1 C 92 % 1028,7 hPa 0,0 l/m 16,1 km/h (3 Bft) N 360 0 min 0,0 UV-I 0 W/m -2,1 C -8,9 C 19,3 km/h (3 Bft)
28.01.2023 04:24 -1,0 C -1,1 C 92 % 1028,7 hPa 0,0 l/m 20,9 km/h (4 Bft) N 360 0 min 0,0 UV-I 0 W/m -2,1 C -11,3 C 25,7 km/h (4 Bft)
28.01.2023 04:25 -1,0 C -1,1 C 92 % 1028,7 hPa 0,0 l/m 19,3 km/h (3 Bft) N 360 0 min 0,0 UV-I 0 W/m -2,1 C -10,6 C 24,1 km/h (4 Bft)
28.01.2023 04:26 -1,1 C -1,1 C 92 % 1028,6 hPa 0,0 l/m 16,1 km/h (3 Bft) N 360 0 min 0,0 UV-I 0 W/m -2,2 C -9,0 C 22,5 km/h (4 Bft)
28.01.2023 04:27 -1,1 C -1,1 C 92 % 1028,6 hPa 0,0 l/m 17,7 km/h (3 Bft) N 360 0 min 0,0 UV-I 0 W/m -2,2 C -9,9 C 22,5 km/h (4 Bft)
28.01.2023 04:28 -1,1 C -1,1 C 92 % 1028,7 hPa 0,0 l/m 19,3 km/h (3 Bft) N 360 0 min 0,0 UV-I 0 W/m -2,2 C -10,7 C 25,7 km/h (4 Bft)
28.01.2023 04:29 -1,1 C -1,1 C 92 % 1028,6 hPa 0,0 l/m 16,1 km/h (3 Bft) N 360 0 min 0,0 UV-I 0 W/m -2,2 C -9,0 C 19,3 km/h (3 Bft)
28.01.2023 04:30 -1,1 C -1,1 C 92 % 1028,8 hPa 0,0 l/m 17,7 km/h (3 Bft) N 360 0 min 0,0 UV-I 0 W/m -2,2 C -9,9 C 24,1 km/h (4 Bft)
28.01.2023 04:31 -1,1 C -1,1 C 92 % 1028,7 hPa 0,0 l/m 17,7 km/h (3 Bft) N 360 0 min 0,0 UV-I 0 W/m -2,2 C -9,9 C 19,3 km/h (3 Bft)
28.01.2023 04:32 -1,1 C -1,1 C 92 % 1028,8 hPa 0,0 l/m 19,3 km/h (3 Bft) N-NW 337 0 min 0,0 UV-I 0 W/m -2,2 C -10,7 C 22,5 km/h (4 Bft)
28.01.2023 04:33 -1,1 C -1,1 C 92 % 1028,7 hPa 0,0 l/m 16,1 km/h (3 Bft) N 360 0 min 0,0 UV-I 0 W/m -2,2 C -9,0 C 24,1 km/h (4 Bft)
28.01.2023 04:34 -1,1 C -1,1 C 92 % 1028,8 hPa 0,0 l/m 20,9 km/h (4 Bft) N-NW 337 0 min 0,0 UV-I 0 W/m -2,2 C -11,5 C 25,7 km/h (4 Bft)
28.01.2023 04:35 -1,2 C -1,1 C 92 % 1028,8 hPa 0,0 l/m 16,1 km/h (3 Bft) N 360 0 min 0,0 UV-I 0 W/m -2,3 C -9,1 C 20,9 km/h (4 Bft)
28.01.2023 04:36 -1,2 C -1,1 C 92 % 1028,8 hPa 0,0 l/m 17,7 km/h (3 Bft) N 360 0 min 0,0 UV-I 0 W/m -2,3 C -10,0 C 20,9 km/h (4 Bft)
28.01.2023 04:37 -1,1 C -1,1 C 92 % 1028,8 hPa 0,0 l/m 16,1 km/h (3 Bft) N-NW 337 0 min 0,0 UV-I 0 W/m -2,2 C -9,0 C 19,3 km/h (3 Bft)
28.01.2023 04:38 -1,2 C -1,1 C 92 % 1028,8 hPa 0,0 l/m 12,9 km/h (3 Bft) N 360 0 min 0,0 UV-I 0 W/m -2,3 C -7,0 C 16,1 km/h (3 Bft)
28.01.2023 04:39 -1,2 C -1,1 C 92 % 1028,8 hPa 0,0 l/m 12,9 km/h (3 Bft) N 360 0 min 0,0 UV-I 0 W/m -2,3 C -7,0 C 19,3 km/h (3 Bft)
28.01.2023 04:40 -1,2 C -1,1 C 92 % 1028,8 hPa 0,0 l/m 14,5 km/h (3 Bft) N 360 0 min 0,0 UV-I 0 W/m -2,3 C -8,1 C 17,7 km/h (3 Bft)
28.01.2023 04:41 -1,2 C -1,1 C 92 % 1028,9 hPa 0,0 l/m 12,9 km/h (3 Bft) N 360 0 min 0,0 UV-I 0 W/m -2,3 C -7,0 C 17,7 km/h (3 Bft)
28.01.2023 04:42 -1,2 C -1,1 C 92 % 1028,9 hPa 0,0 l/m 12,9 km/h (3 Bft) N 360 0 min 0,0 UV-I 0 W/m -2,3 C -7,0 C 17,7 km/h (3 Bft)
28.01.2023 04:43 -1,2 C -1,1 C 92 % 1029,0 hPa 0,0 l/m 17,7 km/h (3 Bft) N 360 0 min 0,0 UV-I 0 W/m -2,3 C -10,0 C 22,5 km/h (4 Bft)
28.01.2023 04:44 -1,2 C -1,1 C 92 % 1028,9 hPa 0,0 l/m 14,5 km/h (3 Bft) N 360 0 min 0,0 UV-I 0 W/m -2,3 C -8,1 C 19,3 km/h (3 Bft)
28.01.2023 04:45 -1,2 C -1,1 C 92 % 1028,9 hPa 0,0 l/m 14,5 km/h (3 Bft) N 360 0 min 0,0 UV-I 0 W/m -2,3 C -8,1 C 17,7 km/h (3 Bft)
28.01.2023 04:46 -1,1 C -1,1 C 92 % 1029,0 hPa 0,0 l/m 14,5 km/h (3 Bft) N 360 0 min 0,0 UV-I 0 W/m -2,2 C -8,0 C 19,3 km/h (3 Bft)
28.01.2023 04:47 -1,2 C -1,1 C 92 % 1029,0 hPa 0,0 l/m 12,9 km/h (3 Bft) N 360 0 min 0,0 UV-I 0 W/m -2,3 C -7,0 C 17,7 km/h (3 Bft)
28.01.2023 04:48 -1,2 C -1,1 C 92 % 1029,1 hPa 0,0 l/m 12,9 km/h (3 Bft) N 360 0 min 0,0 UV-I 0 W/m -2,3 C -7,0 C 17,7 km/h (3 Bft)
28.01.2023 04:49 -1,2 C -1,1 C 92 % 1029,0 hPa 0,0 l/m 17,7 km/h (3 Bft) N 360 0 min 0,0 UV-I 0 W/m -2,3 C -10,0 C 22,5 km/h (4 Bft)
28.01.2023 04:50 -1,2 C -1,1 C 92 % 1029,1 hPa 0,0 l/m 19,3 km/h (3 Bft) N 360 0 min 0,0 UV-I 0 W/m -2,3 C -10,8 C 24,1 km/h (4 Bft)
28.01.2023 04:51 -1,2 C -1,1 C 92 % 1029,1 hPa 0,0 l/m 17,7 km/h (3 Bft) N 360 0 min 0,0 UV-I 0 W/m -2,3 C -10,0 C 22,5 km/h (4 Bft)
28.01.2023 04:52 -1,2 C -1,1 C 92 % 1029,1 hPa 0,0 l/m 16,1 km/h (3 Bft) N 360 0 min 0,0 UV-I 0 W/m -2,3 C -9,1 C 24,1 km/h (4 Bft)
28.01.2023 04:53 -1,2 C -1,1 C 92 % 1029,1 hPa 0,0 l/m 16,1 km/h (3 Bft) N 360 0 min 0,0 UV-I 0 W/m -2,3 C -9,1 C 20,9 km/h (4 Bft)
28.01.2023 04:54 -1,2 C -1,1 C 92 % 1029,1 hPa 0,0 l/m 14,5 km/h (3 Bft) N 360 0 min 0,0 UV-I 0 W/m -2,3 C -8,1 C 20,9 km/h (4 Bft)
28.01.2023 04:55 -1,2 C -1,1 C 92 % 1029,1 hPa 0,0 l/m 14,5 km/h (3 Bft) N 360 0 min 0,0 UV-I 0 W/m -2,3 C -8,1 C 24,1 km/h (4 Bft)
28.01.2023 04:56 -1,2 C -1,1 C 92 % 1029,1 hPa 0,0 l/m 16,1 km/h (3 Bft) N 360 0 min 0,0 UV-I 0 W/m -2,3 C -9,1 C 22,5 km/h (4 Bft)
28.01.2023 04:57 -1,2 C -1,1 C 92 % 1029,1 hPa 0,0 l/m 9,7 km/h (2 Bft) N 360 0 min 0,0 UV-I 0 W/m -2,3 C -4,5 C 17,7 km/h (3 Bft)
28.01.2023 04:58 -1,2 C -1,1 C 92 % 1029,1 hPa 0,0 l/m 12,9 km/h (3 Bft) N 360 0 min 0,0 UV-I 0 W/m -2,3 C -7,0 C 19,3 km/h (3 Bft)
28.01.2023 04:59 -1,2 C -1,1 C 92 % 1029,1 hPa 0,0 l/m 14,5 km/h (3 Bft) N 360 0 min 0,0 UV-I 0 W/m -2,3 C -8,1 C 22,5 km/h (4 Bft)
28.01.2023 05:00 -1,2 C -1,1 C 92 % 1029,1 hPa 0,0 l/m 9,7 km/h (2 Bft) N 360 0 min 0,0 UV-I 0 W/m -2,3 C -4,5 C 14,5 km/h (3 Bft)
28.01.2023 05:01 -1,2 C -1,1 C 92 % 1029,1 hPa 0,0 l/m 14,5 km/h (3 Bft) N 360 0 min 0,0 UV-I 0 W/m -2,3 C -8,1 C 20,9 km/h (4 Bft)
28.01.2023 05:02 -1,2 C -1,1 C 92 % 1029,2 hPa 0,0 l/m 9,7 km/h (2 Bft) N 360 0 min 0,0 UV-I 0 W/m -2,3 C -4,5 C 14,5 km/h (3 Bft)
28.01.2023 05:03 -1,2 C -1,1 C 92 % 1029,2 hPa 0,0 l/m 14,5 km/h (3 Bft) N 360 0 min 0,0 UV-I 0 W/m -2,3 C -8,1 C 19,3 km/h (3 Bft)
28.01.2023 05:04 -1,2 C -1,1 C 92 % 1029,1 hPa 0,0 l/m 12,9 km/h (3 Bft) N 360 0 min 0,0 UV-I 0 W/m -2,3 C -7,0 C 17,7 km/h (3 Bft)
28.01.2023 05:05 -1,2 C -1,1 C 92 % 1029,1 hPa 0,0 l/m 14,5 km/h (3 Bft) N 360 0 min 0,0 UV-I 0 W/m -2,3 C -8,1 C 19,3 km/h (3 Bft)
28.01.2023 05:06 -1,2 C -1,1 C 92 % 1029,2 hPa 0,0 l/m 16,1 km/h (3 Bft) N 360 0 min 0,0 UV-I 0 W/m -2,3 C -9,1 C 19,3 km/h (3 Bft)
28.01.2023 05:07 -1,2 C -1,1 C 92 % 1029,2 hPa 0,0 l/m 16,1 km/h (3 Bft) N 360 0 min 0,0 UV-I 0 W/m -2,3 C -9,1 C 20,9 km/h (4 Bft)
28.01.2023 05:08 -1,2 C -1,1 C 92 % 1029,1 hPa 0,0 l/m 12,9 km/h (3 Bft) N 360 0 min 0,0 UV-I 0 W/m -2,3 C -7,0 C 24,1 km/h (4 Bft)
28.01.2023 05:09 -1,3 C -1,1 C 92 % 1029,2 hPa 0,0 l/m 17,7 km/h (3 Bft) N 360 0 min 0,0 UV-I 0 W/m -2,4 C -10,1 C 22,5 km/h (4 Bft)
28.01.2023 05:10 -1,2 C -1,1 C 92 % 1029,2 hPa 0,0 l/m 14,5 km/h (3 Bft) N 360 0 min 0,0 UV-I 0 W/m -2,3 C -8,1 C 19,3 km/h (3 Bft)
28.01.2023 05:11 -1,3 C -1,1 C 92 % 1029,2 hPa 0,0 l/m 16,1 km/h (3 Bft) N 360 0 min 0,0 UV-I 0 W/m -2,4 C -9,2 C 20,9 km/h (4 Bft)
28.01.2023 05:12 -1,3 C -1,1 C 92 % 1029,2 hPa 0,0 l/m 16,1 km/h (3 Bft) N 360 0 min 0,0 UV-I 0 W/m -2,4 C -9,2 C 20,9 km/h (4 Bft)
28.01.2023 05:13 -1,2 C -1,1 C 92 % 1029,2 hPa 0,0 l/m 14,5 km/h (3 Bft) N 360 0 min 0,0 UV-I 0 W/m -2,3 C -8,1 C 17,7 km/h (3 Bft)
28.01.2023 05:14 -1,3 C -1,1 C 92 % 1029,2 hPa 0,0 l/m 9,7 km/h (2 Bft) N 360 0 min 0,0 UV-I 0 W/m -2,4 C -4,6 C 14,5 km/h (3 Bft)
28.01.2023 05:15 -1,3 C -1,1 C 92 % 1029,2 hPa 0,0 l/m 9,7 km/h (2 Bft) N 360 0 min 0,0 UV-I 0 W/m -2,4 C -4,6 C 14,5 km/h (3 Bft)
28.01.2023 05:16 -1,2 C -1,1 C 92 % 1029,2 hPa 0,0 l/m 6,4 km/h (2 Bft) N 360 0 min 0,0 UV-I 0 W/m -2,3 C -1,2 C 9,7 km/h (2 Bft)
28.01.2023 05:17 -1,3 C -1,1 C 92 % 1029,1 hPa 0,0 l/m 8,0 km/h (2 Bft) N 360 0 min 0,0 UV-I 0 W/m -2,4 C -3,0 C 14,5 km/h (3 Bft)
28.01.2023 05:18 -1,3 C -1,1 C 92 % 1029,2 hPa 0,0 l/m 16,1 km/h (3 Bft) N 360 0 min 0,0 UV-I 0 W/m -2,4 C -9,2 C 22,5 km/h (4 Bft)
28.01.2023 05:19 -1,3 C -1,1 C 92 % 1029,1 hPa 0,0 l/m 19,3 km/h (3 Bft) N 360 0 min 0,0 UV-I 0 W/m -2,4 C -11,0 C 25,7 km/h (4 Bft)
28.01.2023 05:20 -1,3 C -1,1 C 92 % 1029,1 hPa 0,0 l/m 16,1 km/h (3 Bft) N 360 0 min 0,0 UV-I 0 W/m -2,4 C -9,2 C 20,9 km/h (4 Bft)
28.01.2023 05:21 -1,3 C -1,1 C 92 % 1029,1 hPa 0,0 l/m 17,7 km/h (3 Bft) N 360 0 min 0,0 UV-I 0 W/m -2,4 C -10,1 C 22,5 km/h (4 Bft)
28.01.2023 05:22 -1,3 C -1,1 C 92 % 1029,1 hPa 0,0 l/m 17,7 km/h (3 Bft) N 360 0 min 0,0 UV-I 0 W/m -2,4 C -10,1 C 22,5 km/h (4 Bft)
28.01.2023 05:23 -1,3 C -1,1 C 92 % 1029,2 hPa 0,0 l/m 19,3 km/h (3 Bft) N 360 0 min 0,0 UV-I 0 W/m -2,4 C -11,0 C 27,4 km/h (4 Bft)
28.01.2023 05:24 -1,3 C -1,1 C 92 % 1029,2 hPa 0,0 l/m 16,1 km/h (3 Bft) N 360 0 min 0,0 UV-I 0 W/m -2,4 C -9,2 C 24,1 km/h (4 Bft)
28.01.2023 05:25 -1,3 C -1,1 C 92 % 1029,1 hPa 0,0 l/m 19,3 km/h (3 Bft) N 360 0 min 0,0 UV-I 0 W/m -2,4 C -11,0 C 27,4 km/h (4 Bft)
28.01.2023 05:26 -1,3 C -1,1 C 92 % 1029,2 hPa 0,0 l/m 17,7 km/h (3 Bft) N 360 0 min 0,0 UV-I 0 W/m -2,4 C -10,1 C 24,1 km/h (4 Bft)
28.01.2023 05:27 -1,3 C -1,7 C 92 % 1029,2 hPa 0,0 l/m 22,5 km/h (4 Bft) N-NW 337 0 min 0,0 UV-I 0 W/m -2,4 C -12,5 C 24,1 km/h (4 Bft)
28.01.2023 05:28 -1,4 C -1,7 C 92 % 1029,2 hPa 0,0 l/m 16,1 km/h (3 Bft) N 360 0 min 0,0 UV-I 0 W/m -2,5 C -9,3 C 20,9 km/h (4 Bft)
28.01.2023 05:29 -1,4 C -1,7 C 92 % 1029,2 hPa 0,0 l/m 17,7 km/h (3 Bft) N-NW 337 0 min 0,0 UV-I 0 W/m -2,5 C -10,3 C 22,5 km/h (4 Bft)
28.01.2023 05:30 -1,4 C -1,7 C 92 % 1029,2 hPa 0,0 l/m 12,9 km/h (3 Bft) N 360 0 min 0,0 UV-I 0 W/m -2,5 C -7,3 C 17,7 km/h (3 Bft)
28.01.2023 05:31 -1,4 C -1,7 C 92 % 1029,2 hPa 0,0 l/m 12,9 km/h (3 Bft) N 360 0 min 0,0 UV-I 0 W/m -2,5 C -7,3 C 17,7 km/h (3 Bft)
28.01.2023 05:32 -1,4 C -1,7 C 92 % 1029,2 hPa 0,0 l/m 12,9 km/h (3 Bft) N 360 0 min 0,0 UV-I 0 W/m -2,5 C -7,3 C 17,7 km/h (3 Bft)
28.01.2023 05:33 -1,4 C -1,7 C 92 % 1029,2 hPa 0,0 l/m 16,1 km/h (3 Bft) N 360 0 min 0,0 UV-I 0 W/m -2,5 C -9,3 C 22,5 km/h (4 Bft)
28.01.2023 05:34 -1,4 C -1,7 C 92 % 1029,2 hPa 0,0 l/m 14,5 km/h (3 Bft) N 360 0 min 0,0 UV-I 0 W/m -2,5 C -8,4 C 19,3 km/h (3 Bft)
28.01.2023 05:35 -1,4 C -1,7 C 92 % 1029,2 hPa 0,0 l/m 14,5 km/h (3 Bft) N 360 0 min 0,0 UV-I 0 W/m -2,5 C -8,4 C 19,3 km/h (3 Bft)
28.01.2023 05:36 -1,4 C -1,7 C 92 % 1029,1 hPa 0,0 l/m 16,1 km/h (3 Bft) N-NW 337 0 min 0,0 UV-I 0 W/m -2,5 C -9,3 C 20,9 km/h (4 Bft)
28.01.2023 05:37 -1,4 C -1,7 C 92 % 1029,1 hPa 0,0 l/m 16,1 km/h (3 Bft) N 360 0 min 0,0 UV-I 0 W/m -2,5 C -9,3 C 22,5 km/h (4 Bft)
28.01.2023 05:38 -1,4 C -1,7 C 92 % 1029,2 hPa 0,0 l/m 11,3 km/h (2 Bft) N 360 0 min 0,0 UV-I 0 W/m -2,5 C -6,1 C 14,5 km/h (3 Bft)
28.01.2023 05:39 -1,4 C -1,7 C 92 % 1029,1 hPa 0,0 l/m 11,3 km/h (2 Bft) N-NO 22 0 min 0,0 UV-I 0 W/m -2,5 C -6,1 C 17,7 km/h (3 Bft)
28.01.2023 05:40 -1,4 C -1,7 C 92 % 1029,1 hPa 0,0 l/m 12,9 km/h (3 Bft) N 360 0 min 0,0 UV-I 0 W/m -2,5 C -7,3 C 17,7 km/h (3 Bft)
28.01.2023 05:41 -1,4 C -1,7 C 92 % 1029,1 hPa 0,0 l/m 14,5 km/h (3 Bft) N 360 0 min 0,0 UV-I 0 W/m -2,5 C -8,4 C 19,3 km/h (3 Bft)
28.01.2023 05:42 -1,4 C -1,7 C 92 % 1029,2 hPa 0,0 l/m 16,1 km/h (3 Bft) N 360 0 min 0,0 UV-I 0 W/m -2,5 C -9,3 C 20,9 km/h (4 Bft)
28.01.2023 05:43 -1,4 C -1,7 C 92 % 1029,2 hPa 0,0 l/m 12,9 km/h (3 Bft) N 360 0 min 0,0 UV-I 0 W/m -2,5 C -7,3 C 17,7 km/h (3 Bft)
28.01.2023 05:44 -1,4 C -1,7 C 92 % 1029,2 hPa 0,0 l/m 12,9 km/h (3 Bft) N 360 0 min 0,0 UV-I 0 W/m -2,5 C -7,3 C 16,1 km/h (3 Bft)
28.01.2023 05:45 -1,4 C -1,7 C 92 % 1029,2 hPa 0,0 l/m 9,7 km/h (2 Bft) N 360 0 min 0,0 UV-I 0 W/m -2,5 C -4,7 C 16,1 km/h (3 Bft)
28.01.2023 05:46 -1,5 C -1,7 C 92 % 1029,1 hPa 0,0 l/m 11,3 km/h (2 Bft) N 360 0 min 0,0 UV-I 0 W/m -2,6 C -6,2 C 16,1 km/h (3 Bft)
28.01.2023 05:47 -1,5 C -1,7 C 92 % 1029,1 hPa 0,0 l/m 9,7 km/h (2 Bft) N-NO 22 0 min 0,0 UV-I 0 W/m -2,6 C -4,8 C 16,1 km/h (3 Bft)
28.01.2023 05:48 -1,5 C -1,7 C 92 % 1029,2 hPa 0,0 l/m 11,3 km/h (2 Bft) N 360 0 min 0,0 UV-I 0 W/m -2,6 C -6,2 C 17,7 km/h (3 Bft)
28.01.2023 05:49 -1,4 C -1,7 C 92 % 1029,1 hPa 0,0 l/m 16,1 km/h (3 Bft) N-NW 337 0 min 0,0 UV-I 0 W/m -2,5 C -9,3 C 19,3 km/h (3 Bft)
28.01.2023 05:50 -1,5 C -1,7 C 92 % 1029,1 hPa 0,0 l/m 11,3 km/h (2 Bft) N 360 0 min 0,0 UV-I 0 W/m -2,6 C -6,2 C 17,7 km/h (3 Bft)
28.01.2023 05:51 -1,5 C -1,7 C 92 % 1029,1 hPa 0,0 l/m 11,3 km/h (2 Bft) N 360 0 min 0,0 UV-I 0 W/m -2,6 C -6,2 C 19,3 km/h (3 Bft)
28.01.2023 05:52 -1,5 C -1,7 C 92 % 1029,2 hPa 0,0 l/m 12,9 km/h (3 Bft) N 360 0 min 0,0 UV-I 0 W/m -2,6 C -7,4 C 17,7 km/h (3 Bft)
28.01.2023 05:53 -1,5 C -1,7 C 92 % 1029,1 hPa 0,0 l/m 12,9 km/h (3 Bft) N 360 0 min 0,0 UV-I 0 W/m -2,6 C -7,4 C 17,7 km/h (3 Bft)
28.01.2023 05:54 -1,5 C -1,7 C 92 % 1029,2 hPa 0,0 l/m 14,5 km/h (3 Bft) N 360 0 min 0,0 UV-I 0 W/m -2,6 C -8,5 C 19,3 km/h (3 Bft)
28.01.2023 05:55 -1,5 C -1,7 C 92 % 1029,2 hPa 0,0 l/m 14,5 km/h (3 Bft) N 360 0 min 0,0 UV-I 0 W/m -2,6 C -8,5 C 17,7 km/h (3 Bft)
28.01.2023 05:56 -1,5 C -1,7 C 92 % 1029,2 hPa 0,0 l/m 16,1 km/h (3 Bft) N 360 0 min 0,0 UV-I 0 W/m -2,6 C -9,5 C 20,9 km/h (4 Bft)
28.01.2023 05:57 -1,6 C -1,7 C 92 % 1029,1 hPa 0,0 l/m 17,7 km/h (3 Bft) N 360 0 min 0,0 UV-I 0 W/m -2,7 C -10,5 C 24,1 km/h (4 Bft)
28.01.2023 05:58 -1,5 C -1,7 C 92 % 1029,2 hPa 0,0 l/m 12,9 km/h (3 Bft) N 360 0 min 0,0 UV-I 0 W/m -2,6 C -7,4 C 16,1 km/h (3 Bft)
28.01.2023 05:59 -1,5 C -1,7 C 92 % 1029,1 hPa 0,0 l/m 11,3 km/h (2 Bft) N 360 0 min 0,0 UV-I 0 W/m -2,6 C -6,2 C 19,3 km/h (3 Bft)
28.01.2023 06:00 -1,6 C -1,7 C 92 % 1029,2 hPa 0,0 l/m 11,3 km/h (2 Bft) N 360 0 min 0,0 UV-I 0 W/m -2,7 C -6,3 C 16,1 km/h (3 Bft)
28.01.2023 06:01 -1,5 C -1,7 C 92 % 1029,1 hPa 0,0 l/m 9,7 km/h (2 Bft) N 360 0 min 0,0 UV-I 0 W/m -2,6 C -4,8 C 14,5 km/h (3 Bft)
28.01.2023 06:02 -1,5 C -1,7 C 92 % 1029,2 hPa 0,0 l/m 8,0 km/h (2 Bft) N 360 0 min 0,0 UV-I 0 W/m -2,6 C -3,2 C 12,9 km/h (3 Bft)
28.01.2023 06:03 -1,5 C -1,7 C 92 % 1029,1 hPa 0,0 l/m 6,4 km/h (2 Bft) N 360 0 min 0,0 UV-I 0 W/m -2,6 C -1,5 C 12,9 km/h (3 Bft)
28.01.2023 06:04 -1,6 C -1,7 C 92 % 1029,2 hPa 0,0 l/m 8,0 km/h (2 Bft) N 360 0 min 0,0 UV-I 0 W/m -2,7 C -3,3 C 12,9 km/h (3 Bft)
28.01.2023 06:05 -1,6 C -1,7 C 92 % 1029,2 hPa 0,0 l/m 8,0 km/h (2 Bft) N-NO 22 0 min 0,0 UV-I 0 W/m -2,7 C -3,3 C 12,9 km/h (3 Bft)
28.01.2023 06:06 -1,5 C -1,7 C 92 % 1029,1 hPa 0,0 l/m 11,3 km/h (2 Bft) N 360 0 min 0,0 UV-I 0 W/m -2,6 C -6,2 C 17,7 km/h (3 Bft)
28.01.2023 06:07 -1,6 C -1,7 C 92 % 1029,2 hPa 0,0 l/m 9,7 km/h (2 Bft) N 360 0 min 0,0 UV-I 0 W/m -2,7 C -5,0 C 14,5 km/h (3 Bft)
28.01.2023 06:08 -1,6 C -1,7 C 92 % 1029,2 hPa 0,0 l/m 12,9 km/h (3 Bft) N 360 0 min 0,0 UV-I 0 W/m -2,7 C -7,5 C 17,7 km/h (3 Bft)
28.01.2023 06:09 -1,6 C -1,7 C 92 % 1029,2 hPa 0,0 l/m 9,7 km/h (2 Bft) N 360 0 min 0,0 UV-I 0 W/m -2,7 C -5,0 C 16,1 km/h (3 Bft)
28.01.2023 06:10 -1,5 C -1,7 C 92 % 1029,2 hPa 0,0 l/m 14,5 km/h (3 Bft) N 360 0 min 0,0 UV-I 0 W/m -2,6 C -8,5 C 17,7 km/h (3 Bft)
28.01.2023 06:11 -1,6 C -1,7 C 92 % 1029,2 hPa 0,0 l/m 9,7 km/h (2 Bft) N 360 0 min 0,0 UV-I 0 W/m -2,7 C -5,0 C 16,1 km/h (3 Bft)
28.01.2023 06:12 -1,6 C -1,7 C 92 % 1029,2 hPa 0,0 l/m 14,5 km/h (3 Bft) N 360 0 min 0,0 UV-I 0 W/m -2,7 C -8,6 C 19,3 km/h (3 Bft)
28.01.2023 06:13 -1,6 C -1,7 C 92 % 1029,3 hPa 0,0 l/m 11,3 km/h (2 Bft) N 360 0 min 0,0 UV-I 0 W/m -2,7 C -6,3 C 19,3 km/h (3 Bft)
28.01.2023 06:14 -1,6 C -1,7 C 92 % 1029,1 hPa 0,0 l/m 14,5 km/h (3 Bft) N-NO 22 0 min 0,0 UV-I 0 W/m -2,7 C -8,6 C 20,9 km/h (4 Bft)
28.01.2023 06:15 -1,6 C -1,7 C 92 % 1029,3 hPa 0,0 l/m 11,3 km/h (2 Bft) N 360 0 min 0,0 UV-I 0 W/m -2,7 C -6,3 C 14,5 km/h (3 Bft)
28.01.2023 06:16 -1,6 C -1,7 C 92 % 1029,3 hPa 0,0 l/m 8,0 km/h (2 Bft) N 360 0 min 0,0 UV-I 0 W/m -2,7 C -3,3 C 14,5 km/h (3 Bft)
28.01.2023 06:17 -1,6 C -1,7 C 92 % 1029,2 hPa 0,0 l/m 8,0 km/h (2 Bft) N 360 0 min 0,0 UV-I 0 W/m -2,7 C -3,3 C 12,9 km/h (3 Bft)
28.01.2023 06:18 -1,6 C -1,7 C 92 % 1029,2 hPa 0,0 l/m 9,7 km/h (2 Bft) N 360 0 min 0,0 UV-I 0 W/m -2,7 C -5,0 C 14,5 km/h (3 Bft)
28.01.2023 06:19 -1,6 C -1,7 C 92 % 1029,3 hPa 0,0 l/m 16,1 km/h (3 Bft) N-NW 337 0 min 0,0 UV-I 0 W/m -2,7 C -9,6 C 19,3 km/h (3 Bft)
28.01.2023 06:20 -1,6 C -1,7 C 92 % 1029,2 hPa 0,0 l/m 11,3 km/h (2 Bft) N 360 0 min 0,0 UV-I 0 W/m -2,7 C -6,3 C 14,5 km/h (3 Bft)
28.01.2023 06:21 -1,6 C -1,7 C 92 % 1029,3 hPa 0,0 l/m 12,9 km/h (3 Bft) N 360 0 min 0,0 UV-I 0 W/m -2,7 C -7,5 C 19,3 km/h (3 Bft)
28.01.2023 06:22 -1,6 C -1,7 C 92 % 1029,2 hPa 0,0 l/m 12,9 km/h (3 Bft) N 360 0 min 0,0 UV-I 0 W/m -2,7 C -7,5 C 19,3 km/h (3 Bft)
28.01.2023 06:23 -1,6 C -1,7 C 92 % 1029,1 hPa 0,0 l/m 14,5 km/h (3 Bft) N 360 0 min 0,0 UV-I 0 W/m -2,7 C -8,6 C 20,9 km/h (4 Bft)
28.01.2023 06:24 -1,6 C -1,7 C 92 % 1029,2 hPa 0,0 l/m 17,7 km/h (3 Bft) N 360 0 min 0,0 UV-I 0 W/m -2,7 C -10,5 C 20,9 km/h (4 Bft)
28.01.2023 06:25 -1,6 C -1,7 C 92 % 1029,2 hPa 0,0 l/m 12,9 km/h (3 Bft) N 360 0 min 0,0 UV-I 0 W/m -2,7 C -7,5 C 17,7 km/h (3 Bft)
28.01.2023 06:26 -1,6 C -1,7 C 92 % 1029,2 hPa 0,0 l/m 9,7 km/h (2 Bft) N 360 0 min 0,0 UV-I 0 W/m -2,7 C -5,0 C 12,9 km/h (3 Bft)
28.01.2023 06:27 -1,6 C -1,7 C 92 % 1029,1 hPa 0,0 l/m 8,0 km/h (2 Bft) N 360 0 min 0,0 UV-I 0 W/m -2,7 C -3,3 C 14,5 km/h (3 Bft)
28.01.2023 06:28 -1,6 C -1,7 C 92 % 1029,2 hPa 0,0 l/m 11,3 km/h (2 Bft) N 360 0 min 0,0 UV-I 0 W/m -2,7 C -6,3 C 14,5 km/h (3 Bft)
28.01.2023 06:29 -1,6 C -1,7 C 92 % 1029,2 hPa 0,0 l/m 11,3 km/h (2 Bft) N-NO 22 0 min 0,0 UV-I 0 W/m -2,7 C -6,3 C 16,1 km/h (3 Bft)
28.01.2023 06:30 -1,6 C -1,7 C 92 % 1029,2 hPa 0,0 l/m 14,5 km/h (3 Bft) N 360 0 min 0,0 UV-I 0 W/m -2,7 C -8,6 C 19,3 km/h (3 Bft)
28.01.2023 06:31 -1,6 C -1,7 C 92 % 1029,2 hPa 0,0 l/m 9,7 km/h (2 Bft) N 360 0 min 0,0 UV-I 0 W/m -2,7 C -5,0 C 14,5 km/h (3 Bft)
28.01.2023 06:32 -1,6 C -1,7 C 92 % 1029,2 hPa 0,0 l/m 8,0 km/h (2 Bft) N 360 0 min 0,0 UV-I 0 W/m -2,7 C -3,3 C 12,9 km/h (3 Bft)
28.01.2023 06:33 -1,6 C -1,7 C 92 % 1029,2 hPa 0,0 l/m 12,9 km/h (3 Bft) N 360 0 min 0,0 UV-I 0 W/m -2,7 C -7,5 C 16,1 km/h (3 Bft)
28.01.2023 06:34 -1,6 C -1,7 C 92 % 1029,3 hPa 0,0 l/m 11,3 km/h (2 Bft) N 360 0 min 0,0 UV-I 0 W/m -2,7 C -6,3 C 14,5 km/h (3 Bft)
28.01.2023 06:35 -1,6 C -1,7 C 92 % 1029,3 hPa 0,0 l/m 16,1 km/h (3 Bft) N 360 0 min 0,0 UV-I 0 W/m -2,7 C -9,6 C 19,3 km/h (3 Bft)
28.01.2023 06:36 -1,7 C -1,7 C 92 % 1029,2 hPa 0,0 l/m 11,3 km/h (2 Bft) N 360 0 min 0,0 UV-I 0 W/m -2,8 C -6,4 C 14,5 km/h (3 Bft)
28.01.2023 06:37 -1,6 C -1,7 C 92 % 1029,2 hPa 0,0 l/m 11,3 km/h (2 Bft) N 360 0 min 0,0 UV-I 0 W/m -2,7 C -6,3 C 16,1 km/h (3 Bft)
28.01.2023 06:38 -1,7 C -1,7 C 92 % 1029,2 hPa 0,0 l/m 8,0 km/h (2 Bft) N 360 0 min 0,0 UV-I 0 W/m -2,8 C -3,4 C 12,9 km/h (3 Bft)
28.01.2023 06:39 -1,7 C -1,7 C 92 % 1029,3 hPa 0,0 l/m 9,7 km/h (2 Bft) N 360 0 min 0,0 UV-I 0 W/m -2,8 C -5,1 C 14,5 km/h (3 Bft)
28.01.2023 06:40 -1,7 C -1,7 C 92 % 1029,3 hPa 0,0 l/m 8,0 km/h (2 Bft) N-NO 22 0 min 0,0 UV-I 0 W/m -2,8 C -3,4 C 12,9 km/h (3 Bft)
28.01.2023 06:41 -1,6 C -1,7 C 92 % 1029,3 hPa 0,0 l/m 8,0 km/h (2 Bft) N-NO 22 0 min 0,0 UV-I 0 W/m -2,7 C -3,3 C 11,3 km/h (2 Bft)
28.01.2023 06:42 -1,7 C -1,7 C 92 % 1029,3 hPa 0,0 l/m 8,0 km/h (2 Bft) N-NO 22 0 min 0,0 UV-I 0 W/m -2,8 C -3,4 C 11,3 km/h (2 Bft)
28.01.2023 06:43 -1,7 C -1,7 C 92 % 1029,3 hPa 0,0 l/m 11,3 km/h (2 Bft) N-NO 22 0 min 0,0 UV-I 0 W/m -2,8 C -6,4 C 16,1 km/h (3 Bft)
28.01.2023 06:44 -1,7 C -1,7 C 92 % 1029,4 hPa 0,0 l/m 16,1 km/h (3 Bft) N 360 0 min 0,0 UV-I 0 W/m -2,8 C -9,7 C 22,5 km/h (4 Bft)
28.01.2023 06:45 -1,7 C -1,7 C 92 % 1029,3 hPa 0,0 l/m 11,3 km/h (2 Bft) N 360 0 min 0,0 UV-I 0 W/m -2,8 C -6,4 C 17,7 km/h (3 Bft)
28.01.2023 06:46 -1,7 C -1,7 C 92 % 1029,3 hPa 0,0 l/m 11,3 km/h (2 Bft) N 360 0 min 0,0 UV-I 0 W/m -2,8 C -6,4 C 17,7 km/h (3 Bft)
28.01.2023 06:47 -1,7 C -1,7 C 92 % 1029,3 hPa 0,0 l/m 11,3 km/h (2 Bft) N-NO 22 0 min 0,0 UV-I 0 W/m -2,8 C -6,4 C 19,3 km/h (3 Bft)
28.01.2023 06:48 -1,7 C -1,7 C 92 % 1029,3 hPa 0,0 l/m 11,3 km/h (2 Bft) N 360 0 min 0,0 UV-I 0 W/m -2,8 C -6,4 C 17,7 km/h (3 Bft)
28.01.2023 06:49 -1,7 C -1,7 C 92 % 1029,3 hPa 0,0 l/m 9,7 km/h (2 Bft) N 360 0 min 0,0 UV-I 0 W/m -2,8 C -5,1 C 17,7 km/h (3 Bft)
28.01.2023 06:50 -1,7 C -1,7 C 92 % 1029,3 hPa 0,0 l/m 11,3 km/h (2 Bft) N 360 0 min 0,0 UV-I 0 W/m -2,8 C -6,4 C 16,1 km/h (3 Bft)
28.01.2023 06:51 -1,7 C -1,7 C 92 % 1029,3 hPa 0,0 l/m 9,7 km/h (2 Bft) N 360 0 min 0,0 UV-I 0 W/m -2,8 C -5,1 C 14,5 km/h (3 Bft)
28.01.2023 06:52 -1,7 C -1,7 C 92 % 1029,2 hPa 0,0 l/m 8,0 km/h (2 Bft) N-NO 22 0 min 0,0 UV-I 0 W/m -2,8 C -3,4 C 14,5 km/h (3 Bft)
28.01.2023 06:53 -1,7 C -1,7 C 92 % 1029,3 hPa 0,0 l/m 12,9 km/h (3 Bft) N-NO 22 0 min 0,0 UV-I 0 W/m -2,8 C -7,6 C 19,3 km/h (3 Bft)
28.01.2023 06:54 -1,7 C -1,7 C 92 % 1029,2 hPa 0,0 l/m 11,3 km/h (2 Bft) N 360 0 min 0,0 UV-I 0 W/m -2,8 C -6,4 C 16,1 km/h (3 Bft)
28.01.2023 06:55 -1,7 C -1,7 C 92 % 1029,3 hPa 0,0 l/m 9,7 km/h (2 Bft) N 360 0 min 0,0 UV-I 0 W/m -2,8 C -5,1 C 14,5 km/h (3 Bft)
28.01.2023 06:56 -1,7 C -1,7 C 92 % 1029,3 hPa 0,0 l/m 8,0 km/h (2 Bft) N-NO 22 0 min 0,0 UV-I 0 W/m -2,8 C -3,4 C 14,5 km/h (3 Bft)
28.01.2023 06:57 -1,8 C -1,7 C 92 % 1029,3 hPa 0,0 l/m 8,0 km/h (2 Bft) N 360 0 min 0,0 UV-I 0 W/m -2,9 C -3,5 C 14,5 km/h (3 Bft)
28.01.2023 06:58 -1,8 C -1,7 C 92 % 1029,3 hPa 0,0 l/m 11,3 km/h (2 Bft) N-NO 22 0 min 0,0 UV-I 0 W/m -2,9 C -6,5 C 16,1 km/h (3 Bft)
28.01.2023 06:59 -1,8 C -1,7 C 92 % 1029,4 hPa 0,0 l/m 9,7 km/h (2 Bft) N-NO 22 0 min 0,0 UV-I 0 W/m -2,9 C -5,2 C 14,5 km/h (3 Bft)
28.01.2023 07:00 -1,8 C -1,7 C 92 % 1029,3 hPa 0,0 l/m 16,1 km/h (3 Bft) N-NO 22 0 min 0,0 UV-I 0 W/m -2,9 C -9,8 C 22,5 km/h (4 Bft)
28.01.2023 07:01 -1,8 C -1,7 C 92 % 1029,4 hPa 0,0 l/m 16,1 km/h (3 Bft) NO 45 0 min 0,0 UV-I 0 W/m -2,9 C -9,8 C 20,9 km/h (4 Bft)
28.01.2023 07:02 -1,8 C -1,7 C 92 % 1029,3 hPa 0,0 l/m 17,7 km/h (3 Bft) NO 45 0 min 0,0 UV-I 0 W/m -2,9 C -10,8 C 24,1 km/h (4 Bft)
28.01.2023 07:03 -1,8 C -1,7 C 92 % 1029,3 hPa 0,0 l/m 16,1 km/h (3 Bft) N-NO 22 0 min 0,0 UV-I 0 W/m -2,9 C -9,8 C 22,5 km/h (4 Bft)
28.01.2023 07:04 -1,8 C -1,7 C 92 % 1029,4 hPa 0,0 l/m 14,5 km/h (3 Bft) N-NO 22 0 min 0,0 UV-I 0 W/m -2,9 C -8,8 C 19,3 km/h (3 Bft)
28.01.2023 07:05 -1,8 C -1,7 C 92 % 1029,4 hPa 0,0 l/m 16,1 km/h (3 Bft) N 360 0 min 0,0 UV-I 0 W/m -2,9 C -9,8 C 20,9 km/h (4 Bft)
28.01.2023 07:06 -1,8 C -1,7 C 92 % 1029,4 hPa 0,0 l/m 11,3 km/h (2 Bft) N 360 0 min 0,0 UV-I 0 W/m -2,9 C -6,5 C 16,1 km/h (3 Bft)
28.01.2023 07:07 -1,8 C -1,7 C 92 % 1029,4 hPa 0,0 l/m 9,7 km/h (2 Bft) N 360 0 min 0,0 UV-I 0 W/m -2,9 C -5,2 C 17,7 km/h (3 Bft)
28.01.2023 07:08 -1,9 C -1,7 C 92 % 1029,4 hPa 0,0 l/m 11,3 km/h (2 Bft) N 360 0 min 0,0 UV-I 0 W/m -3,0 C -6,6 C 14,5 km/h (3 Bft)
28.01.2023 07:09 -1,9 C -1,7 C 92 % 1029,5 hPa 0,0 l/m 11,3 km/h (2 Bft) N 360 0 min 0,0 UV-I 0 W/m -3,0 C -6,6 C 16,1 km/h (3 Bft)
28.01.2023 07:10 -1,9 C -1,7 C 92 % 1029,5 hPa 0,0 l/m 16,1 km/h (3 Bft) N-NO 22 0 min 0,0 UV-I 0 W/m -3,0 C -10,0 C 25,7 km/h (4 Bft)
28.01.2023 07:11 -1,9 C -1,7 C 92 % 1029,5 hPa 0,0 l/m 16,1 km/h (3 Bft) N-NO 22 0 min 0,0 UV-I 0 W/m -3,0 C -10,0 C 22,5 km/h (4 Bft)
28.01.2023 07:12 -1,9 C -1,7 C 92 % 1029,6 hPa 0,0 l/m 12,9 km/h (3 Bft) N 360 0 min 0,0 UV-I 0 W/m -3,0 C -7,9 C 19,3 km/h (3 Bft)
28.01.2023 07:13 -1,9 C -1,7 C 92 % 1029,6 hPa 0,0 l/m 17,7 km/h (3 Bft) N 360 0 min 0,0 UV-I 0 W/m -3,0 C -10,9 C 20,9 km/h (4 Bft)
28.01.2023 07:14 -1,9 C -1,7 C 92 % 1029,6 hPa 0,0 l/m 12,9 km/h (3 Bft) N 360 0 min 0,0 UV-I 0 W/m -3,0 C -7,9 C 17,7 km/h (3 Bft)
28.01.2023 07:15 -1,9 C -1,7 C 92 % 1029,5 hPa 0,0 l/m 16,1 km/h (3 Bft) N 360 0 min 0,0 UV-I 0 W/m -3,0 C -10,0 C 25,7 km/h (4 Bft)
28.01.2023 07:16 -1,9 C -1,7 C 92 % 1029,6 hPa 0,0 l/m 17,7 km/h (3 Bft) N 360 0 min 0,0 UV-I 0 W/m -3,0 C -10,9 C 22,5 km/h (4 Bft)
28.01.2023 07:17 -1,9 C -2,2 C 92 % 1029,6 hPa 0,0 l/m 17,7 km/h (3 Bft) N 360 0 min 0,0 UV-I 0 W/m -3,0 C -10,9 C 22,5 km/h (4 Bft)
28.01.2023 07:18 -1,9 C -2,2 C 92 % 1029,6 hPa 0,0 l/m 17,7 km/h (3 Bft) N 360 0 min 0,0 UV-I 0 W/m -3,0 C -10,9 C 20,9 km/h (4 Bft)
28.01.2023 07:19 -1,9 C -2,2 C 92 % 1029,5 hPa 0,0 l/m 17,7 km/h (3 Bft) N-NW 337 0 min 0,0 UV-I 0 W/m -3,0 C -10,9 C 20,9 km/h (4 Bft)
28.01.2023 07:20 -1,9 C -2,2 C 92 % 1029,6 hPa 0,0 l/m 12,9 km/h (3 Bft) N 360 0 min 0,0 UV-I 0 W/m -3,0 C -7,9 C 17,7 km/h (3 Bft)
28.01.2023 07:21 -1,9 C -1,7 C 92 % 1029,6 hPa 0,0 l/m 9,7 km/h (2 Bft) N 360 0 min 0,0 UV-I 0 W/m -3,0 C -5,3 C 14,5 km/h (3 Bft)
28.01.2023 07:22 -1,9 C -1,7 C 92 % 1029,7 hPa 0,0 l/m 19,3 km/h (3 Bft) N 360 0 min 0,0 UV-I 0 W/m -3,0 C -11,7 C 25,7 km/h (4 Bft)
28.01.2023 07:23 -2,0 C -2,2 C 92 % 1029,7 hPa 0,0 l/m 14,5 km/h (3 Bft) N 360 0 min 0,0 UV-I 0 W/m -3,1 C -9,1 C 19,3 km/h (3 Bft)
28.01.2023 07:24 -1,9 C -2,2 C 92 % 1029,7 hPa 0,0 l/m 17,7 km/h (3 Bft) N 360 0 min 0,0 UV-I 0 W/m -3,0 C -10,9 C 22,5 km/h (4 Bft)
28.01.2023 07:25 -1,9 C -2,2 C 92 % 1029,6 hPa 0,0 l/m 11,3 km/h (2 Bft) N 360 0 min 0,0 UV-I 0 W/m -3,0 C -6,6 C 17,7 km/h (3 Bft)
28.01.2023 07:26 -2,0 C -1,7 C 92 % 1029,6 hPa 0,0 l/m 12,9 km/h (3 Bft) N 360 0 min 0,0 UV-I 0 W/m -3,1 C -8,0 C 16,1 km/h (3 Bft)
28.01.2023 07:27 -2,0 C -2,2 C 92 % 1029,6 hPa 0,0 l/m 11,3 km/h (2 Bft) N 360 0 min 0,0 UV-I 0 W/m -3,1 C -6,8 C 12,9 km/h (3 Bft)
28.01.2023 07:28 -1,9 C -2,2 C 92 % 1029,7 hPa 0,0 l/m 9,7 km/h (2 Bft) N 360 0 min 0,0 UV-I 0 W/m -3,0 C -5,3 C 12,9 km/h (3 Bft)
28.01.2023 07:29 -1,9 C -1,7 C 92 % 1029,6 hPa 0,0 l/m 8,0 km/h (2 Bft) N 360 0 min 0,0 UV-I 0 W/m -3,0 C -3,6 C 14,5 km/h (3 Bft)
28.01.2023 07:30 -1,9 C -1,7 C 92 % 1029,6 hPa 0,0 l/m 9,7 km/h (2 Bft) N 360 0 min 0,0 UV-I 0 W/m -3,0 C -5,3 C 14,5 km/h (3 Bft)
28.01.2023 07:31 -1,9 C -1,7 C 92 % 1029,6 hPa 0,0 l/m 6,4 km/h (2 Bft) N-NO 22 0 min 0,0 UV-I 0 W/m -3,0 C -1,9 C 12,9 km/h (3 Bft)
28.01.2023 07:32 -1,9 C -1,7 C 92 % 1029,6 hPa 0,0 l/m 6,4 km/h (2 Bft) N 360 0 min 0,0 UV-I 0 W/m -3,0 C -1,9 C 9,7 km/h (2 Bft)
28.01.2023 07:33 -1,9 C -1,7 C 92 % 1029,6 hPa 0,0 l/m 14,5 km/h (3 Bft) N-NO 22 0 min 0,0 UV-I 0 W/m -3,0 C -9,0 C 17,7 km/h (3 Bft)
28.01.2023 07:34 -1,9 C -1,7 C 92 % 1029,6 hPa 0,0 l/m 9,7 km/h (2 Bft) N 360 0 min 0,0 UV-I 0 W/m -3,0 C -5,3 C 14,5 km/h (3 Bft)
28.01.2023 07:35 -1,9 C -1,7 C 92 % 1029,7 hPa 0,0 l/m 11,3 km/h (2 Bft) N 360 0 min 0,0 UV-I 0 W/m -3,0 C -6,6 C 17,7 km/h (3 Bft)
28.01.2023 07:36 -1,9 C -1,7 C 92 % 1029,7 hPa 0,0 l/m 12,9 km/h (3 Bft) N 360 0 min 0,0 UV-I 0 W/m -3,0 C -7,9 C 20,9 km/h (4 Bft)
28.01.2023 07:37 -1,9 C -1,7 C 92 % 1029,7 hPa 0,0 l/m 9,7 km/h (2 Bft) N 360 0 min 0,0 UV-I 0 W/m -3,0 C -5,3 C 16,1 km/h (3 Bft)
28.01.2023 07:38 -1,9 C -1,7 C 92 % 1029,7 hPa 0,0 l/m 12,9 km/h (3 Bft) N-NO 22 0 min 0,0 UV-I 0 W/m -3,0 C -7,9 C 19,3 km/h (3 Bft)
28.01.2023 07:39 -2,0 C -1,7 C 92 % 1029,7 hPa 0,0 l/m 12,9 km/h (3 Bft) N-NO 22 0 min 0,0 UV-I 0 W/m -3,1 C -8,0 C 22,5 km/h (4 Bft)
28.01.2023 07:40 -2,0 C -2,2 C 92 % 1029,8 hPa 0,0 l/m 9,7 km/h (2 Bft) N 360 0 min 0,0 UV-I 0 W/m -3,1 C -5,4 C 17,7 km/h (3 Bft)
28.01.2023 07:41 -1,9 C -2,2 C 92 % 1029,8 hPa 0,0 l/m 12,9 km/h (3 Bft) N 360 0 min 0,0 UV-I 0 W/m -3,0 C -7,9 C 19,3 km/h (3 Bft)
28.01.2023 07:42 -1,9 C -1,7 C 92 % 1029,7 hPa 0,0 l/m 12,9 km/h (3 Bft) N 360 0 min 0,0 UV-I 0 W/m -3,0 C -7,9 C 19,3 km/h (3 Bft)
28.01.2023 07:43 -1,9 C -2,2 C 92 % 1029,8 hPa 0,0 l/m 19,3 km/h (3 Bft) N 360 0 min 0,0 UV-I 0 W/m -3,0 C -11,7 C 22,5 km/h (4 Bft)
28.01.2023 07:44 -2,1 C -2,2 C 92 % 1029,8 hPa 0,0 l/m 17,7 km/h (3 Bft) N 360 0 min 0,0 UV-I 0 W/m -3,2 C -11,1 C 24,1 km/h (4 Bft)
28.01.2023 07:45 -2,0 C -2,2 C 92 % 1029,8 hPa 0,0 l/m 16,1 km/h (3 Bft) N-NO 22 0 min 0,0 UV-I 0 W/m -3,1 C -10,1 C 20,9 km/h (4 Bft)
28.01.2023 07:46 -2,0 C -1,7 C 92 % 1029,8 hPa 0,0 l/m 14,5 km/h (3 Bft) N-NO 22 0 min 0,0 UV-I 0 W/m -3,1 C -9,1 C 24,1 km/h (4 Bft)
28.01.2023 07:47 -2,1 C -1,7 C 92 % 1029,8 hPa 0,0 l/m 16,1 km/h (3 Bft) N-NO 22 0 min 0,0 UV-I 0 W/m -3,2 C -10,2 C 20,9 km/h (4 Bft)
28.01.2023 07:48 -2,0 C -1,7 C 92 % 1029,7 hPa 0,0 l/m 17,7 km/h (3 Bft) N-NO 22 0 min 0,0 UV-I 0 W/m -3,1 C -11,0 C 25,7 km/h (4 Bft)
28.01.2023 07:49 -2,0 C -1,7 C 92 % 1029,7 hPa 0,0 l/m 12,9 km/h (3 Bft) N-NO 22 0 min 0,0 UV-I 0 W/m -3,1 C -8,0 C 20,9 km/h (4 Bft)
28.01.2023 07:50 -2,0 C -1,7 C 92 % 1029,7 hPa 0,0 l/m 14,5 km/h (3 Bft) N-NO 22 0 min 0,0 UV-I 0 W/m -3,1 C -9,1 C 17,7 km/h (3 Bft)
28.01.2023 07:51 -2,0 C -1,7 C 92 % 1029,8 hPa 0,0 l/m 11,3 km/h (2 Bft) N 360 0 min 0,0 UV-I 0 W/m -3,1 C -6,8 C 14,5 km/h (3 Bft)
28.01.2023 07:52 -2,1 C -1,7 C 92 % 1029,8 hPa 0,0 l/m 16,1 km/h (3 Bft) N 360 0 min 0,0 UV-I 0 W/m -3,2 C -10,2 C 20,9 km/h (4 Bft)
28.01.2023 07:53 -2,1 C -1,7 C 92 % 1029,8 hPa 0,0 l/m 11,3 km/h (2 Bft) N-NO 22 0 min 0,0 UV-I 0 W/m -3,2 C -6,9 C 16,1 km/h (3 Bft)
28.01.2023 07:54 -2,0 C -1,7 C 92 % 1029,7 hPa 0,0 l/m 9,7 km/h (2 Bft) N-NO 22 0 min 0,0 UV-I 0 W/m -3,1 C -5,4 C 14,5 km/h (3 Bft)
28.01.2023 07:55 -2,0 C -1,7 C 92 % 1029,7 hPa 0,0 l/m 9,7 km/h (2 Bft) N-NO 22 0 min 0,0 UV-I 0 W/m -3,1 C -5,4 C 17,7 km/h (3 Bft)
28.01.2023 07:56 -1,9 C -1,7 C 92 % 1029,8 hPa 0,0 l/m 11,3 km/h (2 Bft) N-NO 22 0 min 0,0 UV-I 0 W/m -3,0 C -6,6 C 16,1 km/h (3 Bft)
28.01.2023 07:57 -2,0 C -1,7 C 92 % 1029,8 hPa 0,0 l/m 14,5 km/h (3 Bft) N-NO 22 0 min 0,0 UV-I 0 W/m -3,1 C -9,1 C 19,3 km/h (3 Bft)
28.01.2023 07:58 -2,0 C -1,7 C 92 % 1029,8 hPa 0,0 l/m 14,5 km/h (3 Bft) N-NO 22 0 min 0,0 UV-I 0 W/m -3,1 C -9,1 C 20,9 km/h (4 Bft)
28.01.2023 07:59 -2,0 C -1,7 C 92 % 1029,8 hPa 0,0 l/m 19,3 km/h (3 Bft) N-NO 22 0 min 0,0 UV-I 0 W/m -3,1 C -11,9 C 24,1 km/h (4 Bft)
28.01.2023 08:00 -2,0 C -1,7 C 92 % 1029,8 hPa 0,0 l/m 12,9 km/h (3 Bft) N 360 0 min 0,0 UV-I 0 W/m -3,1 C -8,0 C 20,9 km/h (4 Bft)
28.01.2023 08:01 -2,0 C -1,7 C 92 % 1030,1 hPa 0,0 l/m 16,1 km/h (3 Bft) N-NO 22 0 min 0,0 UV-I 0 W/m -3,1 C -10,1 C 22,5 km/h (4 Bft)
28.01.2023 08:02 -2,0 C -1,7 C 92 % 1029,7 hPa 0,0 l/m 11,3 km/h (2 Bft) N-NO 22 0 min 0,0 UV-I 0 W/m -3,1 C -6,8 C 17,7 km/h (3 Bft)
28.01.2023 08:03 -2,0 C -1,7 C 92 % 1029,8 hPa 0,0 l/m 11,3 km/h (2 Bft) N-NO 22 0 min 0,0 UV-I 0 W/m -3,1 C -6,8 C 16,1 km/h (3 Bft)
28.01.2023 08:04 -2,0 C -1,7 C 92 % 1029,8 hPa 0,0 l/m 17,7 km/h (3 Bft) N-NO 22 0 min 0,0 UV-I 0 W/m -3,1 C -11,0 C 24,1 km/h (4 Bft)
28.01.2023 08:05 -2,0 C -1,7 C 92 % 1029,8 hPa 0,0 l/m 12,9 km/h (3 Bft) N-NO 22 0 min 0,0 UV-I 0 W/m -3,1 C -8,0 C 19,3 km/h (3 Bft)
28.01.2023 08:06 -2,0 C -1,7 C 92 % 1029,9 hPa 0,0 l/m 12,9 km/h (3 Bft) N-NO 22 0 min 0,0 UV-I 0 W/m -3,1 C -8,0 C 16,1 km/h (3 Bft)
28.01.2023 08:07 -2,1 C -1,7 C 92 % 1029,9 hPa 0,0 l/m 11,3 km/h (2 Bft) N-NO 22 0 min 0,0 UV-I 0 W/m -3,2 C -6,9 C 14,5 km/h (3 Bft)
28.01.2023 08:08 -2,0 C -1,7 C 92 % 1029,9 hPa 0,0 l/m 8,0 km/h (2 Bft) N-NO 22 0 min 0,0 UV-I 0 W/m -3,1 C -3,7 C 12,9 km/h (3 Bft)
28.01.2023 08:09 -2,0 C -1,7 C 92 % 1030,0 hPa 0,0 l/m 9,7 km/h (2 Bft) N-NO 22 0 min 0,0 UV-I 0 W/m -3,1 C -5,4 C 16,1 km/h (3 Bft)
28.01.2023 08:10 -2,0 C -1,7 C 92 % 1029,9 hPa 0,0 l/m 12,9 km/h (3 Bft) N-NO 22 0 min 0,0 UV-I 0 W/m -3,1 C -8,0 C 17,7 km/h (3 Bft)
28.01.2023 08:11 -2,0 C -1,7 C 92 % 1029,9 hPa 0,0 l/m 11,3 km/h (2 Bft) N-NO 22 0 min 0,0 UV-I 0 W/m -3,1 C -6,8 C 16,1 km/h (3 Bft)
28.01.2023 08:12 -2,0 C -1,7 C 92 % 1029,9 hPa 0,0 l/m 12,9 km/h (3 Bft) N-NO 22 0 min 0,0 UV-I 0 W/m -3,1 C -8,0 C 19,3 km/h (3 Bft)
28.01.2023 08:13 -2,0 C -1,7 C 92 % 1030,0 hPa 0,0 l/m 16,1 km/h (3 Bft) N-NO 22 0 min 0,0 UV-I 0 W/m -3,1 C -10,1 C 19,3 km/h (3 Bft)
28.01.2023 08:14 -2,0 C -1,7 C 92 % 1029,9 hPa 0,0 l/m 16,1 km/h (3 Bft) N-NO 22 0 min 0,0 UV-I 0 W/m -3,1 C -10,1 C 22,5 km/h (4 Bft)
28.01.2023 08:15 -2,0 C -1,7 C 92 % 1030,0 hPa 0,0 l/m 9,7 km/h (2 Bft) N-NO 22 0 min 0,0 UV-I 0 W/m -3,1 C -5,4 C 14,5 km/h (3 Bft)
28.01.2023 08:16 -2,0 C -1,7 C 92 % 1029,9 hPa 0,0 l/m 8,0 km/h (2 Bft) N-NO 22 0 min 0,0 UV-I 0 W/m -3,1 C -3,7 C 11,3 km/h (2 Bft)
28.01.2023 08:17 -2,0 C -1,7 C 92 % 1029,9 hPa 0,0 l/m 6,4 km/h (2 Bft) N-NO 22 0 min 0,0 UV-I 0 W/m -3,1 C -2,0 C 11,3 km/h (2 Bft)
28.01.2023 08:18 -2,0 C -1,7 C 92 % 1029,9 hPa 0,0 l/m 8,0 km/h (2 Bft) N-NO 22 0 min 0,0 UV-I 0 W/m -3,1 C -3,7 C 12,9 km/h (3 Bft)
28.01.2023 08:19 -2,1 C -1,7 C 92 % 1030,0 hPa 0,0 l/m 14,5 km/h (3 Bft) N-NO 22 0 min 0,0 UV-I 0 W/m -3,2 C -9,2 C 17,7 km/h (3 Bft)
28.01.2023 08:20 -2,1 C -2,2 C 92 % 1029,9 hPa 0,0 l/m 6,4 km/h (2 Bft) N-NO 22 0 min 0,0 UV-I 0 W/m -3,2 C -2,1 C 9,7 km/h (2 Bft)
28.01.2023 08:21 -2,1 C -2,2 C 92 % 1030,0 hPa 0,0 l/m 9,7 km/h (2 Bft) N-NO 22 0 min 0,0 UV-I 0 W/m -3,2 C -5,5 C 14,5 km/h (3 Bft)
28.01.2023 08:22 -2,1 C -1,7 C 92 % 1029,9 hPa 0,0 l/m 8,0 km/h (2 Bft) N-NO 22 0 min 0,0 UV-I 0 W/m -3,2 C -3,9 C 12,9 km/h (3 Bft)
28.01.2023 08:23 -2,0 C -1,7 C 92 % 1029,9 hPa 0,0 l/m 9,7 km/h (2 Bft) N-NO 22 0 min 0,0 UV-I 0 W/m -3,1 C -5,4 C 14,5 km/h (3 Bft)
28.01.2023 08:24 -2,0 C -1,7 C 92 % 1030,0 hPa 0,0 l/m 11,3 km/h (2 Bft) N-NO 22 0 min 0,0 UV-I 0 W/m -3,1 C -6,8 C 14,5 km/h (3 Bft)
28.01.2023 08:25 -2,1 C -1,7 C 92 % 1030,0 hPa 0,0 l/m 11,3 km/h (2 Bft) N-NO 22 0 min 0,0 UV-I 0 W/m -3,2 C -6,9 C 16,1 km/h (3 Bft)
28.01.2023 08:26 -2,1 C -1,7 C 92 % 1030,0 hPa 0,0 l/m 8,0 km/h (2 Bft) N-NO 22 0 min 0,0 UV-I 0 W/m -3,2 C -3,9 C 12,9 km/h (3 Bft)
28.01.2023 08:27 -2,0 C -1,7 C 92 % 1029,9 hPa 0,0 l/m 9,7 km/h (2 Bft) N 360 0 min 0,0 UV-I 0 W/m -3,1 C -5,4 C 19,3 km/h (3 Bft)
28.01.2023 08:28 -2,0 C -1,7 C 92 % 1029,9 hPa 0,0 l/m 9,7 km/h (2 Bft) N-NO 22 0 min 0,0 UV-I 5 W/m -3,1 C -5,4 C 14,5 km/h (3 Bft)
28.01.2023 08:29 -2,0 C -1,7 C 92 % 1029,9 hPa 0,0 l/m 8,0 km/h (2 Bft) N-NO 22 0 min 0,0 UV-I 5 W/m -3,1 C -3,7 C 11,3 km/h (2 Bft)
28.01.2023 08:30 -2,0 C -1,7 C 92 % 1029,9 hPa 0,0 l/m 6,4 km/h (2 Bft) N-NO 22 0 min 0,0 UV-I 7 W/m -3,1 C -2,0 C 9,7 km/h (2 Bft)
28.01.2023 08:31 -2,0 C -1,7 C 92 % 1029,9 hPa 0,0 l/m 8,0 km/h (2 Bft) N-NO 22 0 min 0,0 UV-I 7 W/m -3,1 C -3,7 C 12,9 km/h (3 Bft)
28.01.2023 08:32 -2,1 C -1,7 C 92 % 1029,9 hPa 0,0 l/m 11,3 km/h (2 Bft) N 360 0 min 0,0 UV-I 7 W/m -3,2 C -6,9 C 12,9 km/h (3 Bft)
28.01.2023 08:33 -2,1 C -1,7 C 92 % 1029,8 hPa 0,0 l/m 9,7 km/h (2 Bft) N 360 0 min 0,0 UV-I 9 W/m -3,2 C -5,5 C 12,9 km/h (3 Bft)
28.01.2023 08:34 -2,1 C -1,7 C 92 % 1029,8 hPa 0,0 l/m 11,3 km/h (2 Bft) N 360 0 min 0,0 UV-I 9 W/m -3,2 C -6,9 C 16,1 km/h (3 Bft)
28.01.2023 08:35 -2,1 C -1,7 C 92 % 1029,8 hPa 0,0 l/m 11,3 km/h (2 Bft) N-NO 22 0 min 0,0 UV-I 9 W/m -3,2 C -6,9 C 14,5 km/h (3 Bft)
28.01.2023 08:36 -2,0 C -1,7 C 92 % 1029,9 hPa 0,0 l/m 8,0 km/h (2 Bft) N 360 0 min 0,0 UV-I 9 W/m -3,1 C -3,7 C 12,9 km/h (3 Bft)
28.01.2023 08:37 -2,1 C -1,7 C 92 % 1029,9 hPa 0,0 l/m 6,4 km/h (2 Bft) N 360 0 min 0,0 UV-I 11 W/m -3,2 C -2,1 C 11,3 km/h (2 Bft)
28.01.2023 08:38 -2,1 C -1,7 C 92 % 1029,8 hPa 0,0 l/m 6,4 km/h (2 Bft) NO 45 0 min 0,0 UV-I 12 W/m -3,2 C -2,1 C 11,3 km/h (2 Bft)
28.01.2023 08:39 -2,1 C -1,7 C 92 % 1029,8 hPa 0,0 l/m 8,0 km/h (2 Bft) N-NO 22 0 min 0,0 UV-I 14 W/m -3,2 C -3,9 C 12,9 km/h (3 Bft)
28.01.2023 08:40 -2,0 C -1,7 C 92 % 1029,8 hPa 0,0 l/m 9,7 km/h (2 Bft) N-NO 22 0 min 0,0 UV-I 14 W/m -3,1 C -5,4 C 14,5 km/h (3 Bft)
28.01.2023 08:41 -2,0 C -1,7 C 92 % 1029,8 hPa 0,0 l/m 8,0 km/h (2 Bft) N-NO 22 0 min 0,0 UV-I 16 W/m -3,1 C -3,7 C 12,9 km/h (3 Bft)
28.01.2023 08:42 -2,1 C -1,7 C 92 % 1029,9 hPa 0,0 l/m 12,9 km/h (3 Bft) N-NO 22 0 min 0,0 UV-I 16 W/m -3,2 C -8,1 C 17,7 km/h (3 Bft)
28.01.2023 08:43 -2,0 C -1,7 C 92 % 1029,9 hPa 0,0 l/m 11,3 km/h (2 Bft) N-NO 22 0 min 0,0 UV-I 16 W/m -3,1 C -6,8 C 17,7 km/h (3 Bft)
28.01.2023 08:44 -2,1 C -1,7 C 92 % 1029,9 hPa 0,0 l/m 6,4 km/h (2 Bft) N-NO 22 0 min 0,0 UV-I 14 W/m -3,2 C -2,1 C 12,9 km/h (3 Bft)
28.01.2023 08:45 -2,1 C -1,7 C 92 % 1029,8 hPa 0,0 l/m 8,0 km/h (2 Bft) NO 45 0 min 0,0 UV-I 12 W/m -3,2 C -3,9 C 12,9 km/h (3 Bft)
28.01.2023 08:46 -2,0 C -1,7 C 92 % 1029,9 hPa 0,0 l/m 8,0 km/h (2 Bft) N-NO 22 0 min 0,0 UV-I 12 W/m -3,1 C -3,7 C 14,5 km/h (3 Bft)
28.01.2023 08:47 -2,1 C -1,7 C 92 % 1029,9 hPa 0,0 l/m 9,7 km/h (2 Bft) N 360 0 min 0,0 UV-I 11 W/m -3,2 C -5,5 C 12,9 km/h (3 Bft)
28.01.2023 08:48 -2,1 C -1,7 C 92 % 1029,9 hPa 0,0 l/m 11,3 km/h (2 Bft) N-NO 22 0 min 0,0 UV-I 9 W/m -3,2 C -6,9 C 14,5 km/h (3 Bft)
28.01.2023 08:49 -2,1 C -1,7 C 92 % 1029,8 hPa 0,0 l/m 12,9 km/h (3 Bft) N-NO 22 0 min 0,0 UV-I 9 W/m -3,2 C -8,1 C 17,7 km/h (3 Bft)
28.01.2023 08:50 -2,0 C -1,7 C 92 % 1029,9 hPa 0,0 l/m 12,9 km/h (3 Bft) N-NO 22 0 min 0,0 UV-I 9 W/m -3,1 C -8,0 C 16,1 km/h (3 Bft)
28.01.2023 08:51 -2,1 C -1,7 C 92 % 1029,8 hPa 0,0 l/m 12,9 km/h (3 Bft) N-NO 22 0 min 0,0 UV-I 9 W/m -3,2 C -8,1 C 17,7 km/h (3 Bft)
28.01.2023 08:52 -2,1 C -1,7 C 92 % 1029,9 hPa 0,0 l/m 12,9 km/h (3 Bft) N-NO 22 0 min 0,0 UV-I 9 W/m -3,2 C -8,1 C 16,1 km/h (3 Bft)
28.01.2023 08:53 -2,1 C -1,7 C 92 % 1029,9 hPa 0,0 l/m 11,3 km/h (2 Bft) N-NO 22 0 min 0,0 UV-I 9 W/m -3,2 C -6,9 C 14,5 km/h (3 Bft)
28.01.2023 08:54 -2,1 C -1,7 C 92 % 1030,0 hPa 0,0 l/m 9,7 km/h (2 Bft) N 360 0 min 0,0 UV-I 9 W/m -3,2 C -5,5 C 16,1 km/h (3 Bft)
28.01.2023 08:55 -2,1 C -1,7 C 92 % 1029,9 hPa 0,0 l/m 14,5 km/h (3 Bft) N-NO 22 0 min 0,0 UV-I 9 W/m -3,2 C -9,2 C 19,3 km/h (3 Bft)
28.01.2023 08:56 -2,1 C -1,7 C 92 % 1029,9 hPa 0,0 l/m 8,0 km/h (2 Bft) N-NO 22 0 min 0,0 UV-I 8 W/m -3,2 C -3,9 C 12,9 km/h (3 Bft)
28.01.2023 08:57 -2,1 C -1,7 C 92 % 1029,9 hPa 0,0 l/m 11,3 km/h (2 Bft) N 360 0 min 0,0 UV-I 9 W/m -3,2 C -6,9 C 16,1 km/h (3 Bft)
28.01.2023 08:58 -2,1 C -2,2 C 92 % 1030,3 hPa 0,0 l/m 12,9 km/h (3 Bft) N 360 0 min 0,0 UV-I 9 W/m -3,2 C -8,1 C 17,7 km/h (3 Bft)
28.01.2023 08:59 -2,1 C -2,2 C 92 % 1029,9 hPa 0,0 l/m 11,3 km/h (2 Bft) N-NO 22 0 min 0,0 UV-I 9 W/m -3,2 C -6,9 C 16,1 km/h (3 Bft)
28.01.2023 09:00 -2,1 C -2,2 C 92 % 1029,9 hPa 0,0 l/m 8,0 km/h (2 Bft) N-NO 22 0 min 0,0 UV-I 9 W/m -3,2 C -3,9 C 11,3 km/h (2 Bft)
28.01.2023 09:01 -2,1 C -1,7 C 92 % 1030,0 hPa 0,0 l/m 8,0 km/h (2 Bft) N 360 0 min 0,0 UV-I 9 W/m -3,2 C -3,9 C 12,9 km/h (3 Bft)
28.01.2023 09:02 -2,1 C -1,7 C 92 % 1030,0 hPa 0,0 l/m 8,0 km/h (2 Bft) N 360 0 min 0,0 UV-I 9 W/m -3,2 C -3,9 C 14,5 km/h (3 Bft)
28.01.2023 09:03 -2,1 C -1,7 C 92 % 1029,9 hPa 0,0 l/m 9,7 km/h (2 Bft) N 360 0 min 0,0 UV-I 9 W/m -3,2 C -5,5 C 14,5 km/h (3 Bft)
28.01.2023 09:04 -2,1 C -1,7 C 92 % 1030,1 hPa 0,0 l/m 9,7 km/h (2 Bft) N 360 0 min 0,0 UV-I 9 W/m -3,2 C -5,5 C 12,9 km/h (3 Bft)
28.01.2023 09:05 -2,1 C -1,7 C 92 % 1030,0 hPa 0,0 l/m 12,9 km/h (3 Bft) N 360 0 min 0,0 UV-I 9 W/m -3,2 C -8,1 C 16,1 km/h (3 Bft)
28.01.2023 09:06 -2,1 C -2,2 C 92 % 1030,0 hPa 0,0 l/m 12,9 km/h (3 Bft) N 360 0 min 0,0 UV-I 9 W/m -3,2 C -8,1 C 16,1 km/h (3 Bft)
28.01.2023 09:07 -2,1 C -2,2 C 92 % 1030,1 hPa 0,0 l/m 14,5 km/h (3 Bft) N 360 0 min 0,0 UV-I 9 W/m -3,2 C -9,2 C 17,7 km/h (3 Bft)
28.01.2023 09:08 -2,1 C -1,7 C 91 % 1030,2 hPa 0,0 l/m 12,9 km/h (3 Bft) N 360 0 min 0,0 UV-I 9 W/m -3,4 C -8,1 C 19,3 km/h (3 Bft)
28.01.2023 09:09 -2,1 C -1,7 C 91 % 1030,6 hPa 0,0 l/m 17,7 km/h (3 Bft) N 360 0 min 0,0 UV-I 9 W/m -3,4 C -11,1 C 22,5 km/h (4 Bft)
28.01.2023 09:10 -2,1 C -2,2 C 91 % 1030,3 hPa 0,0 l/m 11,3 km/h (2 Bft) N 360 0 min 0,0 UV-I 9 W/m -3,4 C -6,9 C 16,1 km/h (3 Bft)
28.01.2023 09:11 -2,1 C -1,7 C 91 % 1030,3 hPa 0,0 l/m 11,3 km/h (2 Bft) N 360 0 min 0,0 UV-I 9 W/m -3,4 C -6,9 C 19,3 km/h (3 Bft)
28.01.2023 09:12 -2,1 C -2,2 C 91 % 1030,2 hPa 0,0 l/m 16,1 km/h (3 Bft) N 360 0 min 0,0 UV-I 9 W/m -3,4 C -10,2 C 19,3 km/h (3 Bft)
28.01.2023 09:13 -2,1 C -1,7 C 91 % 1030,2 hPa 0,0 l/m 9,7 km/h (2 Bft) N 360 0 min 0,0 UV-I 9 W/m -3,4 C -5,5 C 14,5 km/h (3 Bft)
28.01.2023 09:14 -2,1 C -1,7 C 91 % 1030,2 hPa 0,0 l/m 11,3 km/h (2 Bft) N-NO 22 0 min 0,0 UV-I 9 W/m -3,4 C -6,9 C 14,5 km/h (3 Bft)
28.01.2023 09:15 -2,1 C -1,7 C 91 % 1030,2 hPa 0,0 l/m 9,7 km/h (2 Bft) N-NO 22 0 min 0,0 UV-I 9 W/m -3,4 C -5,5 C 14,5 km/h (3 Bft)
28.01.2023 09:16 -2,1 C -1,7 C 91 % 1030,2 hPa 0,0 l/m 8,0 km/h (2 Bft) N 360 0 min 0,0 UV-I 11 W/m -3,4 C -3,9 C 14,5 km/h (3 Bft)
28.01.2023 09:17 -2,1 C -1,7 C 91 % 1030,1 hPa 0,0 l/m 9,7 km/h (2 Bft) N 360 0 min 0,0 UV-I 11 W/m -3,4 C -5,5 C 14,5 km/h (3 Bft)
28.01.2023 09:18 -2,0 C -1,7 C 91 % 1030,2 hPa 0,0 l/m 9,7 km/h (2 Bft) N 360 0 min 0,0 UV-I 11 W/m -3,3 C -5,4 C 12,9 km/h (3 Bft)
28.01.2023 09:19 -2,1 C -1,7 C 91 % 1030,2 hPa 0,0 l/m 9,7 km/h (2 Bft) N 360 0 min 0,0 UV-I 11 W/m -3,4 C -5,5 C 14,5 km/h (3 Bft)
28.01.2023 09:20 -2,0 C -1,7 C 91 % 1030,1 hPa 0,0 l/m 6,4 km/h (2 Bft) N-NO 22 0 min 0,0 UV-I 11 W/m -3,3 C -2,0 C 14,5 km/h (3 Bft)
28.01.2023 09:21 -2,1 C -1,7 C 91 % 1030,2 hPa 0,0 l/m 14,5 km/h (3 Bft) N 360 0 min 0,0 UV-I 11 W/m -3,4 C -9,2 C 20,9 km/h (4 Bft)
28.01.2023 09:22 -2,1 C -1,7 C 91 % 1030,2 hPa 0,0 l/m 17,7 km/h (3 Bft) N 360 0 min 0,0 UV-I 11 W/m -3,4 C -11,1 C 19,3 km/h (3 Bft)
28.01.2023 09:23 -2,1 C -2,2 C 91 % 1030,2 hPa 0,0 l/m 14,5 km/h (3 Bft) N 360 0 min 0,0 UV-I 11 W/m -3,4 C -9,2 C 17,7 km/h (3 Bft)
28.01.2023 09:24 -2,1 C -2,2 C 91 % 1030,2 hPa 0,0 l/m 12,9 km/h (3 Bft) N-NO 22 0 min 0,0 UV-I 11 W/m -3,4 C -8,1 C 19,3 km/h (3 Bft)
28.01.2023 09:25 -2,1 C -1,7 C 91 % 1030,2 hPa 0,0 l/m 12,9 km/h (3 Bft) N-NO 22 0 min 0,0 UV-I 12 W/m -3,4 C -8,1 C 14,5 km/h (3 Bft)
28.01.2023 09:26 -2,1 C -1,7 C 91 % 1030,2 hPa 0,0 l/m 11,3 km/h (2 Bft) N 360 0 min 0,0 UV-I 12 W/m -3,4 C -6,9 C 16,1 km/h (3 Bft)
28.01.2023 09:27 -2,1 C -1,7 C 91 % 1030,2 hPa 0,0 l/m 11,3 km/h (2 Bft) N-NO 22 0 min 0,0 UV-I 14 W/m -3,4 C -6,9 C 14,5 km/h (3 Bft)
28.01.2023 09:28 -2,1 C -1,7 C 91 % 1030,2 hPa 0,0 l/m 9,7 km/h (2 Bft) N 360 0 min 0,0 UV-I 14 W/m -3,4 C -5,5 C 12,9 km/h (3 Bft)
28.01.2023 09:29 -2,1 C -2,2 C 91 % 1030,1 hPa 0,0 l/m 11,3 km/h (2 Bft) N 360 0 min 0,0 UV-I 14 W/m -3,4 C -6,9 C 16,1 km/h (3 Bft)
28.01.2023 09:30 -2,1 C -1,7 C 91 % 1030,2 hPa 0,0 l/m 14,5 km/h (3 Bft) N-NO 22 0 min 0,0 UV-I 14 W/m -3,4 C -9,2 C 17,7 km/h (3 Bft)
28.01.2023 09:31 -2,1 C -1,7 C 91 % 1030,2 hPa 0,0 l/m 9,7 km/h (2 Bft) N-NO 22 0 min 0,0 UV-I 14 W/m -3,4 C -5,5 C 16,1 km/h (3 Bft)
28.01.2023 09:32 -2,1 C -1,7 C 91 % 1030,2 hPa 0,0 l/m 8,0 km/h (2 Bft) N-NO 22 0 min 0,0 UV-I 14 W/m -3,4 C -3,9 C 12,9 km/h (3 Bft)
28.01.2023 09:33 -2,1 C -1,7 C 91 % 1030,1 hPa 0,0 l/m 6,4 km/h (2 Bft) N-NO 22 0 min 0,0 UV-I 16 W/m -3,4 C -2,1 C 14,5 km/h (3 Bft)
28.01.2023 09:34 -2,1 C -1,7 C 91 % 1030,1 hPa 0,0 l/m 6,4 km/h (2 Bft) N 360 0 min 0,0 UV-I 18 W/m -3,4 C -2,1 C 9,7 km/h (2 Bft)
28.01.2023 09:35 -2,1 C -1,7 C 91 % 1030,2 hPa 0,0 l/m 8,0 km/h (2 Bft) N 360 0 min 0,0 UV-I 19 W/m -3,4 C -3,9 C 12,9 km/h (3 Bft)
28.01.2023 09:36 -2,1 C -1,7 C 91 % 1030,1 hPa 0,0 l/m 8,0 km/h (2 Bft) N 360 0 min 0,0 UV-I 21 W/m -3,4 C -3,9 C 14,5 km/h (3 Bft)
28.01.2023 09:37 -2,1 C -1,7 C 91 % 1030,2 hPa 0,0 l/m 12,9 km/h (3 Bft) N-NW 337 0 min 0,0 UV-I 23 W/m -3,4 C -8,1 C 19,3 km/h (3 Bft)
28.01.2023 09:38 -2,1 C -1,7 C 91 % 1030,2 hPa 0,0 l/m 11,3 km/h (2 Bft) N 360 0 min 0,0 UV-I 21 W/m -3,4 C -6,9 C 17,7 km/h (3 Bft)
28.01.2023 09:39 -2,1 C -1,7 C 91 % 1030,1 hPa 0,0 l/m 12,9 km/h (3 Bft) N 360 0 min 0,0 UV-I 19 W/m -3,4 C -8,1 C 16,1 km/h (3 Bft)
28.01.2023 09:40 -2,1 C -1,7 C 91 % 1030,1 hPa 0,0 l/m 12,9 km/h (3 Bft) N 360 0 min 0,0 UV-I 18 W/m -3,4 C -8,1 C 14,5 km/h (3 Bft)
28.01.2023 09:41 -2,1 C -1,7 C 91 % 1030,1 hPa 0,0 l/m 9,7 km/h (2 Bft) N 360 0 min 0,0 UV-I 16 W/m -3,4 C -5,5 C 12,9 km/h (3 Bft)
28.01.2023 09:42 -2,1 C -1,7 C 91 % 1030,2 hPa 0,0 l/m 9,7 km/h (2 Bft) N 360 0 min 0,0 UV-I 16 W/m -3,4 C -5,5 C 16,1 km/h (3 Bft)
28.01.2023 09:43 -2,1 C -1,7 C 91 % 1030,2 hPa 0,0 l/m 14,5 km/h (3 Bft) N 360 0 min 0,0 UV-I 16 W/m -3,4 C -9,2 C 17,7 km/h (3 Bft)
28.01.2023 09:44 -2,1 C -1,7 C 91 % 1030,2 hPa 0,0 l/m 14,5 km/h (3 Bft) N 360 0 min 0,0 UV-I 16 W/m -3,4 C -9,2 C 17,7 km/h (3 Bft)
28.01.2023 09:45 -2,1 C -2,2 C 91 % 1030,3 hPa 0,0 l/m 8,0 km/h (2 Bft) N 360 0 min 0,0 UV-I 18 W/m -3,4 C -3,9 C 14,5 km/h (3 Bft)
28.01.2023 09:46 -2,1 C -2,2 C 91 % 1030,2 hPa 0,0 l/m 16,1 km/h (3 Bft) N 360 0 min 0,0 UV-I 18 W/m -3,4 C -10,2 C 19,3 km/h (3 Bft)
28.01.2023 09:47 -2,1 C -2,2 C 91 % 1030,2 hPa 0,0 l/m 12,9 km/h (3 Bft) N 360 0 min 0,0 UV-I 19 W/m -3,4 C -8,1 C 16,1 km/h (3 Bft)
28.01.2023 09:48 -2,1 C -2,2 C 90 % 1030,2 hPa 0,0 l/m 8,0 km/h (2 Bft) N 360 0 min 0,0 UV-I 20 W/m -3,5 C -3,9 C 11,3 km/h (2 Bft)
28.01.2023 09:49 -2,1 C -2,2 C 90 % 1030,2 hPa 0,0 l/m 8,0 km/h (2 Bft) N 360 0 min 0,0 UV-I 25 W/m -3,5 C -3,9 C 12,9 km/h (3 Bft)
28.01.2023 09:50 -2,1 C -2,2 C 90 % 1030,2 hPa 0,0 l/m 9,7 km/h (2 Bft) N 360 0 min 0,0 UV-I 30 W/m -3,5 C -5,5 C 14,5 km/h (3 Bft)
28.01.2023 09:51 -2,2 C -1,7 C 90 % 1030,3 hPa 0,0 l/m 14,5 km/h (3 Bft) N-NW 337 0 min 0,0 UV-I 40 W/m -3,6 C -9,3 C 17,7 km/h (3 Bft)
28.01.2023 09:54 -2,1 C -1,7 C 90 % 1030,3 hPa 0,0 l/m 8,8 km/h (2 Bft) N 9 0 min 0,0 UV-I 62 W/m -3,5 C -4,7 C 14,5 km/h (3 Bft)
28.01.2023 09:57 -2,1 C -1,7 C 90 % 1030,2 hPa 0,0 l/m 13,3 km/h (3 Bft) N-NW 347 0 min 0,0 UV-I 61 W/m -3,5 C -8,4 C 17,7 km/h (3 Bft)
28.01.2023 10:00 -2,1 C -1,7 C 90 % 1030,2 hPa 0,0 l/m 15,0 km/h (3 Bft) N 5 0 min 0,0 UV-I 64 W/m -3,5 C -9,5 C 19,3 km/h (3 Bft)
28.01.2023 10:03 -2,1 C -1,7 C 90 % 1030,3 hPa 0,0 l/m 13,1 km/h (3 Bft) N 351 0 min 0,0 UV-I 63 W/m -3,5 C -8,2 C 17,7 km/h (3 Bft)
28.01.2023 10:06 -2,1 C -1,7 C 90 % 1030,4 hPa 0,0 l/m 13,4 km/h (3 Bft) N-NW 342 0 min 0,0 UV-I 69 W/m -3,5 C -8,5 C 17,7 km/h (3 Bft)
28.01.2023 10:09 -2,0 C -1,7 C 90 % 1030,4 hPa 0,0 l/m 12,2 km/h (2 Bft) NO 43 0 min 0,0 UV-I 73 W/m -3,4 C -7,5 C 19,3 km/h (3 Bft)
28.01.2023 10:12 -2,0 C -1,1 C 90 % 1030,5 hPa 0,0 l/m 12,9 km/h (3 Bft) N-NW 341 0 min 0,0 UV-I 73 W/m -3,4 C -8,0 C 20,9 km/h (4 Bft)
28.01.2023 10:15 -2,0 C -1,7 C 89 % 1030,5 hPa 0,0 l/m 12,9 km/h (3 Bft) N 360 0 min 0,0 UV-I 69 W/m -3,6 C -8,0 C 19,3 km/h (3 Bft)
28.01.2023 10:18 -2,0 C -1,1 C 89 % 1030,6 hPa 0,0 l/m 13,6 km/h (3 Bft) N-NO 30 0 min 0,0 UV-I 74 W/m -3,6 C -8,5 C 17,7 km/h (3 Bft)
28.01.2023 10:21 -1,9 C -1,1 C 89 % 1030,6 hPa 0,0 l/m 11,9 km/h (2 Bft) N-NO 28 0 min 0,0 UV-I 76 W/m -3,5 C -7,1 C 19,3 km/h (3 Bft)
28.01.2023 10:24 -1,9 C -1,1 C 89 % 1030,6 hPa 0,0 l/m 10,4 km/h (2 Bft) N 355 0 min 0,0 UV-I 75 W/m -3,5 C -5,9 C 16,1 km/h (3 Bft)
28.01.2023 10:27 -1,9 C -1,1 C 89 % 1030,8 hPa 0,0 l/m 10,9 km/h (2 Bft) N-NO 30 0 min 0,0 UV-I 66 W/m -3,5 C -6,3 C 17,7 km/h (3 Bft)
28.01.2023 10:28 -1,9 C -1,1 C 89 % 1030,8 hPa 0,0 l/m 11,3 km/h (2 Bft) N-NO 22 0 min 0,0 UV-I 69 W/m -3,5 C -6,6 C 16,1 km/h (3 Bft)
28.01.2023 10:29 -1,9 C -1,1 C 89 % 1030,8 hPa 0,0 l/m 12,9 km/h (3 Bft) N-NO 22 0 min 0,0 UV-I 73 W/m -3,5 C -7,9 C 16,1 km/h (3 Bft)
28.01.2023 10:30 -1,9 C -1,1 C 89 % 1030,8 hPa 0,0 l/m 11,3 km/h (2 Bft) N-NO 22 0 min 0,0 UV-I 72 W/m -3,5 C -6,6 C 14,5 km/h (3 Bft)
28.01.2023 10:31 -1,9 C -1,1 C 89 % 1030,8 hPa 0,0 l/m 8,0 km/h (2 Bft) N-NO 22 0 min 0,0 UV-I 63 W/m -3,5 C -3,6 C 12,9 km/h (3 Bft)
28.01.2023 10:32 -1,9 C -1,1 C 89 % 1030,9 hPa 0,0 l/m 9,7 km/h (2 Bft) N-NO 22 0 min 0,0 UV-I 60 W/m -3,5 C -5,3 C 12,9 km/h (3 Bft)
28.01.2023 10:36 -1,9 C -1,1 C 89 % 1030,8 hPa 0,0 l/m 6,5 km/h (2 Bft) N-NO 24 0 min 0,0 UV-I 70 W/m -3,5 C -2,0 C 11,3 km/h (2 Bft)
28.01.2023 10:39 -1,9 C -1,1 C 89 % 1030,8 hPa 0,0 l/m 9,3 km/h (2 Bft) NO 46 0 min 0,0 UV-I 75 W/m -3,5 C -4,9 C 16,1 km/h (3 Bft)
28.01.2023 10:42 -1,9 C -1,1 C 89 % 1030,8 hPa 0,0 l/m 9,6 km/h (2 Bft) NO 47 0 min 0,0 UV-I 80 W/m -3,5 C -5,2 C 16,1 km/h (3 Bft)
28.01.2023 10:45 -1,8 C -1,1 C 88 % 1030,8 hPa 0,0 l/m 10,3 km/h (2 Bft) N-NO 24 0 min 0,0 UV-I 81 W/m -3,5 C -5,7 C 19,3 km/h (3 Bft)
28.01.2023 10:48 -1,8 C -1,1 C 88 % 1031,0 hPa 0,0 l/m 8,7 km/h (2 Bft) N-NO 13 0 min 0,0 UV-I 77 W/m -3,5 C -4,2 C 14,5 km/h (3 Bft)
28.01.2023 10:51 -1,8 C -0,6 C 88 % 1031,0 hPa 0,0 l/m 7,3 km/h (2 Bft) N-NO 22 0 min 0,0 UV-I 78 W/m -3,5 C -2,8 C 14,5 km/h (3 Bft)
28.01.2023 10:54 -1,8 C -0,6 C 88 % 1031,0 hPa 0,0 l/m 5,1 km/h (1 Bft) N 5 0 min 0,0 UV-I 76 W/m -3,5 C -1,8 C 12,9 km/h (3 Bft)
28.01.2023 10:57 -1,8 C -0,6 C 89 % 1031,1 hPa 0,0 l/m 4,7 km/h (1 Bft) N 10 0 min 0,0 UV-I 70 W/m -3,4 C -1,8 C 8,0 km/h (2 Bft)
28.01.2023 11:00 -1,8 C -0,6 C 89 % 1031,2 hPa 0,0 l/m 7,2 km/h (2 Bft) N 350 0 min 0,0 UV-I 75 W/m -3,4 C -2,7 C 12,9 km/h (3 Bft)
28.01.2023 11:03 -1,7 C -0,6 C 88 % 1031,2 hPa 0,0 l/m 6,5 km/h (2 Bft) N 5 0 min 0,0 UV-I 73 W/m -3,4 C -1,8 C 9,7 km/h (2 Bft)
28.01.2023 11:06 -1,7 C -0,6 C 88 % 1031,3 hPa 0,0 l/m 6,3 km/h (2 Bft) N 355 0 min 0,0 UV-I 72 W/m -3,4 C -1,7 C 11,3 km/h (2 Bft)
28.01.2023 11:09 -1,8 C -1,1 C 88 % 1031,3 hPa 0,0 l/m 12,4 km/h (3 Bft) N 355 0 min 0,0 UV-I 73 W/m -3,5 C -7,4 C 17,7 km/h (3 Bft)
28.01.2023 11:12 -1,8 C -1,1 C 88 % 1031,4 hPa 0,0 l/m 12,5 km/h (3 Bft) N-NW 348 0 min 0,0 UV-I 75 W/m -3,5 C -7,4 C 17,7 km/h (3 Bft)
28.01.2023 11:15 -1,9 C -1,1 C 88 % 1031,2 hPa 0,0 l/m 11,3 km/h (2 Bft) N-NW 345 0 min 0,0 UV-I 75 W/m -3,6 C -6,6 C 19,3 km/h (3 Bft)
28.01.2023 11:18 -1,9 C -1,1 C 88 % 1031,2 hPa 0,0 l/m 11,2 km/h (2 Bft) N-NW 340 0 min 0,0 UV-I 81 W/m -3,6 C -6,6 C 19,3 km/h (3 Bft)
28.01.2023 11:21 -1,8 C -1,1 C 88 % 1031,1 hPa 0,0 l/m 8,4 km/h (2 Bft) N 355 0 min 0,5 UV-I 93 W/m -3,5 C -3,9 C 12,9 km/h (3 Bft)
28.01.2023 11:24 -1,8 C -0,6 C 88 % 1031,1 hPa 0,0 l/m 6,1 km/h (2 Bft) N 355 0 min 0,5 UV-I 93 W/m -3,5 C -1,8 C 8,0 km/h (2 Bft)
28.01.2023 11:27 -1,8 C -0,6 C 88 % 1031,2 hPa 0,0 l/m 6,8 km/h (2 Bft) N-NW 343 0 min 0,5 UV-I 92 W/m -3,5 C -2,2 C 12,9 km/h (3 Bft)
28.01.2023 11:30 -1,8 C -0,6 C 88 % 1031,2 hPa 0,0 l/m 11,5 km/h (2 Bft) N 355 0 min 0,5 UV-I 99 W/m -3,5 C -6,7 C 16,1 km/h (3 Bft)
28.01.2023 11:33 -1,9 C -1,1 C 88 % 1031,2 hPa 0,0 l/m 13,1 km/h (3 Bft) N-NW 342 0 min 0,5 UV-I 100 W/m -3,6 C -8,0 C 20,9 km/h (4 Bft)
28.01.2023 11:36 -1,8 C -1,1 C 88 % 1031,2 hPa 0,0 l/m 10,0 km/h (2 Bft) N 5 0 min 0,5 UV-I 103 W/m -3,5 C -5,4 C 14,5 km/h (3 Bft)
28.01.2023 11:39 -1,8 C -0,6 C 88 % 1031,1 hPa 0,0 l/m 7,8 km/h (2 Bft) N 360 0 min 0,5 UV-I 108 W/m -3,5 C -3,3 C 14,5 km/h (3 Bft)
28.01.2023 11:42 -1,7 C -0,6 C 87 % 1031,2 hPa 0,0 l/m 7,7 km/h (2 Bft) N-NO 16 0 min 0,5 UV-I 104 W/m -3,6 C -3,1 C 14,5 km/h (3 Bft)
28.01.2023 11:45 -1,8 C -0,6 C 87 % 1031,2 hPa 0,0 l/m 11,5 km/h (2 Bft) N 355 0 min 0,5 UV-I 96 W/m -3,7 C -6,7 C 16,1 km/h (3 Bft)
28.01.2023 11:48 -1,7 C -0,6 C 87 % 1031,2 hPa 0,0 l/m 9,5 km/h (2 Bft) N 5 0 min 0,5 UV-I 101 W/m -3,6 C -4,9 C 14,5 km/h (3 Bft)
28.01.2023 11:51 -1,8 C -0,6 C 88 % 1031,2 hPa 0,0 l/m 7,8 km/h (2 Bft) N-NO 14 0 min 0,6 UV-I 105 W/m -3,5 C -3,3 C 14,5 km/h (3 Bft)
28.01.2023 11:54 -1,8 C -0,6 C 87 % 1031,4 hPa 0,0 l/m 10,6 km/h (2 Bft) NO 36 0 min 0,6 UV-I 110 W/m -3,7 C -6,0 C 16,1 km/h (3 Bft)
28.01.2023 11:57 -1,8 C -0,6 C 87 % 1031,1 hPa 0,0 l/m 9,7 km/h (2 Bft) N-NO 14 0 min 0,6 UV-I 95 W/m -3,7 C -5,2 C 16,1 km/h (3 Bft)
28.01.2023 12:00 -1,8 C -0,6 C 87 % 1031,3 hPa 0,0 l/m 10,8 km/h (2 Bft) N-NO 19 0 min 0,6 UV-I 118 W/m -3,7 C -6,1 C 17,7 km/h (3 Bft)
28.01.2023 12:03 -1,8 C -0,6 C 87 % 1031,3 hPa 0,0 l/m 11,8 km/h (2 Bft) N-NO 17 0 min 0,6 UV-I 117 W/m -3,7 C -6,9 C 16,1 km/h (3 Bft)
28.01.2023 12:06 -1,8 C -0,6 C 87 % 1031,2 hPa 0,0 l/m 10,6 km/h (2 Bft) N-NO 13 0 min 0,6 UV-I 100 W/m -3,7 C -6,0 C 17,7 km/h (3 Bft)
28.01.2023 12:09 -1,8 C -0,6 C 87 % 1031,3 hPa 0,0 l/m 7,9 km/h (2 Bft) N-NO 24 0 min 0,6 UV-I 97 W/m -3,7 C -3,4 C 12,9 km/h (3 Bft)
28.01.2023 12:12 -1,8 C -0,6 C 86 % 1031,3 hPa 0,0 l/m 9,2 km/h (2 Bft) N 5 0 min 0,6 UV-I 77 W/m -3,8 C -4,7 C 16,1 km/h (3 Bft)
28.01.2023 12:15 -1,8 C -0,6 C 86 % 1031,4 hPa 0,0 l/m 12,1 km/h (2 Bft) NO 36 0 min 0,7 UV-I 119 W/m -3,8 C -7,2 C 19,3 km/h (3 Bft)
28.01.2023 12:18 -1,8 C -0,6 C 86 % 1031,3 hPa 0,0 l/m 7,6 km/h (2 Bft) N 11 0 min 0,7 UV-I 138 W/m -3,8 C -3,1 C 14,5 km/h (3 Bft)
28.01.2023 12:21 -1,8 C -0,6 C 86 % 1031,3 hPa 0,0 l/m 7,1 km/h (2 Bft) N 9 0 min 0,6 UV-I 121 W/m -3,8 C -2,6 C 14,5 km/h (3 Bft)
28.01.2023 12:24 -1,8 C -0,6 C 86 % 1031,2 hPa 0,0 l/m 9,0 km/h (2 Bft) N-NO 28 0 min 0,6 UV-I 120 W/m -3,8 C -4,5 C 14,5 km/h (3 Bft)
28.01.2023 12:27 -1,8 C -0,6 C 86 % 1031,3 hPa 0,0 l/m 8,3 km/h (2 Bft) N-NW 348 0 min 0,6 UV-I 114 W/m -3,8 C -3,8 C 14,5 km/h (3 Bft)
28.01.2023 12:30 -1,8 C -0,6 C 86 % 1031,2 hPa 0,0 l/m 9,2 km/h (2 Bft) N-NO 14 0 min 0,6 UV-I 100 W/m -3,8 C -4,7 C 16,1 km/h (3 Bft)
28.01.2023 12:33 -1,8 C 0,0 C 86 % 1031,0 hPa 0,0 l/m 6,2 km/h (2 Bft) N-NO 20 0 min 0,7 UV-I 122 W/m -3,8 C -1,8 C 11,3 km/h (2 Bft)
28.01.2023 12:36 -1,8 C 0,0 C 86 % 1031,0 hPa 0,0 l/m 7,7 km/h (2 Bft) N 5 0 min 0,7 UV-I 127 W/m -3,8 C -3,2 C 12,9 km/h (3 Bft)
28.01.2023 12:39 -1,7 C 0,0 C 86 % 1030,8 hPa 0,0 l/m 3,9 km/h (1 Bft) N 5 0 min 0,7 UV-I 133 W/m -3,7 C -1,7 C 8,0 km/h (2 Bft)
28.01.2023 12:42 -1,6 C 0,6 C 87 % 1030,9 hPa 0,0 l/m 5,1 km/h (1 Bft) N-NO 17 0 min 0,7 UV-I 135 W/m -3,5 C -1,6 C 8,0 km/h (2 Bft)
28.01.2023 12:45 -1,7 C 0,6 C 86 % 1030,8 hPa 0,0 l/m 6,1 km/h (2 Bft) N-NO 19 0 min 0,7 UV-I 141 W/m -3,7 C -1,7 C 11,3 km/h (2 Bft)
28.01.2023 12:48 -1,7 C 0,0 C 86 % 1030,7 hPa 0,0 l/m 6,3 km/h (2 Bft) N-NW 348 0 min 0,7 UV-I 131 W/m -3,7 C -1,7 C 12,9 km/h (3 Bft)
28.01.2023 12:51 -1,7 C 0,0 C 86 % 1030,9 hPa 0,0 l/m 6,5 km/h (2 Bft) N-NO 19 0 min 0,8 UV-I 149 W/m -3,7 C -1,8 C 12,9 km/h (3 Bft)
28.01.2023 12:54 -1,6 C 0,0 C 86 % 1031,0 hPa 0,0 l/m 4,7 km/h (1 Bft) N 11 0 min 0,7 UV-I 139 W/m -3,6 C -1,6 C 8,0 km/h (2 Bft)
28.01.2023 12:57 -1,6 C 0,0 C 86 % 1031,0 hPa 0,0 l/m 9,8 km/h (2 Bft) N-NO 22 0 min 0,7 UV-I 137 W/m -3,6 C -5,0 C 17,7 km/h (3 Bft)
28.01.2023 13:00 -1,7 C 0,0 C 85 % 1030,9 hPa 0,0 l/m 11,2 km/h (2 Bft) N 355 0 min 0,7 UV-I 136 W/m -3,9 C -6,3 C 16,1 km/h (3 Bft)
28.01.2023 13:03 -1,8 C 0,0 C 85 % 1031,0 hPa 0,0 l/m 12,4 km/h (3 Bft) N-NW 343 0 min 0,8 UV-I 149 W/m -4,0 C -7,4 C 17,7 km/h (3 Bft)
28.01.2023 13:06 -1,8 C -0,6 C 84 % 1030,9 hPa 0,0 l/m 12,6 km/h (3 Bft) N-NO 12 0 min 0,8 UV-I 149 W/m -4,1 C -7,5 C 17,7 km/h (3 Bft)
28.01.2023 13:09 -1,8 C 0,0 C 84 % 1030,9 hPa 0,0 l/m 10,9 km/h (2 Bft) N 5 0 min 0,8 UV-I 146 W/m -4,1 C -6,2 C 16,1 km/h (3 Bft)
28.01.2023 13:12 -1,8 C 0,0 C 85 % 1030,7 hPa 0,0 l/m 7,8 km/h (2 Bft) N-NO 24 0 min 0,8 UV-I 144 W/m -4,0 C -3,3 C 14,5 km/h (3 Bft)
28.01.2023 13:15 -1,8 C 0,0 C 85 % 1030,7 hPa 0,0 l/m 6,7 km/h (2 Bft) NO 38 0 min 0,8 UV-I 147 W/m -4,0 C -2,1 C 12,9 km/h (3 Bft)
28.01.2023 13:18 -1,7 C 0,0 C 85 % 1030,7 hPa 0,0 l/m 7,0 km/h (2 Bft) N 10 0 min 0,7 UV-I 145 W/m -3,9 C -2,4 C 11,3 km/h (2 Bft)
28.01.2023 13:21 -1,7 C 0,0 C 85 % 1030,7 hPa 0,0 l/m 12,8 km/h (3 Bft) N 5 0 min 0,7 UV-I 137 W/m -3,9 C -7,6 C 19,3 km/h (3 Bft)
28.01.2023 13:24 -1,8 C -0,6 C 85 % 1030,7 hPa 0,0 l/m 12,7 km/h (3 Bft) N-NW 339 0 min 0,7 UV-I 140 W/m -4,0 C -7,6 C 16,1 km/h (3 Bft)
28.01.2023 13:27 -1,8 C -0,6 C 85 % 1030,8 hPa 0,0 l/m 12,4 km/h (3 Bft) N-NW 346 0 min 0,7 UV-I 131 W/m -4,0 C -7,4 C 17,7 km/h (3 Bft)
28.01.2023 13:30 -1,8 C -0,6 C 85 % 1030,8 hPa 0,0 l/m 7,8 km/h (2 Bft) N-NW 348 0 min 0,7 UV-I 139 W/m -4,0 C -3,3 C 14,5 km/h (3 Bft)
28.01.2023 13:33 -1,8 C -0,6 C 85 % 1030,8 hPa 0,0 l/m 11,6 km/h (2 Bft) N 360 0 min 0,7 UV-I 143 W/m -4,0 C -6,8 C 17,7 km/h (3 Bft)
28.01.2023 13:36 -1,8 C 0,0 C 85 % 1030,7 hPa 0,0 l/m 7,0 km/h (2 Bft) N-NW 348 0 min 0,7 UV-I 150 W/m -4,0 C -2,5 C 9,7 km/h (2 Bft)
28.01.2023 13:39 -1,8 C 0,0 C 85 % 1030,9 hPa 0,0 l/m 11,5 km/h (2 Bft) W-NW 303 0 min 0,7 UV-I 156 W/m -4,0 C -6,7 C 20,9 km/h (4 Bft)
28.01.2023 13:42 -1,8 C -0,6 C 85 % 1030,9 hPa 0,0 l/m 11,6 km/h (2 Bft) N-NW 347 0 min 0,6 UV-I 137 W/m -4,0 C -6,8 C 16,1 km/h (3 Bft)
28.01.2023 13:45 -1,8 C -0,6 C 85 % 1030,9 hPa 0,0 l/m 10,1 km/h (2 Bft) N 5 0 min 0,6 UV-I 120 W/m -4,0 C -5,5 C 17,7 km/h (3 Bft)
28.01.2023 13:48 -1,9 C -0,6 C 85 % 1030,8 hPa 0,0 l/m 9,0 km/h (2 Bft) N 11 0 min 0,6 UV-I 121 W/m -4,1 C -4,6 C 16,1 km/h (3 Bft)
28.01.2023 13:51 -1,9 C -0,6 C 85 % 1030,9 hPa 0,0 l/m 10,4 km/h (2 Bft) N-NO 24 0 min 0,6 UV-I 104 W/m -4,1 C -5,9 C 17,7 km/h (3 Bft)
28.01.2023 13:54 -1,9 C -0,6 C 85 % 1030,9 hPa 0,0 l/m 14,1 km/h (3 Bft) N-NO 26 0 min 0,5 UV-I 92 W/m -4,1 C -8,7 C 20,9 km/h (4 Bft)
28.01.2023 13:57 -2,0 C -1,1 C 85 % 1030,9 hPa 0,0 l/m 8,5 km/h (2 Bft) N 355 0 min 0,5 UV-I 91 W/m -4,2 C -4,3 C 16,1 km/h (3 Bft)
28.01.2023 14:00 -2,0 C -0,6 C 85 % 1030,8 hPa 0,0 l/m 5,8 km/h (2 Bft) N 9 0 min 0,5 UV-I 93 W/m -4,2 C -2,0 C 9,7 km/h (2 Bft)
28.01.2023 14:03 -1,9 C -0,6 C 85 % 1030,8 hPa 0,0 l/m 8,1 km/h (2 Bft) N 360 0 min 0,5 UV-I 97 W/m -4,1 C -3,7 C 14,5 km/h (3 Bft)
28.01.2023 14:06 -2,0 C -1,1 C 85 % 1030,7 hPa 0,0 l/m 8,8 km/h (2 Bft) N-NO 21 0 min 0,6 UV-I 98 W/m -4,2 C -4,5 C 14,5 km/h (3 Bft)
28.01.2023 14:09 -2,0 C -0,6 C 85 % 1030,8 hPa 0,0 l/m 9,2 km/h (2 Bft) N-NO 26 0 min 0,6 UV-I 111 W/m -4,2 C -4,9 C 16,1 km/h (3 Bft)
28.01.2023 14:12 -2,1 C -0,6 C 85 % 1030,7 hPa 0,0 l/m 14,3 km/h (3 Bft) N-NO 23 0 min 0,6 UV-I 113 W/m -4,3 C -9,1 C 22,5 km/h (4 Bft)
28.01.2023 14:15 -2,2 C -1,1 C 85 % 1030,6 hPa 0,0 l/m 13,7 km/h (3 Bft) N-NO 15 0 min 0,6 UV-I 118 W/m -4,4 C -8,8 C 20,9 km/h (4 Bft)
28.01.2023 14:18 -2,2 C -0,6 C 85 % 1030,7 hPa 0,0 l/m 7,7 km/h (2 Bft) N-NO 15 0 min 0,7 UV-I 116 W/m -4,4 C -3,6 C 14,5 km/h (3 Bft)
28.01.2023 14:21 -2,2 C -0,6 C 85 % 1030,8 hPa 0,0 l/m 12,3 km/h (3 Bft) N-NO 14 0 min 0,6 UV-I 118 W/m -4,4 C -7,8 C 19,3 km/h (3 Bft)
28.01.2023 14:24 -2,2 C -0,6 C 85 % 1030,8 hPa 0,0 l/m 9,5 km/h (2 Bft) N-NO 12 0 min 0,6 UV-I 122 W/m -4,4 C -5,4 C 17,7 km/h (3 Bft)
28.01.2023 14:27 -2,3 C -1,1 C 85 % 1030,8 hPa 0,0 l/m 14,7 km/h (3 Bft) N 355 0 min 0,6 UV-I 124 W/m -4,5 C -9,6 C 20,9 km/h (4 Bft)
28.01.2023 14:30 -2,3 C -1,1 C 84 % 1030,8 hPa 0,0 l/m 16,4 km/h (3 Bft) N-NW 344 0 min 0,7 UV-I 139 W/m -4,6 C -10,6 C 22,5 km/h (4 Bft)
28.01.2023 14:33 -2,4 C -1,1 C 84 % 1031,0 hPa 0,0 l/m 17,4 km/h (3 Bft) N-NW 348 0 min 0,6 UV-I 124 W/m -4,7 C -11,3 C 22,5 km/h (4 Bft)
28.01.2023 14:36 -2,4 C -1,7 C 85 % 1031,1 hPa 0,0 l/m 16,4 km/h (3 Bft) N 355 0 min 0,5 UV-I 112 W/m -4,6 C -10,8 C 22,5 km/h (4 Bft)
28.01.2023 14:39 -2,5 C -1,7 C 85 % 1031,1 hPa 0,0 l/m 14,6 km/h (3 Bft) N 5 0 min 0,5 UV-I 112 W/m -4,7 C -9,7 C 19,3 km/h (3 Bft)
28.01.2023 14:42 -2,5 C -1,7 C 85 % 1031,0 hPa 0,0 l/m 14,4 km/h (3 Bft) N-NW 344 0 min 0,5 UV-I 102 W/m -4,7 C -9,6 C 24,1 km/h (4 Bft)
28.01.2023 14:45 -2,6 C -1,7 C 85 % 1031,1 hPa 0,0 l/m 16,0 km/h (3 Bft) N-NO 22 0 min 0,5 UV-I 94 W/m -4,8 C -10,8 C 24,1 km/h (4 Bft)
28.01.2023 14:48 -2,5 C -1,1 C 85 % 1030,9 hPa 0,0 l/m 9,2 km/h (2 Bft) N-NO 26 0 min 0,5 UV-I 82 W/m -4,7 C -5,5 C 20,9 km/h (4 Bft)
28.01.2023 14:51 -2,5 C -1,1 C 85 % 1030,8 hPa 0,0 l/m 14,3 km/h (3 Bft) N-NO 17 0 min 0,5 UV-I 88 W/m -4,7 C -9,5 C 20,9 km/h (4 Bft)
28.01.2023 14:54 -2,6 C -1,1 C 85 % 1030,8 hPa 0,0 l/m 17,0 km/h (3 Bft) N-NO 30 0 min 0,5 UV-I 103 W/m -4,8 C -11,4 C 24,1 km/h (4 Bft)
28.01.2023 14:57 -2,6 C -1,1 C 85 % 1030,7 hPa 0,0 l/m 13,8 km/h (3 Bft) N-NO 20 0 min 0,5 UV-I 105 W/m -4,8 C -9,3 C 20,9 km/h (4 Bft)
28.01.2023 15:00 -2,6 C -1,1 C 85 % 1030,8 hPa 0,0 l/m 9,8 km/h (2 Bft) N-NO 22 0 min 0,6 UV-I 107 W/m -4,8 C -6,1 C 16,1 km/h (3 Bft)
28.01.2023 15:03 -2,6 C -1,1 C 85 % 1030,7 hPa 0,0 l/m 9,8 km/h (2 Bft) N 355 0 min 0,6 UV-I 115 W/m -4,8 C -6,1 C 16,1 km/h (3 Bft)
28.01.2023 15:09 -2,6 C -1,1 C 84 % 1030,8 hPa 0,0 l/m 11,1 km/h (2 Bft) N 355 0 min 0,6 UV-I 132 W/m -4,9 C -7,3 C 17,7 km/h (3 Bft)
28.01.2023 15:12 -2,6 C -1,1 C 84 % 1030,8 hPa 0,0 l/m 11,1 km/h (2 Bft) N-NW 336 0 min 0,5 UV-I 135 W/m -4,9 C -7,3 C 16,1 km/h (3 Bft)
28.01.2023 15:15 -2,6 C -1,1 C 84 % 1030,9 hPa 0,0 l/m 8,0 km/h (2 Bft) N-NW 332 0 min 0,5 UV-I 119 W/m -4,9 C -4,4 C 12,9 km/h (3 Bft)
28.01.2023 15:18 -2,6 C -1,1 C 84 % 1030,8 hPa 0,0 l/m 10,1 km/h (2 Bft) N-NW 343 0 min 0,5 UV-I 125 W/m -4,9 C -6,4 C 16,1 km/h (3 Bft)
28.01.2023 15:21 -2,6 C -1,1 C 84 % 1030,8 hPa 0,0 l/m 11,6 km/h (2 Bft) N-NW 339 0 min 0,5 UV-I 118 W/m -4,9 C -7,7 C 16,1 km/h (3 Bft)
28.01.2023 15:24 -2,6 C -1,1 C 84 % 1030,9 hPa 0,0 l/m 8,2 km/h (2 Bft) N 5 0 min 0,5 UV-I 112 W/m -4,9 C -4,6 C 14,5 km/h (3 Bft)
28.01.2023 15:27 -2,6 C -0,6 C 84 % 1030,6 hPa 0,0 l/m 4,9 km/h (1 Bft) N 350 0 min 0,5 UV-I 115 W/m -4,9 C -2,6 C 8,0 km/h (2 Bft)
28.01.2023 15:30 -2,6 C -0,6 C 84 % 1030,5 hPa 0,0 l/m 5,2 km/h (1 Bft) N 9 0 min 0,5 UV-I 114 W/m -4,9 C -2,6 C 9,7 km/h (2 Bft)
28.01.2023 15:33 -2,5 C -0,6 C 85 % 1030,4 hPa 0,0 l/m 2,8 km/h (1 Bft) N-NO 18 0 min 0,5 UV-I 122 W/m -4,7 C -2,5 C 4,8 km/h (1 Bft)
28.01.2023 15:36 -2,6 C -1,1 C 85 % 1030,3 hPa 0,0 l/m 3,6 km/h (1 Bft) O-NO 75 0 min 0,5 UV-I 124 W/m -4,8 C -2,6 C 8,0 km/h (2 Bft)
28.01.2023 15:39 -2,6 C -1,1 C 85 % 1030,2 hPa 0,0 l/m 5,7 km/h (1 Bft) NO 49 0 min 0,5 UV-I 119 W/m -4,8 C -2,6 C 9,7 km/h (2 Bft)
28.01.2023 15:42 -2,7 C -1,1 C 85 % 1030,5 hPa 0,0 l/m 5,9 km/h (2 Bft) NO 42 0 min 0,5 UV-I 99 W/m -4,9 C -2,7 C 9,7 km/h (2 Bft)
28.01.2023 15:45 -2,7 C -1,1 C 85 % 1030,5 hPa 0,0 l/m 3,6 km/h (1 Bft) NO 41 0 min 0,0 UV-I 93 W/m -4,9 C -2,7 C 8,0 km/h (2 Bft)
28.01.2023 15:48 -2,7 C 0,0 C 85 % 1030,5 hPa 0,0 l/m 1,7 km/h (1 Bft) NO 53 0 min 0,3 UV-I 152 W/m -4,9 C -2,7 C 4,8 km/h (1 Bft)
28.01.2023 15:51 -2,6 C 0,0 C 85 % 1030,5 hPa 0,0 l/m 4,6 km/h (1 Bft) N-NO 28 0 min 0,5 UV-I 210 W/m -4,8 C -2,6 C 8,0 km/h (2 Bft)
28.01.2023 15:54 -2,5 C 0,0 C 84 % 1030,6 hPa 0,0 l/m 5,9 km/h (2 Bft) NO 40 0 min 0,2 UV-I 155 W/m -4,8 C -2,5 C 8,0 km/h (2 Bft)
28.01.2023 15:57 -2,6 C 0,0 C 84 % 1030,7 hPa 0,0 l/m 4,8 km/h (1 Bft) NO 40 0 min 0,0 UV-I 111 W/m -4,9 C -2,6 C 8,0 km/h (2 Bft)
28.01.2023 16:00 -2,7 C -0,6 C 84 % 1030,9 hPa 0,0 l/m 4,5 km/h (1 Bft) NO 38 0 min 0,0 UV-I 92 W/m -5,0 C -2,7 C 8,0 km/h (2 Bft)
28.01.2023 16:03 -2,7 C -1,1 C 85 % 1030,8 hPa 0,0 l/m 5,2 km/h (1 Bft) N 350 0 min 0,0 UV-I 73 W/m -4,9 C -2,7 C 8,0 km/h (2 Bft)
28.01.2023 16:06 -2,7 C -1,1 C 85 % 1030,8 hPa 0,0 l/m 6,0 km/h (2 Bft) N-NW 348 0 min 0,0 UV-I 74 W/m -4,9 C -2,7 C 9,7 km/h (2 Bft)
28.01.2023 16:09 -2,8 C -1,7 C 85 % 1030,8 hPa 0,0 l/m 7,7 km/h (2 Bft) N-NW 345 0 min 0,0 UV-I 66 W/m -5,0 C -4,3 C 12,9 km/h (3 Bft)
28.01.2023 16:12 -2,8 C -2,2 C 85 % 1030,9 hPa 0,0 l/m 7,6 km/h (2 Bft) N-NW 329 0 min 0,0 UV-I 58 W/m -5,0 C -4,2 C 14,5 km/h (3 Bft)
28.01.2023 16:15 -2,8 C -1,7 C 86 % 1031,1 hPa 0,0 l/m 3,1 km/h (1 Bft) N-NW 329 0 min 0,0 UV-I 56 W/m -4,8 C -2,8 C 8,0 km/h (2 Bft)
28.01.2023 16:18 -2,9 C -2,2 C 86 % 1031,2 hPa 0,0 l/m 4,5 km/h (1 Bft) N-NW 348 0 min 0,0 UV-I 47 W/m -4,9 C -2,9 C 9,7 km/h (2 Bft)
28.01.2023 16:21 -2,9 C -2,2 C 86 % 1031,1 hPa 0,0 l/m 5,4 km/h (1 Bft) N 355 0 min 0,0 UV-I 42 W/m -4,9 C -2,9 C 8,0 km/h (2 Bft)
28.01.2023 16:24 -2,9 C -2,2 C 86 % 1031,0 hPa 0,0 l/m 4,7 km/h (1 Bft) N-NW 344 0 min 0,0 UV-I 40 W/m -4,9 C -2,9 C 8,0 km/h (2 Bft)
28.01.2023 16:27 -2,8 C -2,2 C 86 % 1031,2 hPa 0,0 l/m 6,8 km/h (2 Bft) N-NO 14 0 min 0,0 UV-I 34 W/m -4,8 C -3,2 C 12,9 km/h (3 Bft)
28.01.2023 16:30 -2,9 C -2,2 C 86 % 1031,1 hPa 0,0 l/m 4,2 km/h (1 Bft) N-NO 26 0 min 0,0 UV-I 27 W/m -4,9 C -2,9 C 12,9 km/h (3 Bft)
28.01.2023 16:33 -2,9 C -2,2 C 86 % 1031,1 hPa 0,0 l/m 7,9 km/h (2 Bft) N-NO 19 0 min 0,0 UV-I 26 W/m -4,9 C -4,6 C 14,5 km/h (3 Bft)
28.01.2023 16:36 -2,9 C -2,2 C 86 % 1031,2 hPa 0,0 l/m 5,9 km/h (2 Bft) N 5 0 min 0,0 UV-I 25 W/m -4,9 C -2,9 C 11,3 km/h (2 Bft)
28.01.2023 16:39 -3,0 C -2,2 C 86 % 1031,2 hPa 0,0 l/m 6,0 km/h (2 Bft) N 5 0 min 0,0 UV-I 26 W/m -5,0 C -3,0 C 11,3 km/h (2 Bft)
28.01.2023 16:42 -3,0 C -2,8 C 86 % 1031,2 hPa 0,0 l/m 7,9 km/h (2 Bft) N-NW 348 0 min 0,0 UV-I 23 W/m -5,0 C -4,7 C 12,9 km/h (3 Bft)
28.01.2023 16:45 -3,1 C -2,8 C 86 % 1031,2 hPa 0,0 l/m 5,7 km/h (1 Bft) N 5 0 min 0,0 UV-I 20 W/m -5,1 C -3,1 C 8,0 km/h (2 Bft)
28.01.2023 16:48 -3,1 C -2,2 C 86 % 1031,3 hPa 0,0 l/m 3,3 km/h (1 Bft) N-NO 19 0 min 0,0 UV-I 19 W/m -5,1 C -3,1 C 9,7 km/h (2 Bft)
28.01.2023 16:51 -3,1 C -2,8 C 86 % 1031,1 hPa 0,0 l/m 5,1 km/h (1 Bft) N 9 0 min 0,0 UV-I 18 W/m -5,1 C -3,1 C 9,7 km/h (2 Bft)
28.01.2023 16:54 -3,1 C -2,8 C 86 % 1031,1 hPa 0,0 l/m 3,1 km/h (1 Bft) NO 41 0 min 0,0 UV-I 16 W/m -5,1 C -3,1 C 9,7 km/h (2 Bft)
28.01.2023 16:57 -3,2 C -2,8 C 86 % 1031,0 hPa 0,0 l/m 5,3 km/h (1 Bft) NO 45 0 min 0,0 UV-I 14 W/m -5,2 C -3,2 C 8,0 km/h (2 Bft)
28.01.2023 17:00 -3,2 C -2,8 C 86 % 1030,9 hPa 0,0 l/m 3,2 km/h (1 Bft) O-NO 60 0 min 0,0 UV-I 12 W/m -5,2 C -3,2 C 4,8 km/h (1 Bft)
28.01.2023 17:03 -3,2 C -2,8 C 86 % 1031,0 hPa 0,0 l/m 3,6 km/h (1 Bft) N-NO 30 0 min 0,0 UV-I 13 W/m -5,2 C -3,2 C 6,4 km/h (2 Bft)
28.01.2023 17:06 -3,3 C -2,8 C 86 % 1031,1 hPa 0,0 l/m 2,1 km/h (1 Bft) N-NO 28 0 min 0,0 UV-I 10 W/m -5,3 C -3,3 C 6,4 km/h (2 Bft)
28.01.2023 17:09 -3,2 C -2,8 C 86 % 1031,0 hPa 0,0 l/m 1,5 km/h (1 Bft) N-NO 29 0 min 0,0 UV-I 8 W/m -5,2 C -3,2 C 3,2 km/h (1 Bft)
28.01.2023 17:12 -3,2 C -2,8 C 86 % 1031,1 hPa 0,0 l/m 3,4 km/h (1 Bft) NO 45 0 min 0,0 UV-I 7 W/m -5,2 C -3,2 C 6,4 km/h (2 Bft)
28.01.2023 17:15 -3,2 C -3,3 C 86 % 1031,0 hPa 0,0 l/m 5,3 km/h (1 Bft) NO 45 0 min 0,0 UV-I 5 W/m -5,2 C -3,2 C 8,0 km/h (2 Bft)
28.01.2023 17:18 -3,3 C -3,3 C 86 % 1030,9 hPa 0,0 l/m 2,7 km/h (1 Bft) NO 46 0 min 0,0 UV-I 2 W/m -5,3 C -3,3 C 4,8 km/h (1 Bft)
28.01.2023 17:21 -3,3 C -3,9 C 86 % 1030,9 hPa 0,0 l/m 0,6 km/h (0 Bft) NO 46 0 min 0,0 UV-I 0 W/m -5,3 C -3,3 C 3,2 km/h (1 Bft)
28.01.2023 17:24 -3,3 C -3,9 C 86 % 1031,0 hPa 0,0 l/m 1,3 km/h (1 Bft) NO 43 0 min 0,0 UV-I 0 W/m -5,3 C -3,3 C 3,2 km/h (1 Bft)
28.01.2023 17:27 -3,3 C -3,9 C 86 % 1030,8 hPa 0,0 l/m 1,8 km/h (1 Bft) NO 38 0 min 0,0 UV-I 0 W/m -5,3 C -3,3 C 4,8 km/h (1 Bft)
28.01.2023 17:30 -3,3 C -4,4 C 86 % 1030,8 hPa 0,0 l/m 0,3 km/h (0 Bft) NO 38 0 min 0,0 UV-I 0 W/m -5,3 C -3,3 C 1,6 km/h (1 Bft)
28.01.2023 17:33 -3,4 C -4,4 C 86 % 1030,9 hPa 0,0 l/m 0,1 km/h (0 Bft) NO 38 0 min 0,0 UV-I 0 W/m -5,4 C -3,4 C 1,6 km/h (1 Bft)
28.01.2023 17:36 -3,4 C -4,4 C 86 % 1030,9 hPa 0,0 l/m 0,0 km/h (0 Bft) NO 38 0 min 0,0 UV-I 0 W/m -5,4 C -3,4 C 0,0 km/h (0 Bft)
28.01.2023 17:39 -3,4 C -4,4 C 86 % 1030,8 hPa 0,0 l/m 0,0 km/h (0 Bft) NO 38 0 min 0,0 UV-I 0 W/m -5,4 C -3,4 C 0,0 km/h (0 Bft)
28.01.2023 17:42 -3,4 C -4,4 C 86 % 1030,7 hPa 0,0 l/m 0,0 km/h (0 Bft) NO 38 0 min 0,0 UV-I 0 W/m -5,4 C -3,4 C 0,0 km/h (0 Bft)
28.01.2023 17:45 -3,5 C -4,4 C 86 % 1030,8 hPa 0,0 l/m 0,0 km/h (0 Bft) NO 38 0 min 0,0 UV-I 0 W/m -5,5 C -3,5 C 0,0 km/h (0 Bft)
28.01.2023 17:48 -3,5 C -4,4 C 86 % 1030,9 hPa 0,0 l/m 0,0 km/h (0 Bft) NO 38 0 min 0,0 UV-I 0 W/m -5,5 C -3,5 C 0,0 km/h (0 Bft)
28.01.2023 17:51 -3,6 C -4,4 C 86 % 1030,8 hPa 0,0 l/m 0,0 km/h (0 Bft) NO 38 0 min 0,0 UV-I 0 W/m -5,6 C -3,6 C 0,0 km/h (0 Bft)
28.01.2023 17:54 -3,6 C -4,4 C 86 % 1030,8 hPa 0,0 l/m 0,3 km/h (0 Bft) NO 38 0 min 0,0 UV-I 0 W/m -5,6 C -3,6 C 3,2 km/h (1 Bft)
28.01.2023 17:57 -3,6 C -4,4 C 86 % 1030,9 hPa 0,0 l/m 0,6 km/h (0 Bft) NO 38 0 min 0,0 UV-I 0 W/m -5,6 C -3,6 C 3,2 km/h (1 Bft)
28.01.2023 18:00 -3,6 C -4,4 C 86 % 1030,9 hPa 0,0 l/m 0,0 km/h (0 Bft) NO 38 0 min 0,0 UV-I 0 W/m -5,6 C -3,6 C 0,0 km/h (0 Bft)
28.01.2023 18:03 -3,6 C -3,9 C 86 % 1031,0 hPa 0,0 l/m 0,0 km/h (0 Bft) NO 38 0 min 0,0 UV-I 0 W/m -5,6 C -3,6 C 0,0 km/h (0 Bft)
28.01.2023 18:06 -3,6 C -3,9 C 86 % 1031,0 hPa 0,0 l/m 0,8 km/h (0 Bft) NO 38 0 min 0,0 UV-I 0 W/m -5,6 C -3,6 C 1,6 km/h (1 Bft)
28.01.2023 18:09 -3,7 C -3,9 C 86 % 1031,2 hPa 0,0 l/m 0,6 km/h (0 Bft) NO 38 0 min 0,0 UV-I 0 W/m -5,7 C -3,7 C 1,6 km/h (1 Bft)
28.01.2023 18:12 -3,7 C -3,9 C 86 % 1031,3 hPa 0,0 l/m 1,2 km/h (1 Bft) NO 38 0 min 0,0 UV-I 0 W/m -5,7 C -3,7 C 3,2 km/h (1 Bft)
28.01.2023 18:15 -3,7 C -3,9 C 86 % 1031,4 hPa 0,0 l/m 0,2 km/h (0 Bft) NO 38 0 min 0,0 UV-I 0 W/m -5,7 C -3,7 C 1,6 km/h (1 Bft)
28.01.2023 18:18 -3,7 C -3,9 C 86 % 1031,6 hPa 0,0 l/m 0,0 km/h (0 Bft) NO 38 0 min 0,0 UV-I 0 W/m -5,7 C -3,7 C 1,6 km/h (1 Bft)
28.01.2023 18:21 -3,7 C -3,3 C 87 % 1031,6 hPa 0,0 l/m 1,0 km/h (0 Bft) NO 38 0 min 0,0 UV-I 0 W/m -5,5 C -3,7 C 3,2 km/h (1 Bft)
28.01.2023 18:24 -3,7 C -3,3 C 87 % 1031,8 hPa 0,0 l/m 4,5 km/h (1 Bft) N 360 0 min 0,0 UV-I 0 W/m -5,5 C -3,7 C 6,4 km/h (2 Bft)
28.01.2023 18:27 -3,7 C -3,3 C 87 % 1031,8 hPa 0,0 l/m 4,1 km/h (1 Bft) N-NW 336 0 min 0,0 UV-I 0 W/m -5,5 C -3,7 C 8,0 km/h (2 Bft)
28.01.2023 18:30 -3,7 C -3,3 C 87 % 1032,0 hPa 0,0 l/m 7,3 km/h (2 Bft) N-NW 338 0 min 0,0 UV-I 0 W/m -5,5 C -4,7 C 12,9 km/h (3 Bft)
28.01.2023 18:33 -3,7 C -3,3 C 87 % 1031,9 hPa 0,0 l/m 7,7 km/h (2 Bft) N-NW 329 0 min 0,0 UV-I 0 W/m -5,5 C -5,2 C 16,1 km/h (3 Bft)
28.01.2023 18:36 -3,7 C -3,3 C 87 % 1032,1 hPa 0,0 l/m 7,2 km/h (2 Bft) N-NW 346 0 min 0,0 UV-I 0 W/m -5,5 C -4,6 C 12,9 km/h (3 Bft)
28.01.2023 18:39 -3,7 C -3,3 C 87 % 1032,2 hPa 0,0 l/m 5,2 km/h (1 Bft) N-NW 333 0 min 0,0 UV-I 0 W/m -5,5 C -3,7 C 14,5 km/h (3 Bft)
28.01.2023 18:42 -3,7 C -3,3 C 87 % 1032,3 hPa 0,0 l/m 3,8 km/h (1 Bft) NW 315 0 min 0,0 UV-I 0 W/m -5,5 C -3,7 C 8,0 km/h (2 Bft)
28.01.2023 18:45 -3,7 C -3,3 C 87 % 1032,4 hPa 0,0 l/m 5,0 km/h (1 Bft) N-NW 331 0 min 0,0 UV-I 0 W/m -5,5 C -3,7 C 9,7 km/h (2 Bft)
28.01.2023 18:48 -3,7 C -3,3 C 87 % 1032,3 hPa 0,0 l/m 3,9 km/h (1 Bft) N 355 0 min 0,0 UV-I 0 W/m -5,5 C -3,7 C 6,4 km/h (2 Bft)
28.01.2023 18:51 -3,7 C -3,3 C 87 % 1032,3 hPa 0,0 l/m 2,6 km/h (1 Bft) N 355 0 min 0,0 UV-I 0 W/m -5,5 C -3,7 C 4,8 km/h (1 Bft)
28.01.2023 18:54 -3,7 C -3,3 C 87 % 1032,4 hPa 0,0 l/m 5,0 km/h (1 Bft) N-NO 20 0 min 0,0 UV-I 0 W/m -5,5 C -3,7 C 14,5 km/h (3 Bft)
28.01.2023 18:57 -3,7 C -3,3 C 88 % 1032,4 hPa 0,0 l/m 11,8 km/h (2 Bft) N 5 0 min 0,0 UV-I 0 W/m -5,4 C -9,1 C 17,7 km/h (3 Bft)
28.01.2023 19:00 -3,7 C -3,3 C 88 % 1032,3 hPa 0,0 l/m 11,5 km/h (2 Bft) N-NW 331 0 min 0,0 UV-I 0 W/m -5,4 C -8,9 C 17,7 km/h (3 Bft)
28.01.2023 19:03 -3,7 C -3,3 C 88 % 1032,1 hPa 0,0 l/m 7,4 km/h (2 Bft) N-NW 346 0 min 0,0 UV-I 0 W/m -5,4 C -4,9 C 12,9 km/h (3 Bft)
28.01.2023 19:06 -3,7 C -3,3 C 88 % 1032,1 hPa 0,0 l/m 5,4 km/h (1 Bft) N-NW 342 0 min 0,0 UV-I 0 W/m -5,4 C -3,7 C 12,9 km/h (3 Bft)
28.01.2023 19:09 -3,7 C -3,3 C 88 % 1032,5 hPa 0,0 l/m 6,7 km/h (2 Bft) N-NW 339 0 min 0,0 UV-I 0 W/m -5,4 C -4,0 C 14,5 km/h (3 Bft)
28.01.2023 19:12 -3,7 C -3,3 C 88 % 1032,0 hPa 0,0 l/m 9,9 km/h (2 Bft) N-NW 342 0 min 0,0 UV-I 0 W/m -5,4 C -7,4 C 14,5 km/h (3 Bft)
28.01.2023 19:15 -3,7 C -3,3 C 88 % 1031,9 hPa 0,0 l/m 6,5 km/h (2 Bft) NO 35 0 min 0,0 UV-I 0 W/m -5,4 C -3,8 C 9,7 km/h (2 Bft)
28.01.2023 19:18 -3,7 C -3,3 C 88 % 1032,0 hPa 0,0 l/m 5,1 km/h (1 Bft) N-NO 24 0 min 0,0 UV-I 0 W/m -5,4 C -3,7 C 9,7 km/h (2 Bft)
28.01.2023 19:21 -3,7 C -3,3 C 88 % 1031,9 hPa 0,0 l/m 5,0 km/h (1 Bft) N-NO 20 0 min 0,0 UV-I 0 W/m -5,4 C -3,7 C 11,3 km/h (2 Bft)
28.01.2023 19:24 -3,7 C -3,3 C 88 % 1031,9 hPa 0,0 l/m 7,9 km/h (2 Bft) NO 34 0 min 0,0 UV-I 0 W/m -5,4 C -5,4 C 12,9 km/h (3 Bft)
28.01.2023 19:27 -3,7 C -3,3 C 88 % 1032,0 hPa 0,0 l/m 5,6 km/h (1 Bft) NO 48 0 min 0,0 UV-I 0 W/m -5,4 C -3,7 C 9,7 km/h (2 Bft)
28.01.2023 19:30 -3,7 C -3,3 C 88 % 1032,0 hPa 0,0 l/m 4,9 km/h (1 Bft) N-NO 28 0 min 0,0 UV-I 0 W/m -5,4 C -3,7 C 8,0 km/h (2 Bft)
28.01.2023 19:33 -3,6 C -3,3 C 88 % 1032,1 hPa 0,0 l/m 5,8 km/h (2 Bft) N-NO 19 0 min 0,0 UV-I 0 W/m -5,3 C -3,6 C 9,7 km/h (2 Bft)
28.01.2023 19:36 -3,7 C -3,3 C 88 % 1032,2 hPa 0,0 l/m 8,0 km/h (2 Bft) N 5 0 min 0,0 UV-I 0 W/m -5,4 C -5,5 C 14,5 km/h (3 Bft)
28.01.2023 19:39 -3,7 C -3,3 C 88 % 1032,1 hPa 0,0 l/m 5,2 km/h (1 Bft) N 11 0 min 0,0 UV-I 0 W/m -5,4 C -3,7 C 8,0 km/h (2 Bft)
28.01.2023 19:42 -3,7 C -3,3 C 88 % 1032,1 hPa 0,0 l/m 8,2 km/h (2 Bft) N-NO 19 0 min 0,0 UV-I 0 W/m -5,4 C -5,7 C 12,9 km/h (3 Bft)
28.01.2023 19:45 -3,7 C -3,3 C 88 % 1032,1 hPa 0,0 l/m 8,8 km/h (2 Bft) NO 42 0 min 0,0 UV-I 0 W/m -5,4 C -6,4 C 14,5 km/h (3 Bft)
28.01.2023 19:48 -3,7 C -3,3 C 88 % 1032,2 hPa 0,0 l/m 5,5 km/h (1 Bft) NO 49 0 min 0,0 UV-I 0 W/m -5,4 C -3,7 C 9,7 km/h (2 Bft)
28.01.2023 19:51 -3,7 C -3,3 C 88 % 1032,4 hPa 0,0 l/m 6,7 km/h (2 Bft) NO 48 0 min 0,0 UV-I 0 W/m -5,4 C -4,0 C 12,9 km/h (3 Bft)
28.01.2023 19:54 -3,7 C -3,3 C 88 % 1032,5 hPa 0,0 l/m 6,5 km/h (2 Bft) N-NO 22 0 min 0,0 UV-I 0 W/m -5,4 C -3,8 C 9,7 km/h (2 Bft)
28.01.2023 19:57 -3,7 C -3,3 C 88 % 1032,5 hPa 0,0 l/m 4,8 km/h (1 Bft) N-NO 15 0 min 0,0 UV-I 0 W/m -5,4 C -3,7 C 8,0 km/h (2 Bft)
28.01.2023 20:00 -3,7 C -3,3 C 88 % 1032,4 hPa 0,0 l/m 7,0 km/h (2 Bft) N-NO 13 0 min 0,0 UV-I 0 W/m -5,4 C -4,4 C 14,5 km/h (3 Bft)
28.01.2023 20:03 -3,7 C -3,3 C 88 % 1032,4 hPa 0,0 l/m 3,2 km/h (1 Bft) N-NO 15 0 min 0,0 UV-I 0 W/m -5,4 C -3,7 C 6,4 km/h (2 Bft)
28.01.2023 20:06 -3,7 C -3,3 C 88 % 1032,5 hPa 0,0 l/m 8,4 km/h (2 Bft) N 350 0 min 0,0 UV-I 0 W/m -5,4 C -6,0 C 12,9 km/h (3 Bft)
28.01.2023 20:09 -3,7 C -3,3 C 88 % 1032,6 hPa 0,0 l/m 9,8 km/h (2 Bft) N 360 0 min 0,0 UV-I 0 W/m -5,4 C -7,4 C 14,5 km/h (3 Bft)
28.01.2023 20:12 -3,8 C -3,3 C 88 % 1032,5 hPa 0,0 l/m 8,2 km/h (2 Bft) N-NW 346 0 min 0,0 UV-I 0 W/m -5,5 C -5,9 C 14,5 km/h (3 Bft)
28.01.2023 20:15 -3,8 C -3,3 C 88 % 1032,5 hPa 0,0 l/m 7,1 km/h (2 Bft) N 355 0 min 0,0 UV-I 0 W/m -5,5 C -4,6 C 12,9 km/h (3 Bft)
28.01.2023 20:18 -3,8 C -3,3 C 88 % 1032,4 hPa 0,0 l/m 8,0 km/h (2 Bft) N-NO 19 0 min 0,0 UV-I 0 W/m -5,5 C -5,6 C 14,5 km/h (3 Bft)
28.01.2023 20:21 -3,8 C -3,3 C 88 % 1032,4 hPa 0,0 l/m 5,5 km/h (1 Bft) N-NO 24 0 min 0,0 UV-I 0 W/m -5,5 C -3,8 C 8,0 km/h (2 Bft)
28.01.2023 20:24 -3,8 C -3,3 C 88 % 1032,4 hPa 0,0 l/m 3,6 km/h (1 Bft) N-NO 23 0 min 0,0 UV-I 0 W/m -5,5 C -3,8 C 6,4 km/h (2 Bft)
28.01.2023 20:27 -3,8 C -3,3 C 88 % 1032,3 hPa 0,0 l/m 3,9 km/h (1 Bft) NO 34 0 min 0,0 UV-I 0 W/m -5,5 C -3,8 C 9,7 km/h (2 Bft)
28.01.2023 20:30 -3,8 C -3,3 C 88 % 1032,5 hPa 0,0 l/m 6,1 km/h (2 Bft) O-NO 58 0 min 0,0 UV-I 0 W/m -5,5 C -3,8 C 9,7 km/h (2 Bft)
28.01.2023 20:33 -3,8 C -3,3 C 88 % 1032,6 hPa 0,0 l/m 6,9 km/h (2 Bft) N-NO 22 0 min 0,0 UV-I 0 W/m -5,5 C -4,4 C 12,9 km/h (3 Bft)
28.01.2023 20:36 -3,8 C -3,3 C 88 % 1032,5 hPa 0,0 l/m 7,4 km/h (2 Bft) N-NO 32 0 min 0,0 UV-I 0 W/m -5,5 C -5,0 C 12,9 km/h (3 Bft)
28.01.2023 20:39 -3,8 C -3,3 C 88 % 1032,6 hPa 0,0 l/m 8,0 km/h (2 Bft) N 349 0 min 0,0 UV-I 0 W/m -5,5 C -5,6 C 14,5 km/h (3 Bft)
28.01.2023 20:42 -3,8 C -3,9 C 88 % 1032,6 hPa 0,0 l/m 4,9 km/h (1 Bft) N 350 0 min 0,0 UV-I 0 W/m -5,5 C -3,8 C 11,3 km/h (2 Bft)
28.01.2023 20:45 -3,9 C -3,3 C 88 % 1032,6 hPa 0,0 l/m 4,8 km/h (1 Bft) N 5 0 min 0,0 UV-I 0 W/m -5,6 C -3,9 C 8,0 km/h (2 Bft)
28.01.2023 20:48 -3,9 C -3,3 C 88 % 1032,5 hPa 0,0 l/m 4,1 km/h (1 Bft) N-NO 19 0 min 0,0 UV-I 0 W/m -5,6 C -3,9 C 8,0 km/h (2 Bft)
28.01.2023 20:51 -3,9 C -3,3 C 88 % 1032,4 hPa 0,0 l/m 6,6 km/h (2 Bft) N-NO 27 0 min 0,0 UV-I 0 W/m -5,6 C -4,1 C 11,3 km/h (2 Bft)
28.01.2023 20:54 -3,9 C -3,3 C 88 % 1032,4 hPa 0,0 l/m 5,1 km/h (1 Bft) N-NO 30 0 min 0,0 UV-I 0 W/m -5,6 C -3,9 C 9,7 km/h (2 Bft)
28.01.2023 20:57 -3,9 C -3,3 C 88 % 1032,4 hPa 0,0 l/m 5,8 km/h (2 Bft) NO 40 0 min 0,0 UV-I 0 W/m -5,6 C -3,9 C 11,3 km/h (2 Bft)
28.01.2023 21:00 -3,9 C -3,3 C 88 % 1032,5 hPa 0,0 l/m 7,2 km/h (2 Bft) N-NO 33 0 min 0,0 UV-I 0 W/m -5,6 C -4,8 C 12,9 km/h (3 Bft)
28.01.2023 21:03 -4,0 C -3,3 C 88 % 1032,4 hPa 0,0 l/m 5,8 km/h (2 Bft) NO 36 0 min 0,0 UV-I 0 W/m -5,7 C -4,0 C 8,0 km/h (2 Bft)
28.01.2023 21:06 -4,0 C -3,9 C 88 % 1032,4 hPa 0,0 l/m 6,4 km/h (2 Bft) N 355 0 min 0,0 UV-I 0 W/m -5,7 C -3,9 C 11,3 km/h (2 Bft)
28.01.2023 21:09 -4,0 C -3,9 C 88 % 1032,4 hPa 0,0 l/m 7,3 km/h (2 Bft) N 355 0 min 0,0 UV-I 0 W/m -5,7 C -5,1 C 12,9 km/h (3 Bft)
28.01.2023 21:12 -4,1 C -3,9 C 88 % 1032,5 hPa 0,0 l/m 9,8 km/h (2 Bft) N 360 0 min 0,0 UV-I 0 W/m -5,8 C -7,8 C 14,5 km/h (3 Bft)
28.01.2023 21:15 -4,1 C -3,9 C 88 % 1032,8 hPa 0,0 l/m 8,7 km/h (2 Bft) N 5 0 min 0,0 UV-I 0 W/m -5,8 C -6,7 C 12,9 km/h (3 Bft)
28.01.2023 21:18 -4,1 C -3,9 C 88 % 1032,7 hPa 0,0 l/m 7,0 km/h (2 Bft) N-NO 27 0 min 0,0 UV-I 0 W/m -5,8 C -4,8 C 12,9 km/h (3 Bft)
28.01.2023 21:21 -4,1 C -3,9 C 88 % 1032,7 hPa 0,0 l/m 7,1 km/h (2 Bft) NO 50 0 min 0,0 UV-I 0 W/m -5,8 C -4,9 C 14,5 km/h (3 Bft)
28.01.2023 21:24 -4,1 C -3,9 C 88 % 1032,7 hPa 0,0 l/m 7,0 km/h (2 Bft) N-NO 21 0 min 0,0 UV-I 0 W/m -5,8 C -4,8 C 9,7 km/h (2 Bft)
28.01.2023 21:27 -4,1 C -3,9 C 88 % 1032,7 hPa 0,0 l/m 4,5 km/h (1 Bft) N 9 0 min 0,0 UV-I 0 W/m -5,8 C -4,1 C 6,4 km/h (2 Bft)
28.01.2023 21:30 -4,1 C -3,9 C 88 % 1032,7 hPa 0,0 l/m 5,5 km/h (1 Bft) N-NO 25 0 min 0,0 UV-I 0 W/m -5,8 C -4,1 C 8,0 km/h (2 Bft)
28.01.2023 21:33 -4,1 C -3,9 C 88 % 1032,6 hPa 0,0 l/m 4,9 km/h (1 Bft) N-NO 30 0 min 0,0 UV-I 0 W/m -5,8 C -4,1 C 9,7 km/h (2 Bft)
28.01.2023 21:36 -4,1 C -3,9 C 88 % 1032,6 hPa 0,0 l/m 6,8 km/h (2 Bft) N-NO 31 0 min 0,0 UV-I 0 W/m -5,8 C -4,6 C 9,7 km/h (2 Bft)
28.01.2023 21:39 -4,1 C -3,9 C 88 % 1032,6 hPa 0,0 l/m 6,7 km/h (2 Bft) NO 38 0 min 0,0 UV-I 0 W/m -5,8 C -4,4 C 12,9 km/h (3 Bft)
28.01.2023 21:42 -4,1 C -3,9 C 88 % 1032,7 hPa 0,0 l/m 4,5 km/h (1 Bft) NO 53 0 min 0,0 UV-I 0 W/m -5,8 C -4,1 C 8,0 km/h (2 Bft)
28.01.2023 21:45 -4,1 C -3,9 C 88 % 1032,7 hPa 0,0 l/m 3,4 km/h (1 Bft) NO 49 0 min 0,0 UV-I 0 W/m -5,8 C -4,1 C 6,4 km/h (2 Bft)
28.01.2023 21:48 -4,1 C -3,9 C 88 % 1032,7 hPa 0,0 l/m 3,9 km/h (1 Bft) N 5 0 min 0,0 UV-I 0 W/m -5,8 C -4,1 C 6,4 km/h (2 Bft)
28.01.2023 21:51 -4,1 C -3,9 C 88 % 1032,6 hPa 0,0 l/m 4,6 km/h (1 Bft) N-NW 346 0 min 0,0 UV-I 0 W/m -5,8 C -4,1 C 9,7 km/h (2 Bft)
28.01.2023 21:54 -4,1 C -3,9 C 88 % 1032,6 hPa 0,0 l/m 4,5 km/h (1 Bft) N 11 0 min 0,0 UV-I 0 W/m -5,8 C -4,1 C 12,9 km/h (3 Bft)
28.01.2023 21:57 -4,1 C -3,9 C 88 % 1032,5 hPa 0,0 l/m 4,1 km/h (1 Bft) N-NO 13 0 min 0,0 UV-I 0 W/m -5,8 C -4,1 C 8,0 km/h (2 Bft)
28.01.2023 22:00 -4,1 C -3,9 C 88 % 1032,5 hPa 0,0 l/m 1,6 km/h (1 Bft) N-NO 13 0 min 0,0 UV-I 0 W/m -5,8 C -4,1 C 4,8 km/h (1 Bft)
28.01.2023 22:03 -4,1 C -3,9 C 88 % 1032,5 hPa 0,0 l/m 2,8 km/h (1 Bft) N 351 0 min 0,0 UV-I 0 W/m -5,8 C -4,1 C 4,8 km/h (1 Bft)
28.01.2023 22:06 -4,1 C -3,9 C 88 % 1032,5 hPa 0,0 l/m 1,4 km/h (1 Bft) N 355 0 min 0,0 UV-I 0 W/m -5,8 C -4,1 C 4,8 km/h (1 Bft)
28.01.2023 22:09 -4,1 C -3,9 C 88 % 1032,6 hPa 0,0 l/m 2,5 km/h (1 Bft) N-NO 21 0 min 0,0 UV-I 0 W/m -5,8 C -4,1 C 4,8 km/h (1 Bft)
28.01.2023 22:12 -4,1 C -3,9 C 88 % 1032,6 hPa 0,0 l/m 0,7 km/h (0 Bft) N-NO 21 0 min 0,0 UV-I 0 W/m -5,8 C -4,1 C 3,2 km/h (1 Bft)
28.01.2023 22:15 -4,1 C -3,9 C 88 % 1032,7 hPa 0,0 l/m 0,9 km/h (0 Bft) N-NO 21 0 min 0,0 UV-I 0 W/m -5,8 C -4,1 C 3,2 km/h (1 Bft)
28.01.2023 22:18 -4,1 C -3,9 C 88 % 1032,7 hPa 0,0 l/m 0,2 km/h (0 Bft) N-NO 21 0 min 0,0 UV-I 0 W/m -5,8 C -4,1 C 1,6 km/h (1 Bft)
28.01.2023 22:21 -4,1 C -3,9 C 88 % 1032,7 hPa 0,0 l/m 1,2 km/h (1 Bft) N-NO 22 0 min 0,0 UV-I 0 W/m -5,8 C -4,1 C 3,2 km/h (1 Bft)
28.01.2023 22:24 -4,1 C -3,9 C 88 % 1032,7 hPa 0,0 l/m 1,2 km/h (1 Bft) N-NO 22 0 min 0,0 UV-I 0 W/m -5,8 C -4,1 C 3,2 km/h (1 Bft)
28.01.2023 22:27 -4,1 C -3,9 C 88 % 1032,7 hPa 0,0 l/m 3,4 km/h (1 Bft) N-NO 31 0 min 0,0 UV-I 0 W/m -5,8 C -4,1 C 6,4 km/h (2 Bft)
28.01.2023 22:30 -4,1 C -3,9 C 88 % 1032,6 hPa 0,0 l/m 2,7 km/h (1 Bft) NO 36 0 min 0,0 UV-I 0 W/m -5,8 C -4,1 C 6,4 km/h (2 Bft)
28.01.2023 22:33 -4,1 C -3,9 C 88 % 1032,6 hPa 0,0 l/m 4,5 km/h (1 Bft) N-NO 27 0 min 0,0 UV-I 0 W/m -5,8 C -4,1 C 8,0 km/h (2 Bft)
28.01.2023 22:36 -4,2 C -3,9 C 88 % 1032,6 hPa 0,0 l/m 4,5 km/h (1 Bft) NO 37 0 min 0,0 UV-I 0 W/m -5,9 C -4,2 C 6,4 km/h (2 Bft)
28.01.2023 22:39 -4,2 C -3,9 C 88 % 1032,6 hPa 0,0 l/m 3,2 km/h (1 Bft) NO 41 0 min 0,0 UV-I 0 W/m -5,9 C -4,2 C 4,8 km/h (1 Bft)
28.01.2023 22:42 -4,2 C -3,9 C 88 % 1032,6 hPa 0,0 l/m 0,8 km/h (0 Bft) NO 41 0 min 0,0 UV-I 0 W/m -5,9 C -4,2 C 3,2 km/h (1 Bft)
28.01.2023 22:45 -4,2 C -3,9 C 88 % 1032,6 hPa 0,0 l/m 0,8 km/h (0 Bft) NO 41 0 min 0,0 UV-I 0 W/m -5,9 C -4,2 C 3,2 km/h (1 Bft)
28.01.2023 22:48 -4,2 C -3,9 C 88 % 1032,5 hPa 0,0 l/m 2,0 km/h (1 Bft) NO 42 0 min 0,0 UV-I 0 W/m -5,9 C -4,2 C 4,8 km/h (1 Bft)
28.01.2023 22:51 -4,2 C -3,9 C 88 % 1032,5 hPa 0,0 l/m 3,0 km/h (1 Bft) O-NO 57 0 min 0,0 UV-I 0 W/m -5,9 C -4,2 C 8,0 km/h (2 Bft)
28.01.2023 22:54 -4,3 C -3,9 C 88 % 1032,5 hPa 0,0 l/m 5,2 km/h (1 Bft) N-NO 32 0 min 0,0 UV-I 0 W/m -6,0 C -4,3 C 8,0 km/h (2 Bft)
28.01.2023 22:57 -4,3 C -3,9 C 88 % 1032,4 hPa 0,0 l/m 4,5 km/h (1 Bft) N-NO 27 0 min 0,0 UV-I 0 W/m -6,0 C -4,3 C 8,0 km/h (2 Bft)
28.01.2023 23:00 -4,3 C -3,9 C 88 % 1032,4 hPa 0,0 l/m 2,3 km/h (1 Bft) N-NO 23 0 min 0,0 UV-I 0 W/m -6,0 C -4,3 C 8,0 km/h (2 Bft)
28.01.2023 23:03 -4,3 C -3,9 C 88 % 1032,4 hPa 0,0 l/m 4,1 km/h (1 Bft) N-NO 22 0 min 0,0 UV-I 0 W/m -6,0 C -4,3 C 8,0 km/h (2 Bft)
28.01.2023 23:06 -4,3 C -3,9 C 88 % 1032,4 hPa 0,0 l/m 3,0 km/h (1 Bft) N-NO 24 0 min 0,0 UV-I 0 W/m -6,0 C -4,3 C 6,4 km/h (2 Bft)
28.01.2023 23:09 -4,3 C -4,4 C 88 % 1032,3 hPa 0,0 l/m 2,6 km/h (1 Bft) O-NO 60 0 min 0,0 UV-I 0 W/m -6,0 C -4,3 C 4,8 km/h (1 Bft)
28.01.2023 23:12 -4,4 C -4,4 C 88 % 1032,3 hPa 0,0 l/m 0,0 km/h (0 Bft) O-NO 60 0 min 0,0 UV-I 0 W/m -6,1 C -4,4 C 1,6 km/h (1 Bft)
28.01.2023 23:15 -4,3 C -4,4 C 88 % 1032,3 hPa 0,0 l/m 1,0 km/h (0 Bft) O-NO 59 0 min 0,0 UV-I 0 W/m -6,0 C -4,3 C 3,2 km/h (1 Bft)
28.01.2023 23:18 -4,4 C -4,4 C 88 % 1032,3 hPa 0,0 l/m 0,2 km/h (0 Bft) O-NO 59 0 min 0,0 UV-I 0 W/m -6,1 C -4,4 C 1,6 km/h (1 Bft)
28.01.2023 23:21 -4,4 C -4,4 C 88 % 1032,3 hPa 0,0 l/m 1,0 km/h (0 Bft) O-NO 57 0 min 0,0 UV-I 0 W/m -6,1 C -4,4 C 3,2 km/h (1 Bft)
28.01.2023 23:24 -4,4 C -4,4 C 88 % 1032,3 hPa 0,0 l/m 1,7 km/h (1 Bft) O-NO 57 0 min 0,0 UV-I 0 W/m -6,1 C -4,4 C 3,2 km/h (1 Bft)
28.01.2023 23:27 -4,4 C -4,4 C 88 % 1032,2 hPa 0,0 l/m 2,1 km/h (1 Bft) N-NO 28 0 min 0,0 UV-I 0 W/m -6,1 C -4,4 C 4,8 km/h (1 Bft)
28.01.2023 23:30 -4,4 C -4,4 C 88 % 1032,3 hPa 0,0 l/m 0,8 km/h (0 Bft) N-NO 28 0 min 0,0 UV-I 0 W/m -6,1 C -4,4 C 3,2 km/h (1 Bft)
28.01.2023 23:33 -4,4 C -4,4 C 88 % 1032,2 hPa 0,0 l/m 0,0 km/h (0 Bft) N-NO 28 0 min 0,0 UV-I 0 W/m -6,1 C -4,4 C 0,0 km/h (0 Bft)
28.01.2023 23:36 -4,4 C -4,4 C 88 % 1032,2 hPa 0,0 l/m 0,0 km/h (0 Bft) N-NO 28 0 min 0,0 UV-I 0 W/m -6,1 C -4,4 C 1,6 km/h (1 Bft)
28.01.2023 23:39 -4,4 C -4,4 C 88 % 1032,2 hPa 0,0 l/m 0,0 km/h (0 Bft) N-NO 28 0 min 0,0 UV-I 0 W/m -6,1 C -4,4 C 0,0 km/h (0 Bft)
28.01.2023 23:42 -4,4 C -4,4 C 88 % 1032,2 hPa 0,0 l/m 0,0 km/h (0 Bft) N-NO 28 0 min 0,0 UV-I 0 W/m -6,1 C -4,4 C 0,0 km/h (0 Bft)
28.01.2023 23:45 -4,4 C -4,4 C 88 % 1032,2 hPa 0,0 l/m 0,0 km/h (0 Bft) N-NO 28 0 min 0,0 UV-I 0 W/m -6,1 C -4,4 C 0,0 km/h (0 Bft)
28.01.2023 23:48 -4,4 C -4,4 C 88 % 1032,2 hPa 0,0 l/m 0,0 km/h (0 Bft) N-NO 28 0 min 0,0 UV-I 0 W/m -6,1 C -4,4 C 0,0 km/h (0 Bft)
28.01.2023 23:51 -4,5 C -4,4 C 88 % 1032,1 hPa 0,0 l/m 0,0 km/h (0 Bft) N-NO 28 0 min 0,0 UV-I 0 W/m -6,2 C -4,5 C 0,0 km/h (0 Bft)
28.01.2023 23:52 -4,4 C -4,4 C 88 % 1032,1 hPa 0,0 l/m 0,0 km/h (0 Bft) N 0 0 min 0,0 UV-I 0 W/m -6,1 C -4,4 C 0,0 km/h (0 Bft)
28.01.2023 23:53 -4,5 C -4,4 C 88 % 1032,1 hPa 0,0 l/m 0,0 km/h (0 Bft) N 0 0 min 0,0 UV-I 0 W/m -6,2 C -4,5 C 0,0 km/h (0 Bft)
28.01.2023 23:54 -4,4 C -4,4 C 88 % 1032,1 hPa 0,0 l/m 0,0 km/h (0 Bft) N 0 0 min 0,0 UV-I 0 W/m -6,1 C -4,4 C 0,0 km/h (0 Bft)
28.01.2023 23:55 -4,5 C -4,4 C 88 % 1032,1 hPa 0,0 l/m 0,0 km/h (0 Bft) N 0 0 min 0,0 UV-I 0 W/m -6,2 C -4,5 C 0,0 km/h (0 Bft)
28.01.2023 23:57 -4,4 C -4,4 C 88 % 1032,1 hPa 0,0 l/m 0,0 km/h (0 Bft) N-NO 28 0 min 0,0 UV-I 0 W/m -6,1 C -4,4 C 0,0 km/h (0 Bft)
28.01.2023 23:58 -4,5 C -5,0 C 88 % 1032,1 hPa 0,0 l/m 0,0 km/h (0 Bft) N 0 0 min 0,0 UV-I 0 W/m -6,2 C -4,5 C 0,0 km/h (0 Bft)
28.01.2023 23:59 -4,5 C -4,4 C 89 % 1032,2 hPa 0,0 l/m 0,0 km/h (0 Bft) N 0 0 min 0,0 UV-I 0 W/m -6,0 C -4,5 C 0,0 km/h (0 Bft)
_ Min-Zeit 23:48 23:58 13:06 00:09 - 17:36 - - - - - 23:51 05:27 17:36
Minimum _ -4,5 C -5,0 C 84 % 1027,9 hPa - 0,0 km/h (0 Bft) - - - - - -6,2 C -12,5 C 0,0 km/h (0 Bft)
_ Max-Zeit 00:00 12:42 00:00 21:15 00:00 05:27 - - 00:00 12:51 15:51 00:00 00:13 01:07
Maximum _ -0,1 C 0,6 C 92 % 1032,8 hPa 0,0 l/m 22,5 km/h
N-NW (4 Bft)
- - 0 min 0,8 UV-I 210 W/m -1,2 C -0,1 C 30,6 km/h
N (5 Bft)
Durchschnitt _ -2,3 C -1,9 C 89 % 1030,5 hPa #0,0 l/m 9,0 km/h (2 Bft) N - #0 min. 0,6 UV-I 81 W/m -3,8 C -5,4 C 13,8 km/h (3 Bft)